[[{"header":{"parameterUnit":"m.s-1","parameterCategory":1,"la1":30.6,"la2":28.766,"lo1":-90.7593,"lo2":-88.6598,"dy":0.0162,"dx":0.0183,"nx":116,"ny":114,"refTime":"2023-06-13T18:00:00:Z","depth":0,"parameterNumber":2,"parameterNumberName":"U-component_of_WINDS"},"data":[0.0,0.0,0.0,0.0,0.0,0.0,0.0,0.0,0.0,0.0,0.0,0.0,0.0,0.0,0.0,0.0,0.0,0.0,0.0,0.0,0.0,0.0,0.0,0.0,0.0,0.0,0.0,0.0,0.0,0.0,0.0,0.0,0.0,0.0,0.0,0.0,0.0,0.0,0.0,0.0,0.0,0.0,0.0,0.0,0.0,0.0,0.0,0.0,0.0,0.0,0.0,0.0,0.0,0.0,0.0,0.0,0.0,0.0,0.0,0.0,0.0,0.0,0.0,0.0,0.0,0.0,0.0,0.0,0.0,0.0,0.0,0.0,0.0,0.0,0.0,0.0,0.0,0.0,0.0,0.0,0.0,0.0,0.0,0.0,0.0,0.0,0.0,0.0,0.0,0.0,0.0,0.0,0.0,0.0,0.0,0.0,0.0,0.0,0.0,0.0,0.0,0.0,0.0,0.0,0.0,0.0,0.0,0.0,0.0,0.0,0.0,0.0,0.0,0.0,0.0,0.0,0.0,0.0,0.0,0.0,0.0,0.0,0.0,0.0,0.0,0.0,0.0,0.0,0.0,0.0,0.0,0.0,0.0,0.0,0.0,0.0,0.0,0.0,0.0,0.0,0.0,0.0,0.0,0.0,0.0,0.0,0.0,0.0,0.0,0.0,0.0,0.0,0.0,0.0,0.0,0.0,0.0,0.0,0.0,0.0,0.0,0.0,0.0,0.0,0.0,0.0,0.0,0.0,0.0,0.0,0.0,0.0,0.0,0.0,0.0,0.0,0.0,0.0,0.0,0.0,0.0,0.0,0.0,0.0,0.0,0.0,0.0,0.0,0.0,0.0,0.0,0.0,0.0,0.0,0.0,0.0,0.0,0.0,0.0,0.0,0.0,0.0,0.0,0.0,0.0,0.0,0.0,0.0,0.0,0.0,0.0,0.0,0.0,0.0,0.0,0.0,0.0,0.0,0.0,0.0,0.0,0.0,0.0,0.0,0.0,0.0,0.0,0.0,0.0,0.0,0.0,0.0,0.0,0.0,0.0,0.0,0.0,0.0,0.0,0.0,0.0,0.0,0.0,0.0,0.0,0.0,0.0,0.0,0.0,0.0,0.0,0.0,0.0,0.0,0.0,0.0,0.0,0.0,0.0,0.0,0.0,0.0,0.0,0.0,0.0,0.0,0.0,0.0,0.0,0.0,0.0,0.0,0.0,0.0,0.0,0.0,0.0,0.0,0.0,0.0,0.0,0.0,0.0,0.0,0.0,0.0,0.0,0.0,0.0,0.0,0.0,0.0,0.0,0.0,0.0,0.0,0.0,0.0,0.0,0.0,0.0,0.0,0.0,0.0,0.0,0.0,0.0,0.0,0.0,0.0,0.0,0.0,0.0,0.0,0.0,0.0,0.0,0.0,0.0,0.0,0.0,0.0,0.0,0.0,0.0,0.0,0.0,0.0,0.0,0.0,0.0,0.0,0.0,0.0,0.0,0.0,0.0,0.0,0.0,0.0,0.0,0.0,0.0,0.0,0.0,0.0,0.0,0.0,0.0,0.0,0.0,0.0,0.0,0.0,0.0,0.0,0.0,0.0,0.0,0.0,0.0,0.0,0.0,0.0,0.0,0.0,0.0,0.0,0.0,0.0,0.0,0.0,0.0,0.0,0.0,0.0,0.0,0.0,0.0,0.0,0.0,0.0,0.0,0.0,0.0,0.0,0.0,0.0,0.0,0.0,0.0,0.0,0.0,0.0,0.0,0.0,0.0,0.0,0.0,0.0,0.0,0.0,0.0,0.0,0.0,0.0,0.0,0.0,0.0,0.0,0.0,0.0,0.0,0.0,0.0,0.0,0.0,0.0,0.0,0.0,0.0,0.0,0.0,0.0,0.0,0.0,0.0,0.0,0.0,0.0,0.0,0.0,0.0,0.0,0.0,0.0,0.0,0.0,0.0,0.0,0.0,0.0,0.0,0.0,0.0,0.0,0.0,0.0,0.0,0.0,0.0,0.0,0.0,0.0,0.0,0.0,0.0,0.0,0.0,0.0,0.0,0.0,0.0,0.0,0.0,0.0,0.0,0.0,0.0,0.0,0.0,0.0,0.0,0.0,0.0,0.0,0.0,0.0,0.0,0.0,0.0,0.0,0.0,0.0,0.0,0.0,0.0,0.0,0.0,0.0,0.0,0.0,0.0,0.0,0.0,0.0,0.0,0.0,0.0,0.0,0.0,0.0,0.0,0.0,0.0,0.0,0.0,0.0,0.0,0.0,0.0,0.0,0.0,0.0,0.0,0.0,0.0,0.0,0.0,0.0,0.0,0.0,0.0,0.0,0.0,0.0,0.0,0.0,0.0,0.0,0.0,0.0,0.0,0.0,0.0,0.0,0.0,0.0,0.0,0.0,0.0,0.0,0.0,0.0,0.0,0.0,0.0,0.0,0.0,0.0,0.0,0.0,0.0,0.0,0.0,0.0,0.0,0.0,0.0,0.0,0.0,0.0,0.0,0.0,0.0,0.0,0.0,0.0,0.0,0.0,0.0,0.0,0.0,0.0,0.0,0.0,0.0,0.0,0.0,0.0,0.0,0.0,0.0,0.0,0.0,0.0,0.0,0.0,0.0,0.0,0.0,0.0,0.0,0.0,0.0,0.0,0.0,0.0,0.0,0.0,0.0,0.0,0.0,0.0,0.0,0.0,0.0,0.0,0.0,0.0,0.0,0.0,0.0,0.0,0.0,0.0,0.0,0.0,0.0,0.0,0.0,0.0,0.0,0.0,0.0,0.0,0.0,0.0,0.0,0.0,0.0,0.0,0.0,0.0,0.0,0.0,0.0,0.0,0.0,0.0,0.0,0.0,0.0,0.0,0.0,0.0,0.0,0.0,0.0,0.0,0.0,0.0,0.0,0.0,0.0,0.0,0.0,0.0,0.0,0.0,0.0,0.0,0.0,0.0,0.0,0.0,0.0,0.0,0.0,0.0,0.0,0.0,0.0,0.0,0.0,0.0,0.0,0.0,0.0,0.0,0.0,0.0,0.0,0.0,0.0,0.0,0.0,0.0,0.0,0.0,0.0,0.0,0.0,0.0,0.0,0.0,0.0,0.0,0.0,0.0,0.0,0.0,0.0,0.0,0.0,0.0,0.0,0.0,0.0,0.0,0.0,0.0,0.0,0.0,0.0,0.0,0.0,0.0,0.0,0.0,0.0,0.0,0.0,0.0,0.0,0.0,0.0,0.0,0.0,0.0,0.0,0.0,0.0,0.0,0.0,0.0,0.0,0.0,0.0,0.0,0.0,0.0,0.0,0.0,0.0,0.0,0.0,0.0,0.0,0.0,0.0,0.0,0.0,0.0,0.0,0.0,0.0,0.0,0.0,0.0,0.0,0.0,0.0,0.0,0.0,0.0,0.0,0.0,0.0,0.0,0.0,0.0,0.0,0.0,0.0,0.0,0.0,0.0,0.0,0.0,0.0,0.0,0.0,0.0,0.0,0.0,0.0,0.0,0.0,0.0,0.0,0.0,0.0,0.0,0.0,0.0,0.0,0.0,0.0,0.0,0.0,0.0,0.0,0.0,0.0,0.0,0.0,0.0,0.0,0.0,0.0,0.0,0.0,0.0,0.0,0.0,0.0,0.0,0.0,0.0,0.0,0.0,0.0,0.0,0.0,0.0,0.0,0.0,0.0,0.0,0.0,0.0,0.0,0.0,0.0,0.0,0.0,0.0,0.0,0.0,0.0,0.0,0.0,0.0,0.0,0.0,0.0,0.0,0.0,0.0,0.0,0.0,0.0,0.0,0.0,0.0,0.0,0.0,0.0,0.0,0.0,0.0,0.0,0.0,0.0,0.0,0.0,0.0,0.0,0.0,0.0,0.0,0.0,0.0,0.0,0.0,0.0,0.0,0.0,0.0,0.0,0.0,0.0,0.0,0.0,0.0,0.0,0.0,0.0,0.0,0.0,0.0,0.0,0.0,0.0,0.0,0.0,0.0,0.0,0.0,0.0,0.0,0.0,0.0,0.0,0.0,0.0,0.0,0.0,0.0,0.0,0.0,0.0,0.0,0.0,0.0,0.0,0.0,0.0,0.0,0.0,0.0,0.0,0.0,0.0,0.0,0.0,0.0,0.0,0.0,0.0,0.0,0.0,0.0,0.0,0.0,0.0,0.0,0.0,0.0,0.0,0.0,0.0,0.0,0.0,0.0,0.0,0.0,0.0,0.0,0.0,0.0,0.0,0.0,0.0,0.0,0.0,0.0,0.0,0.0,0.0,0.0,0.0,0.0,0.0,0.0,0.0,0.0,0.0,0.0,0.0,0.0,0.0,0.0,0.0,0.0,0.0,0.0,0.0,0.0,0.0,0.0,0.0,0.0,0.0,0.0,0.0,0.0,0.0,0.0,0.0,0.0,0.0,0.0,0.0,0.0,0.0,0.0,0.0,0.0,0.0,0.0,0.0,0.0,0.0,0.0,0.0,0.0,0.0,0.0,0.0,0.0,0.0,0.0,0.0,0.0,0.0,0.0,0.0,0.0,0.0,0.0,0.0,0.0,0.0,0.0,0.0,0.0,0.0,0.0,0.0,0.0,0.0,0.0,0.0,0.0,0.0,0.0,0.0,0.0,0.0,0.0,0.0,0.0,0.0,0.0,0.0,0.0,0.0,0.0,0.0,0.0,0.0,0.0,0.0,0.0,0.0,0.0,0.0,0.0,0.0,0.0,0.0,0.0,0.0,0.0,0.0,0.0,0.0,0.0,0.0,0.0,0.0,0.0,0.0,0.0,0.0,0.0,0.0,0.0,0.0,0.0,0.0,0.0,0.0,0.0,0.0,0.0,0.0,0.0,0.0,0.0,0.0,0.0,0.0,0.0,0.0,0.0,0.0,0.0,0.0,0.0,0.0,0.0,0.0,0.0,0.0,0.0,0.0,0.0,0.0,0.0,0.0,0.0,0.0,0.0,0.0,0.0,0.0,0.0,0.0,0.0,0.0,0.0,0.0,0.0,0.0,0.0,0.0,0.0,0.0,0.0,0.0,0.0,0.0,0.0,0.0,0.0,0.0,0.0,0.0,0.0,0.0,0.0,0.0,0.0,0.0,0.0,0.0,0.0,0.0,0.0,0.0,0.0,0.0,0.0,0.0,0.0,0.0,0.0,0.0,0.0,0.0,0.0,0.0,0.0,0.0,0.0,0.0,0.0,0.0,0.0,0.0,0.0,0.0,0.0,0.0,0.0,0.0,0.0,0.0,0.0,0.0,0.0,0.0,0.0,0.0,0.0,0.0,0.0,0.0,0.0,0.0,0.0,0.0,0.0,0.0,0.0,0.0,0.0,0.0,0.0,0.0,0.0,0.0,0.0,0.0,0.0,0.0,0.0,0.0,0.0,0.0,0.0,0.0,0.0,0.0,0.0,0.0,0.0,0.0,0.0,0.0,0.0,0.0,0.0,0.0,0.0,0.0,0.0,0.0,0.0,0.0,0.0,0.0,0.0,0.0,0.0,0.0,0.0,0.0,0.0,0.0,0.0,0.0,0.0,0.0,0.0,0.0,0.0,0.0,0.0,0.0,0.0,0.0,0.0,0.0,0.0,0.0,0.0,0.0,0.0,0.0,0.0,0.0,0.0,0.0,0.0,0.0,0.0,0.0,0.0,0.0,0.0,0.0,0.0,0.0,0.0,0.0,0.0,0.0,0.0,0.0,0.0,0.0,0.0,0.0,0.0,0.0,0.0,0.0,0.0,0.0,0.0,0.0,0.0,0.0,0.0,0.0,0.0,0.0,0.0,0.0,0.0,0.0,0.0,0.0,0.0,0.0,0.0,0.0,0.0,0.0,0.0,0.0,0.0,0.0,0.0,0.0,0.0,0.0,0.0,0.0,0.0,0.0,0.0,0.0,0.0,0.0,0.0,0.0,0.0,0.0,0.0,0.0,0.0,0.0,0.0,0.0,0.0,0.0,0.0,0.0,0.0,0.0,0.0,0.0,0.0,0.0,0.0,0.0,0.0,0.0,0.0,0.0,0.0,0.0,0.0,0.0,0.0,0.0,0.0,0.0,0.0,0.0,0.0,0.0,0.0,0.0,0.0,0.0,0.0,0.0,0.0,0.0,0.0,0.0,0.0,0.0,0.0,-4.2783,0.0,0.0,0.0,0.0,0.0,0.0,0.0,0.0,0.0,0.0,0.0,0.0,0.0,0.0,0.0,0.0,0.0,0.0,0.0,0.0,0.0,0.0,0.0,0.0,0.0,0.0,0.0,0.0,0.0,0.0,0.0,0.0,0.0,0.0,0.0,0.0,0.0,0.0,0.0,0.0,0.0,0.0,0.0,0.0,0.0,0.0,0.0,0.0,0.0,0.0,0.0,0.0,0.0,0.0,0.0,0.0,0.0,0.0,0.0,0.0,0.0,0.0,0.0,0.0,0.0,0.0,0.0,0.0,0.0,0.0,0.0,0.0,0.0,0.0,0.0,0.0,0.0,0.0,0.0,0.0,0.0,0.0,0.0,0.0,0.0,0.0,0.0,0.0,0.0,0.0,0.0,0.0,0.0,0.0,0.0,0.0,0.0,0.0,0.0,0.0,0.0,0.0,0.0,0.0,0.0,0.0,0.0,0.0,0.0,0.0,0.0,0.0,0.0,0.0,0.0,0.0,-4.2111,0.0,0.0,0.0,0.0,0.0,0.0,0.0,0.0,0.0,0.0,0.0,0.0,0.0,0.0,0.0,0.0,0.0,0.0,0.0,0.0,0.0,0.0,0.0,0.0,0.0,0.0,0.0,0.0,0.0,0.0,0.0,0.0,0.0,0.0,0.0,0.0,0.0,0.0,0.0,0.0,0.0,0.0,0.0,0.0,0.0,0.0,0.0,0.0,0.0,0.0,0.0,0.0,0.0,0.0,0.0,0.0,0.0,0.0,0.0,0.0,0.0,0.0,0.0,0.0,0.0,0.0,0.0,0.0,0.0,0.0,0.0,0.0,0.0,0.0,0.0,0.0,0.0,0.0,0.0,0.0,0.0,0.0,0.0,0.0,0.0,0.0,0.0,0.0,0.0,0.0,0.0,0.0,0.0,0.0,0.0,0.0,0.0,0.0,0.0,0.0,0.0,0.0,0.0,0.0,0.0,0.0,0.0,0.0,0.0,-4.4091,-4.4091,-4.4156,-4.3832,-4.3346,-4.4642,-4.5454,-4.5667,0.0,0.0,0.0,0.0,0.0,0.0,0.0,0.0,0.0,0.0,0.0,0.0,0.0,0.0,0.0,0.0,0.0,0.0,0.0,0.0,0.0,0.0,0.0,0.0,0.0,0.0,0.0,0.0,0.0,0.0,0.0,0.0,0.0,0.0,0.0,0.0,0.0,0.0,0.0,-4.4081,-4.4169,-4.4447,-4.4869,-4.6024,0.0,0.0,0.0,0.0,0.0,0.0,0.0,0.0,0.0,0.0,0.0,0.0,0.0,0.0,0.0,0.0,0.0,0.0,0.0,0.0,0.0,0.0,0.0,0.0,0.0,0.0,0.0,0.0,0.0,0.0,0.0,0.0,0.0,0.0,0.0,0.0,0.0,0.0,0.0,0.0,0.0,0.0,0.0,-4.1615,-4.334,0.0,0.0,0.0,0.0,0.0,0.0,0.0,0.0,0.0,0.0,0.0,0.0,0.0,0.0,-4.3979,-4.6054,-4.7176,-4.7418,-4.9212,-5.0066,-5.0066,-5.0066,-5.0017,-4.9791,-4.7607,0.0,-4.4949,-4.4352,0.0,0.0,0.0,0.0,0.0,0.0,0.0,0.0,0.0,0.0,0.0,0.0,0.0,0.0,0.0,0.0,0.0,0.0,0.0,0.0,0.0,0.0,0.0,0.0,0.0,0.0,0.0,0.0,0.0,0.0,0.0,0.0,0.0,0.0,0.0,0.0,-4.5961,-4.7523,-4.8337,-4.9124,-4.9182,-4.8769,-5.0577,-4.8822,-4.4501,-4.5098,0.0,0.0,0.0,0.0,0.0,0.0,0.0,0.0,0.0,0.0,0.0,0.0,0.0,0.0,0.0,0.0,0.0,0.0,0.0,0.0,0.0,0.0,0.0,0.0,0.0,0.0,0.0,0.0,0.0,0.0,0.0,0.0,0.0,0.0,0.0,0.0,0.0,0.0,0.0,-4.0909,-4.2036,-4.3985,-4.3915,-4.3235,0.0,0.0,0.0,0.0,0.0,0.0,0.0,0.0,0.0,-4.4432,-4.5732,-4.6207,-4.5816,-4.8344,-4.9668,-4.9807,-5.0746,-5.1183,-5.1183,-5.1183,-5.1183,-5.1118,-4.9839,-4.8949,-4.8285,-4.6542,-4.6065,-4.6128,0.0,0.0,0.0,0.0,0.0,-3.8972,0.0,0.0,0.0,0.0,0.0,0.0,0.0,0.0,0.0,0.0,0.0,0.0,0.0,0.0,0.0,-4.236,0.0,0.0,0.0,0.0,0.0,0.0,0.0,0.0,0.0,0.0,0.0,-4.5855,-4.8207,-5.0072,-5.1387,-5.2634,-5.2533,-5.1447,-5.3242,-5.1233,-4.6464,-4.7241,-4.5761,0.0,0.0,0.0,0.0,0.0,0.0,0.0,0.0,0.0,0.0,0.0,0.0,0.0,0.0,0.0,0.0,0.0,0.0,0.0,0.0,0.0,0.0,0.0,0.0,0.0,0.0,0.0,0.0,0.0,0.0,0.0,0.0,0.0,0.0,0.0,0.0,0.0,0.0,-4.158,-4.2598,-4.5041,-4.4726,-4.397,0.0,0.0,0.0,0.0,0.0,0.0,-4.627,-4.5684,-4.5601,-4.6208,-4.793,-4.856,-4.7993,-5.0115,-5.1183,-5.1183,-5.1183,-5.1183,-5.1183,-5.1183,-5.1183,-5.1183,-5.1183,-5.128,-5.1264,-4.8699,-4.7738,-4.7746,-4.6108,-4.4278,-4.2354,-4.0695,-4.0618,-4.1304,0.0,0.0,0.0,0.0,0.0,0.0,0.0,0.0,0.0,0.0,0.0,0.0,0.0,0.0,-4.4322,-4.4859,-4.472,-4.3487,0.0,0.0,0.0,0.0,0.0,0.0,0.0,0.0,0.0,-4.7849,-5.009,-5.0743,-4.9913,-5.0678,-5.1193,-5.1512,-5.2281,-5.1124,-4.8746,-5.009,-4.8809,-4.5698,0.0,0.0,0.0,0.0,0.0,0.0,0.0,0.0,0.0,0.0,0.0,0.0,0.0,0.0,0.0,0.0,0.0,0.0,0.0,0.0,0.0,0.0,0.0,0.0,0.0,0.0,0.0,0.0,0.0,0.0,0.0,0.0,0.0,0.0,0.0,0.0,0.0,0.0,0.0,-4.6881,-4.7408,0.0,0.0,0.0,0.0,-4.4158,-4.4318,-4.572,-4.848,-4.8099,-4.8742,-5.0821,-5.0994,-5.1005,-5.0957,-5.1118,-5.1183,-5.1183,-5.1183,-5.1183,-5.1183,-5.1183,-5.1183,-5.1183,-5.1183,-5.1539,-5.2035,-5.0427,-5.0097,-5.0238,-4.6647,-4.5522,-4.5495,-4.1708,-4.1878,-4.3847,0.0,0.0,0.0,0.0,0.0,0.0,0.0,0.0,0.0,0.0,0.0,0.0,0.0,-4.5016,-4.7443,-4.7006,-4.8164,-4.796,-4.568,0.0,0.0,0.0,0.0,0.0,0.0,0.0,-4.7919,-4.8572,-5.0844,-5.1719,-5.1305,-5.2467,-5.2744,-5.2349,-5.4103,-5.4005,-5.2533,-5.2454,-5.0842,-4.8345,-4.877,-4.6144,0.0,0.0,0.0,0.0,0.0,0.0,0.0,0.0,0.0,0.0,0.0,0.0,0.0,0.0,0.0,0.0,0.0,0.0,0.0,0.0,0.0,0.0,0.0,0.0,0.0,0.0,0.0,0.0,0.0,0.0,0.0,0.0,0.0,0.0,0.0,0.0,0.0,-4.6534,-4.6914,0.0,0.0,-4.7125,-4.7307,-4.6011,-4.7728,-4.9254,-5.0297,-5.0144,-5.0406,-5.1205,-5.1183,-5.1183,-5.1183,-5.1183,-5.1183,-5.1183,-5.1183,-5.1183,-5.1199,-5.1637,-5.1831,-5.1863,-5.2349,-5.2361,-5.1964,-5.1428,-5.1313,-5.1259,-4.8691,-4.7852,-4.7841,-4.5842,-4.5786,-4.6668,0.0,0.0,0.0,0.0,0.0,0.0,0.0,0.0,0.0,0.0,0.0,-4.2651,-4.3757,-4.7608,-4.9887,-4.9397,-5.0561,-4.9935,-4.6725,0.0,0.0,0.0,0.0,0.0,0.0,-4.7303,-4.9289,-5.0126,-5.1581,-5.2264,-5.2186,-5.3609,-5.3904,-5.3309,-5.535,-5.5815,-5.4991,-5.4261,-5.3001,-5.1501,-5.1726,-4.8481,-4.3642,0.0,0.0,0.0,0.0,0.0,0.0,0.0,0.0,0.0,0.0,0.0,0.0,0.0,0.0,0.0,0.0,0.0,0.0,0.0,0.0,0.0,0.0,0.0,0.0,0.0,0.0,0.0,0.0,0.0,0.0,0.0,0.0,0.0,0.0,0.0,-4.4171,-4.6766,-4.6928,-4.699,-4.7445,-4.8182,-4.8404,-4.7906,-4.9706,-5.0924,-5.1167,-5.1183,-5.1183,-5.1183,-5.1183,-5.1183,-5.1183,-5.1183,-5.1183,-5.1183,-5.1183,-5.1183,-5.1199,-5.1653,-5.1459,-5.0859,-5.1952,-5.1997,-5.1296,-5.1643,-5.1909,-5.1969,-5.0153,-4.9355,-4.924,-4.8643,-4.837,-4.8278,0.0,0.0,0.0,0.0,0.0,0.0,0.0,0.0,0.0,0.0,-4.3079,-4.5892,-5.0056,-5.0994,-5.1456,-5.188,-5.1544,-4.9011,-4.3633,-4.3287,0.0,0.0,0.0,0.0,-4.9099,-4.9071,-5.0162,-5.2498,-5.2382,-5.2311,-5.2323,-5.3716,-5.4309,-5.4263,-5.5705,-5.6199,-5.5872,-5.5408,-5.5182,-5.5029,-5.2879,-5.0095,-4.6965,0.0,0.0,0.0,0.0,0.0,0.0,0.0,0.0,0.0,0.0,0.0,0.0,0.0,0.0,0.0,0.0,0.0,0.0,0.0,0.0,0.0,0.0,0.0,0.0,0.0,0.0,0.0,0.0,0.0,0.0,0.0,0.0,0.0,-4.227,-4.393,-4.575,-4.7758,-4.7673,-4.7924,-4.9038,-4.8898,-4.9024,-4.9737,-5.0004,-5.0455,-5.1151,-5.1118,-5.1086,-5.1086,-5.1086,-5.1086,-5.1086,-5.1151,-5.1183,-5.1183,-5.1183,-5.1183,-5.1183,-5.1232,-5.0131,-4.8226,-5.0096,-5.0603,-5.0193,-5.1125,-5.1872,-5.2349,-5.0773,-4.9961,-4.9717,-4.9717,-4.9291,-4.8653,0.0,0.0,0.0,0.0,0.0,0.0,0.0,0.0,0.0,0.0,-4.2536,-4.4854,-4.6526,-4.942,-5.0911,-5.0101,-5.0802,-4.9546,-4.5352,0.0,0.0,0.0,0.0,0.0,-4.9071,-5.0733,-5.1909,-5.2563,-5.2536,-5.2444,-5.2311,-5.3291,-5.3961,-5.4307,-5.524,-5.5902,-5.6217,-5.5595,-5.5301,-5.5169,-5.4644,-5.2619,-4.9867,0.0,0.0,0.0,0.0,0.0,0.0,0.0,0.0,0.0,0.0,0.0,0.0,0.0,0.0,0.0,0.0,0.0,0.0,0.0,0.0,0.0,0.0,0.0,0.0,0.0,0.0,0.0,0.0,0.0,0.0,0.0,0.0,-4.4372,-4.4476,-4.4908,-4.5913,-4.7832,-4.8456,-4.8614,-4.8412,-4.9295,-4.9777,-4.9609,-5.0263,-5.0763,-5.0972,-4.9653,-4.8884,-4.8884,-4.8884,-4.8884,-4.8884,-5.0406,-5.1183,-5.1183,-5.1183,-5.1183,-5.1216,-5.2268,-5.2032,-5.0906,-5.2463,-5.225,-5.0869,-5.1077,-5.0913,-5.0526,-5.0743,-5.0378,-4.9717,-4.9717,-4.9567,-4.918,0.0,0.0,0.0,0.0,0.0,0.0,0.0,0.0,0.0,0.0,-4.2693,-4.4657,-4.6961,-4.9117,-5.0348,-5.0234,-5.0885,-4.9453,-4.5041,0.0,0.0,0.0,0.0,-4.827,-5.0669,-5.201,-5.2654,-5.259,-5.2563,-5.2513,-5.2439,-5.3182,-5.3718,-5.404,-5.4813,-5.5424,-5.5874,-5.5263,-5.5092,-5.5139,-5.4583,-5.2969,-5.0952,-5.1303,-4.9041,-4.5677,-4.5242,-4.5144,-4.5146,-4.4447,0.0,0.0,0.0,0.0,0.0,0.0,0.0,0.0,0.0,0.0,0.0,0.0,0.0,0.0,0.0,0.0,0.0,0.0,0.0,0.0,0.0,0.0,0.0,0.0,-4.4306,-4.5838,-4.6684,-4.6557,-4.6886,-4.825,-4.8789,-4.9161,-4.9297,-4.9905,-5.0331,-5.0374,-5.0717,-5.095,-5.101,-4.9944,-4.8933,-4.8042,-4.8868,-4.9046,-4.8395,-5.0552,-5.1766,-5.2074,-5.2074,-5.1865,-5.1515,-5.2349,-5.1724,0.0,-5.1661,-5.1446,-4.9989,-5.0799,-5.0795,0.0,0.0,0.0,0.0,0.0,-4.9717,-4.9514,0.0,0.0,0.0,0.0,0.0,0.0,0.0,0.0,0.0,0.0,0.0,-4.4945,-4.9442,-4.9627,-4.9937,-5.1213,-5.1117,-4.8827,0.0,0.0,0.0,-4.7952,-4.8163,-4.9658,-5.2926,-5.2872,-5.2761,-5.2613,-5.2554,-5.2554,-5.2608,-5.322,-5.353,-5.3615,-5.4339,-5.4828,-5.5062,-5.4598,-5.4588,-5.4777,-5.3338,-5.2107,-5.1133,-5.1713,-4.944,-4.5955,-4.6315,-4.6131,-4.574,-4.6062,0.0,0.0,0.0,0.0,0.0,0.0,0.0,0.0,0.0,0.0,0.0,0.0,0.0,0.0,0.0,0.0,0.0,0.0,0.0,0.0,0.0,0.0,0.0,0.0,-4.4183,-4.6333,-4.8801,-4.862,-4.843,-4.8936,-4.9078,-4.9584,-5.0737,-5.0509,-5.0595,-5.139,-5.1096,-5.0934,-5.1146,0.0,0.0,0.0,0.0,-5.0357,-4.9123,-5.1248,-5.2657,-5.3281,-5.3281,-5.2813,-5.1897,-5.1976,-5.0351,-4.7615,-4.9434,-4.9539,-4.8581,-5.0244,-5.0922,-5.0843,-5.0042,-4.9717,-4.9688,-4.9398,-4.9422,0.0,0.0,0.0,0.0,0.0,0.0,0.0,0.0,0.0,0.0,-4.2487,-4.3275,-4.4989,-4.9073,-4.9862,-5.0172,-5.028,-4.951,-4.774,0.0,0.0,-4.283,-4.7988,-4.8673,-5.0243,-5.2944,-5.2959,-5.2893,-5.2761,-5.2739,-5.2694,-5.259,-5.2731,-5.308,-5.3597,-5.376,-5.4097,-5.451,-5.3922,-5.3468,-5.3043,-5.2368,-5.2417,-5.2802,-5.1848,-5.1045,-5.0276,-4.945,-4.9008,-4.8667,-4.7587,-4.6912,-4.6855,-4.8524,0.0,0.0,0.0,0.0,0.0,0.0,0.0,0.0,0.0,0.0,0.0,0.0,0.0,0.0,0.0,0.0,0.0,0.0,0.0,0.0,-4.6865,-4.8136,-4.9338,-5.0461,-5.0493,-5.0216,-4.9773,-5.0216,-5.0453,-5.0153,-5.0034,-5.0153,-5.0531,-5.0614,-5.0743,-5.095,-4.9454,0.0,-4.8783,-4.9224,-4.958,-4.9888,-5.2025,-5.3136,-5.3281,0.0,0.0,-5.1913,-5.245,-5.1533,-4.9599,-5.0496,-5.0347,-4.9468,-4.9838,-4.9994,-4.9946,-4.9766,-4.9717,-4.9422,-4.7375,-4.7912,-4.9427,0.0,0.0,0.0,0.0,0.0,0.0,0.0,0.0,0.0,0.0,-4.1772,-4.3375,-4.6251,-4.6775,-4.7344,-4.8458,-4.7478,0.0,0.0,-4.4786,-4.5434,-4.9566,-4.9922,-5.0769,-5.2462,-5.2883,-5.2999,-5.2806,-5.2868,-5.2828,-5.2698,-5.2765,-5.2984,-5.3317,-5.3231,-5.3481,-5.3958,-5.3463,-5.313,-5.2879,-5.1961,-5.1752,-5.1963,-5.1476,-5.1061,-5.071,-5.0415,-5.0037,-4.9592,-4.9108,-4.8763,-4.8828,-5.0456,-4.9774,-4.7936,0.0,0.0,0.0,0.0,0.0,0.0,0.0,0.0,0.0,0.0,0.0,0.0,0.0,0.0,-4.3601,0.0,0.0,-4.5674,-4.7462,-4.8459,-4.933,-5.0295,-5.1053,-5.1227,-5.0532,-5.0769,-5.0832,-5.0484,-5.0256,-5.0327,-5.0912,-5.082,-5.0964,-5.1533,-5.0644,-4.9936,-4.958,-5.0579,-5.1005,-5.0649,-5.2786,-5.4033,-5.4333,-5.3881,-5.3148,-5.2258,-5.2074,-5.1243,-4.9908,-5.0265,-5.0124,-4.9717,-4.9717,-4.9717,-4.9717,-4.9717,-4.9717,-4.9572,-4.8246,-4.8628,-4.9543,0.0,0.0,0.0,0.0,0.0,0.0,0.0,0.0,0.0,0.0,0.0,-4.183,-4.3533,-4.3615,-4.421,0.0,0.0,0.0,0.0,-4.7131,-4.7931,-5.1064,-5.0799,-5.1022,-5.1977,-5.2658,-5.2938,-5.2828,-5.2977,-5.2977,-5.2828,-5.2955,-5.2999,-5.298,-5.285,-5.3013,-5.338,-5.3001,-5.2862,-5.2788,-5.166,-5.0885,-5.0461,-5.0716,-5.0327,-4.9681,-5.0107,-4.9957,-4.9607,-4.9843,-5.0143,-5.0593,-5.148,-5.1816,-5.1039,-4.6893,-4.7461,0.0,0.0,0.0,0.0,0.0,0.0,0.0,0.0,0.0,-4.5671,-4.6009,-4.5712,-4.5429,-4.5594,-4.5461,-4.5869,-4.7521,-4.8195,-4.8914,-5.0026,-5.1252,-5.179,-5.1094,-5.1015,-5.0967,-5.0865,-5.0517,-5.0618,-5.1389,-5.1231,-5.1408,-5.2171,-5.2333,-5.196,-5.0973,-5.2495,-5.29,-5.2009,-5.3596,-5.4745,-5.5369,-5.4433,-5.3518,-5.2561,-5.1574,-5.0573,-4.9717,-4.9717,-4.9717,-4.9717,-4.9781,-4.9781,-4.9781,-4.9829,-4.9878,-4.9829,-4.9781,-4.9781,-4.9829,0.0,0.0,0.0,0.0,0.0,0.0,0.0,0.0,0.0,0.0,0.0,0.0,0.0,0.0,0.0,0.0,0.0,0.0,-4.5251,-4.6378,-4.8161,-5.0735,-5.0144,-5.0455,-5.1958,-5.2153,-5.2459,-5.2977,-5.3106,-5.3106,-5.2977,-5.2999,-5.2999,-5.298,-5.285,-5.2744,-5.2625,-5.2461,-5.2001,-5.1405,-5.1015,-5.0446,-4.9786,-4.9511,-4.9108,-4.8649,-4.8733,-4.9055,-4.9309,-4.853,-4.8845,-4.9676,-5.0376,-5.0694,-5.0524,-4.8911,0.0,-4.9163,-4.3627,-4.1023,-4.0315,-4.2261,-4.4009,-4.5124,0.0,0.0,-5.0053,-4.8387,-4.8887,-4.9853,-5.0614,-4.9944,-4.9471,-5.0112,-5.0131,-5.0294,-5.1033,-5.1771,-5.1953,-5.1094,-5.1015,-5.0858,-5.0437,-5.0349,-5.0489,-5.0932,-5.1469,-5.1907,-5.2203,-5.2835,-5.3418,-5.3904,-5.3531,-5.3799,-5.494,-5.4584,-5.4745,-5.5369,-5.4433,-5.3518,-5.2561,-5.1574,-5.0573,-4.9717,-4.9717,-4.9717,-4.9732,-4.9975,-5.0038,-5.0086,-5.0342,-5.0405,-5.039,-5.0135,-5.0038,-5.0038,0.0,0.0,0.0,0.0,0.0,0.0,0.0,0.0,0.0,0.0,0.0,0.0,0.0,0.0,0.0,0.0,0.0,0.0,-4.4332,-4.6357,-4.8157,-4.9639,-4.9637,-4.9922,-5.0602,-5.1123,-5.1746,-5.2428,-5.2514,-5.2752,-5.3106,-5.3124,-5.3103,-5.3103,-5.289,-5.2802,-5.2757,-5.2452,-5.1853,-5.1113,-5.0696,-4.9884,-4.8903,-4.856,-4.8396,-4.8232,-4.7299,-4.7124,0.0,0.0,-4.7177,-4.8232,-4.9585,-4.9405,-4.8574,-4.7886,-4.7115,0.0,-4.4288,-4.4207,0.0,0.0,-4.7221,-4.8344,-4.9112,-5.001,-5.0682,-5.0458,-5.0445,-5.063,-5.1112,-4.9795,-4.9095,0.0,-4.9961,-4.9741,-5.0744,-5.1455,-5.1606,-5.0866,-4.9649,-4.8789,-4.8481,-4.9662,-5.0077,-4.9105,-5.093,-5.232,-5.2835,-5.3547,-5.4098,-5.4389,-5.4114,-5.4033,-5.4195,-5.3735,-5.3567,-5.3697,-5.2743,-5.2048,-5.1467,-5.0825,-5.0394,-5.0183,-5.0183,-5.0183,-5.0183,-5.0294,-5.0342,-5.0342,-5.0453,-5.0581,-5.0647,-5.0438,-5.0342,-5.0342,0.0,0.0,0.0,0.0,0.0,0.0,0.0,0.0,0.0,0.0,0.0,0.0,0.0,0.0,0.0,0.0,0.0,0.0,0.0,-4.6236,-4.8039,-4.9042,-4.9195,-4.9353,-4.9574,-5.024,-5.0939,-5.1706,-5.1991,-5.2434,-5.2962,-5.318,-5.3251,-5.3209,-5.2999,-5.2915,-5.2912,-5.2333,-5.1701,-5.1069,-5.0324,-4.9423,-4.8511,-4.8281,-4.7882,-4.7275,-4.5893,-4.5618,0.0,0.0,-4.5391,-4.6929,-4.7489,-4.7405,-4.6939,-4.6438,-4.4829,-4.3402,-4.4316,0.0,0.0,-4.8365,-4.9158,-5.0048,-5.178,-5.1246,-5.06,-5.1369,-5.1041,-5.0628,-5.0781,-4.9566,-4.902,-5.0655,-4.9989,-4.9646,-5.056,-5.1259,-5.1188,-4.9853,-4.8509,-4.7093,-4.5646,-4.8088,-4.9577,-4.899,-5.1156,-5.2835,-5.354,-5.4292,-5.4681,-5.4681,-5.4503,-5.4107,-5.3512,-5.3444,-5.3154,-5.2633,-5.1984,-5.1467,-5.1001,-5.0475,-5.0342,-5.0501,-5.0501,-5.0501,-5.0501,-5.0581,-5.0567,-5.0567,-5.0677,-5.079,-5.0917,-5.0757,-5.0629,-5.0614,0.0,0.0,0.0,0.0,0.0,0.0,0.0,0.0,0.0,0.0,0.0,0.0,0.0,0.0,0.0,0.0,0.0,0.0,0.0,-4.5773,-4.7866,-4.9501,-4.8784,-4.871,-4.9481,-4.9652,-5.0133,-5.0942,-5.1852,-5.2317,-5.2354,-5.313,-5.342,-5.3279,-5.3212,-5.3042,-5.2761,-5.1874,-5.1396,-5.1087,-4.9827,-4.9137,-4.8875,-4.8944,-4.7551,-4.5459,-4.4415,0.0,0.0,0.0,-4.3379,-4.5962,-4.3402,-4.4362,0.0,-4.5265,-4.3671,-4.2498,0.0,0.0,-4.278,-4.6762,-4.7754,-4.8333,-5.0456,-5.0775,-5.0589,-5.0644,-5.0644,-5.0589,-5.0628,-5.0579,-5.0586,-5.0858,-5.0864,-5.0864,-5.0912,-5.1453,-5.082,-4.7858,-4.8008,-4.6541,0.0,-4.5309,-4.8973,-5.1863,-5.2819,-5.3612,-5.4325,-5.5005,-5.5377,-5.5377,-5.4745,-5.4259,-5.3956,-5.4422,-5.4095,-5.2976,-5.3137,-5.2754,-5.1835,-5.0885,-5.0501,-5.0501,-5.0501,-5.0501,-5.0501,-5.0728,-5.0807,-5.0807,-5.1073,-5.1167,-5.1167,-5.1167,-5.1011,-5.0807,0.0,0.0,0.0,0.0,0.0,0.0,0.0,0.0,0.0,0.0,0.0,0.0,0.0,0.0,0.0,0.0,0.0,0.0,0.0,-4.2924,-4.5184,-4.7829,-4.8177,-4.871,-4.9555,-4.9158,-4.9399,-5.0248,-5.0601,-5.1064,-5.1563,-5.1802,-5.2168,-5.2627,-5.2424,-5.2407,-5.2427,-5.1934,-5.1147,-5.0254,-5.0238,-4.961,-4.8465,-4.698,-4.5908,-4.4681,0.0,0.0,0.0,0.0,0.0,0.0,-4.1803,-4.1614,-4.107,-3.8939,-4.0459,-4.2622,-4.1763,0.0,-4.5975,-4.7355,-4.8661,-4.986,-5.0697,-5.0874,-5.082,-5.0956,-4.9478,-4.83,-4.8764,-4.698,-4.6259,-4.8761,-4.7598,-4.7552,-5.0842,-4.9021,-4.812,-5.03,-4.8264,0.0,0.0,0.0,0.0,-4.7961,-5.128,-5.3628,-5.4357,-5.5053,-5.5256,-5.4946,-5.4702,-5.4027,-5.2809,-5.3582,-5.3002,-5.1092,-5.1116,-5.1394,-5.1795,-5.103,-5.1027,-5.1619,-5.114,-5.0947,-5.0994,-5.1026,-5.1058,-5.1058,-5.1167,-5.1214,-5.1214,-5.1214,-5.112,-5.1058,0.0,0.0,0.0,0.0,0.0,0.0,0.0,0.0,0.0,0.0,0.0,0.0,0.0,0.0,0.0,0.0,0.0,0.0,0.0,0.0,-4.2667,-4.526,-4.6159,-4.6709,-4.7003,-4.7703,-4.8366,-4.8956,-5.0175,-5.1045,-5.1582,-5.1543,-5.1781,-5.2203,-5.1568,-5.1358,-5.1411,-5.0945,-5.038,-4.9746,-4.892,-4.8161,-4.7209,-4.482,-4.3525,0.0,0.0,0.0,0.0,0.0,0.0,0.0,-3.89,-3.8466,-3.8046,-3.7709,-4.0001,-4.2607,-4.2574,-4.5137,-4.7974,-4.8659,-4.9882,-5.0972,-5.1086,-5.1162,-5.1275,-5.1371,-5.014,-4.8773,-4.7942,-4.6165,-4.5484,-4.7608,-4.6659,-4.7014,-5.1035,-4.9439,-4.8586,-5.066,-4.8481,0.0,0.0,0.0,0.0,-4.7448,-5.0415,-5.261,-5.3402,-5.4101,-5.4717,-5.5185,-5.5201,-5.4526,-5.3063,-5.3659,-5.2926,-5.0833,-5.0614,-5.0884,-5.1557,-5.1158,-5.0909,-5.081,-5.1094,-5.0825,-5.0227,-5.093,-5.1214,-5.1214,-5.1308,-5.1354,-5.1354,-5.1354,-5.1354,-5.1308,0.0,0.0,0.0,0.0,0.0,0.0,0.0,0.0,0.0,0.0,0.0,0.0,0.0,0.0,0.0,0.0,0.0,0.0,0.0,0.0,0.0,-4.2086,-4.2966,-4.3076,-4.2378,-4.5369,-4.6967,-4.7113,-5.0171,-5.1759,-5.1856,-5.1836,-5.1777,-5.1641,-5.0349,-4.9699,-4.9473,-4.8793,-4.883,-4.9079,-4.5934,-4.4964,-4.51,-4.2488,0.0,0.0,0.0,0.0,0.0,0.0,0.0,0.0,0.0,-3.55,-3.7422,-4.1091,-4.207,-4.2676,-4.5685,-4.7335,-4.8621,-5.0473,-5.1253,-5.1499,-5.1499,-5.1647,-5.1782,-5.1598,-5.1991,-5.1287,0.0,0.0,-4.7541,-4.7201,-4.7542,-4.8714,-5.1169,-5.2032,-5.1479,0.0,0.0,0.0,0.0,0.0,0.0,-5.0274,0.0,-5.097,-5.1868,-5.2609,-5.3918,-5.606,-5.6126,-5.562,-5.4637,-5.4553,-5.3715,-5.2184,-5.1496,-5.1229,-5.1274,-5.1229,-5.0242,-4.8641,-5.0436,-5.0182,-4.8626,-5.0466,-5.1214,-5.1214,-5.1494,-5.1587,-5.1587,-5.1587,-5.1587,-5.1541,0.0,0.0,0.0,0.0,0.0,0.0,0.0,0.0,0.0,0.0,0.0,0.0,0.0,0.0,0.0,0.0,0.0,0.0,0.0,0.0,0.0,0.0,0.0,0.0,0.0,0.0,0.0,0.0,0.0,-4.5912,-4.5877,-4.5535,-4.5699,-4.6229,-4.4849,-4.4275,-4.4276,-4.3447,-4.3216,-4.3304,0.0,-4.22,-4.2315,0.0,0.0,0.0,0.0,0.0,0.0,0.0,0.0,0.0,0.0,-3.957,-3.9583,-4.0078,-4.2391,-4.4853,-4.5158,-4.7886,-5.0741,-5.122,-5.1536,-5.1704,-5.1704,-5.1741,-5.1172,-4.8959,-4.6979,-4.4816,0.0,0.0,0.0,-4.3313,-4.2004,0.0,-4.6807,-4.6765,0.0,-4.8188,0.0,-4.996,-5.1598,-5.2237,0.0,0.0,-5.2171,-5.3591,-5.4923,-5.5169,-5.5591,-5.629,-5.6307,-5.5861,-5.4918,-5.3498,-5.2634,-5.2184,-5.1496,-5.1468,-5.1932,-5.1439,-5.1468,-5.1902,-5.1424,-5.1214,-5.1199,-5.1214,-5.1214,-5.1214,-5.1261,-5.1308,-5.1308,-5.1308,-5.1308,-5.1308,0.0,0.0,0.0,0.0,0.0,0.0,0.0,0.0,0.0,0.0,0.0,0.0,0.0,0.0,0.0,0.0,0.0,0.0,0.0,0.0,0.0,0.0,0.0,0.0,0.0,0.0,0.0,0.0,0.0,0.0,0.0,-4.3575,-4.3437,-4.3853,-4.2442,-4.1846,-4.1892,-4.1427,0.0,0.0,0.0,0.0,0.0,0.0,0.0,0.0,0.0,0.0,0.0,0.0,0.0,-3.8411,-4.1193,-4.1388,-4.0924,-4.2893,0.0,-4.5764,-4.7311,-4.939,-5.1129,-5.1424,-5.1721,-5.1596,-5.0314,-4.981,-4.8905,-4.6273,-4.4457,0.0,0.0,0.0,0.0,0.0,0.0,0.0,-4.6075,-4.6223,-4.626,0.0,-4.8248,0.0,-5.1995,-5.2912,-5.3028,0.0,-5.2756,-5.3485,-5.4437,-5.4766,-5.5397,-5.6508,-5.6541,-5.5992,-5.4847,-5.3499,-5.2719,-5.248,-5.2195,-5.2276,-5.2621,-5.2247,-5.2007,-5.1887,0.0,-5.1633,-5.0945,-5.1439,-5.1483,-5.1214,-5.1308,-5.1354,-5.1354,-5.1354,-5.1354,-5.1354,0.0,0.0,0.0,0.0,0.0,0.0,0.0,0.0,0.0,0.0,0.0,0.0,0.0,0.0,0.0,0.0,0.0,0.0,0.0,0.0,0.0,0.0,0.0,0.0,0.0,0.0,0.0,0.0,0.0,0.0,0.0,0.0,0.0,0.0,0.0,0.0,0.0,0.0,0.0,0.0,0.0,0.0,0.0,0.0,0.0,0.0,0.0,0.0,0.0,0.0,-3.8607,-3.8344,-4.196,-4.2186,-4.2043,-4.6542,-4.6591,-4.6009,-4.9732,-5.0546,-5.0509,-5.1054,-5.152,-5.1139,-4.8682,-4.7409,-4.6119,-4.391,0.0,-4.2356,-4.043,0.0,-4.0148,-4.3478,0.0,-4.3449,-4.5893,-4.7138,-4.7278,-4.5781,-4.6896,-4.8419,-4.9956,-5.1475,-5.2773,-5.3783,-5.3187,-5.291,-5.3102,-5.3665,-5.4783,-5.6607,-5.6756,-5.6075,-5.4556,-5.4003,-5.3416,-5.2798,-5.3092,-5.3174,-5.3174,-5.3174,-5.2291,-5.0808,0.0,0.0,-4.9958,-5.1528,-5.1813,-5.1214,-5.1448,-5.1541,-5.1541,-5.1541,-5.1541,-5.1494,0.0,0.0,0.0,0.0,0.0,0.0,0.0,0.0,0.0,0.0,-3.2868,-3.2721,0.0,0.0,0.0,0.0,0.0,0.0,0.0,0.0,0.0,0.0,0.0,0.0,0.0,0.0,0.0,0.0,0.0,0.0,0.0,0.0,0.0,0.0,0.0,0.0,0.0,0.0,0.0,0.0,0.0,0.0,0.0,0.0,0.0,0.0,0.0,0.0,0.0,0.0,-3.9086,-4.0489,-4.3987,-4.4615,-4.4116,-4.4431,-4.563,-4.6788,-4.6717,-4.8153,-4.9662,-4.9614,-4.9876,-5.0206,-5.0246,-4.8073,0.0,0.0,0.0,-3.9273,-3.8613,-3.8355,0.0,-4.1656,0.0,0.0,0.0,0.0,-4.4591,0.0,0.0,0.0,0.0,0.0,0.0,0.0,0.0,0.0,-5.684,-5.6962,-5.6823,-5.6384,-5.6952,-5.6299,-5.4282,-5.4375,-5.3903,-5.2798,-5.3092,-5.3174,-5.3174,-5.3174,-5.3309,-5.3503,0.0,0.0,-5.2486,-5.2276,-5.1813,-5.1214,-5.1261,-5.1261,-5.1261,-5.1261,-5.1261,-5.1261,0.0,0.0,0.0,0.0,0.0,0.0,0.0,-3.2916,-3.2916,-3.2948,-3.259,-3.2228,-3.1955,-3.1251,0.0,0.0,0.0,0.0,0.0,0.0,0.0,0.0,0.0,0.0,0.0,0.0,0.0,0.0,0.0,0.0,0.0,0.0,0.0,0.0,0.0,0.0,0.0,0.0,0.0,0.0,0.0,0.0,0.0,0.0,0.0,0.0,0.0,0.0,0.0,0.0,-3.6544,-3.8162,-4.2673,-4.4288,-4.4278,-4.332,-4.4604,-4.6326,-4.6075,-4.748,-4.906,-4.9303,-4.985,-4.9639,-4.6953,0.0,0.0,0.0,-3.7058,-3.603,-3.6988,0.0,0.0,0.0,0.0,0.0,0.0,0.0,0.0,0.0,0.0,0.0,0.0,0.0,0.0,0.0,0.0,0.0,-5.7487,-5.7601,-5.738,-5.6906,-5.6268,-5.5606,-5.4925,-5.459,-5.427,-5.4037,-5.4172,-5.4221,-5.4221,-5.4221,-5.4401,-5.47,-5.4371,0.0,-5.1708,-5.2411,-5.1513,-4.9793,-5.081,-5.1214,-5.1214,-5.1214,-5.1214,-5.1214,0.0,0.0,0.0,0.0,0.0,0.0,0.0,-3.2805,-3.2682,-3.2729,-3.2222,-3.1729,-3.1462,-3.0517,-2.9839,0.0,0.0,0.0,0.0,0.0,0.0,0.0,0.0,0.0,0.0,0.0,0.0,0.0,0.0,0.0,0.0,0.0,0.0,0.0,0.0,0.0,0.0,0.0,0.0,0.0,0.0,0.0,0.0,0.0,0.0,0.0,0.0,0.0,0.0,0.0,-3.4263,-3.5483,-4.018,-4.2206,-4.2792,-4.2425,-4.3611,-4.5263,-4.6256,-4.7382,-4.8449,-4.8938,-4.9737,-4.9028,-4.4065,-4.215,0.0,0.0,-3.445,-3.4086,-3.6333,0.0,0.0,0.0,0.0,0.0,0.0,0.0,0.0,0.0,0.0,0.0,0.0,0.0,0.0,0.0,0.0,0.0,0.0,-5.7447,-5.7393,-5.7016,-5.5717,-5.5156,-5.5516,-5.4782,-5.4685,-5.5194,-5.5194,-5.5194,-5.5194,-5.5194,-5.5194,-5.5194,-5.5194,0.0,0.0,-5.2366,-5.1244,-4.8476,-5.0451,-5.1214,-5.1214,-5.1214,-5.1214,-5.1214,0.0,0.0,0.0,0.0,0.0,0.0,0.0,-3.234,-3.1905,-3.1905,-3.1945,-3.1685,-3.0952,-2.9922,-2.913,0.0,0.0,0.0,0.0,0.0,0.0,0.0,0.0,0.0,0.0,0.0,0.0,0.0,0.0,0.0,0.0,0.0,0.0,0.0,0.0,0.0,0.0,0.0,0.0,0.0,0.0,0.0,0.0,0.0,0.0,0.0,0.0,0.0,0.0,0.0,0.0,-3.5266,-3.7533,-3.8377,-3.8951,-4.1362,0.0,0.0,-4.6481,-4.7317,-4.7467,-4.7709,-4.8278,-4.8215,-4.5914,0.0,0.0,-3.8532,-3.6082,-3.5151,-3.7725,-3.8587,-3.9858,0.0,0.0,-4.0952,0.0,0.0,0.0,0.0,0.0,0.0,0.0,0.0,0.0,0.0,0.0,0.0,0.0,-5.7654,-5.7367,-5.5812,-5.6193,-5.603,-5.524,-5.5155,-5.5134,-5.5194,-5.5194,-5.5194,-5.5194,-5.5194,-5.5194,-5.5194,0.0,0.0,0.0,-5.2366,-5.1244,-4.8476,-5.0451,-5.1214,-5.1214,-5.1214,-5.1214,-5.1214,0.0,0.0,0.0,0.0,0.0,0.0,-3.2932,-3.2679,-3.248,-3.2573,-3.2242,-3.1876,-3.1567,-3.0708,-2.981,-2.891,0.0,0.0,0.0,0.0,0.0,0.0,0.0,0.0,0.0,0.0,0.0,0.0,0.0,0.0,0.0,0.0,0.0,0.0,0.0,0.0,0.0,0.0,0.0,0.0,0.0,0.0,0.0,0.0,0.0,0.0,0.0,0.0,0.0,0.0,0.0,0.0,-3.3741,-3.451,0.0,0.0,-4.1113,-4.3719,-4.4186,-4.5893,-4.751,-4.7596,-4.8437,-4.8123,-4.3878,0.0,0.0,-3.7237,-3.5424,-3.4953,-3.6387,-3.6881,-3.7893,-4.045,0.0,0.0,0.0,0.0,0.0,0.0,0.0,0.0,0.0,0.0,0.0,0.0,0.0,0.0,0.0,-5.6724,-5.6883,-5.6221,-5.5914,-5.5601,-5.5179,-5.5194,-5.5194,-5.5194,-5.5194,-5.5194,-5.5194,-5.5194,-5.5194,-5.5194,0.0,0.0,0.0,-5.1872,-5.0541,-4.68,-4.9987,-5.1214,-5.1214,-5.1214,-5.1308,-5.1448,0.0,0.0,0.0,0.0,0.0,-3.2672,-3.2918,-3.2735,-3.2606,-3.2714,-3.2295,-3.1912,-3.1704,-3.1337,-3.0563,-2.9231,-2.8383,0.0,0.0,0.0,0.0,0.0,0.0,0.0,0.0,0.0,-3.0865,-3.1174,0.0,0.0,0.0,0.0,0.0,0.0,0.0,0.0,0.0,0.0,0.0,0.0,0.0,0.0,0.0,0.0,0.0,0.0,0.0,0.0,0.0,0.0,0.0,0.0,0.0,0.0,0.0,0.0,-3.9758,-4.3135,-4.3172,-4.5337,-4.7624,-4.7837,-4.8094,-4.709,0.0,0.0,0.0,-3.6116,-3.5019,-3.4936,-3.5415,-3.5504,-3.6372,-3.8955,0.0,-4.122,0.0,0.0,0.0,0.0,0.0,0.0,0.0,0.0,0.0,0.0,0.0,0.0,0.0,-5.5819,-5.6183,-5.6183,-5.5551,-5.5194,-5.5194,-5.5194,-5.5194,-5.5194,-5.5194,-5.4985,-5.461,-5.5014,-5.497,-5.4625,0.0,0.0,0.0,-5.1798,-5.0406,-4.6516,-4.9898,-5.1214,-5.1214,-5.1214,-5.1354,-5.1587,0.0,0.0,0.0,0.0,0.0,0.0,-3.2773,-3.2239,-3.1816,-3.1798,-3.1924,-3.1711,-3.0994,-3.1451,-3.113,-2.954,-2.908,0.0,0.0,0.0,0.0,0.0,0.0,0.0,0.0,0.0,-3.0607,-3.0422,-3.1139,-3.1402,0.0,0.0,0.0,0.0,0.0,0.0,0.0,0.0,0.0,0.0,0.0,0.0,0.0,0.0,0.0,0.0,0.0,0.0,0.0,0.0,0.0,0.0,0.0,0.0,0.0,0.0,-3.8633,-4.1611,-4.4255,-4.6267,-4.7752,-4.8412,-4.691,-4.4669,0.0,0.0,0.0,-3.5941,-3.5504,-3.5489,-3.5504,-3.5504,-3.6372,-3.8955,-3.9963,0.0,0.0,0.0,0.0,0.0,0.0,0.0,0.0,0.0,0.0,0.0,0.0,0.0,0.0,0.0,-5.5194,-5.5194,-5.5194,-5.5194,-5.5194,-5.5194,-5.5194,-5.5194,-5.5194,-5.4491,-5.3249,-5.4581,-5.4461,0.0,0.0,0.0,0.0,-5.2351,-5.1229,-4.8446,-5.0436,-5.1214,-5.1214,-5.1214,-5.1354,-5.1587,0.0,0.0,0.0,0.0,0.0,0.0,0.0,-3.2672,-3.2572,-3.2603,-3.2652,-3.2609,-3.2415,-3.2519,-3.1941,-3.0302,-2.9369,0.0,0.0,0.0,0.0,0.0,0.0,0.0,0.0,0.0,-2.9488,-3.0405,-3.0554,-3.0817,-3.119,-3.119,-3.119,0.0,0.0,0.0,0.0,0.0,0.0,0.0,0.0,0.0,0.0,0.0,0.0,0.0,0.0,0.0,0.0,0.0,0.0,0.0,0.0,0.0,0.0,-3.4262,0.0,0.0,-4.0885,-4.2236,-4.3243,-4.3745,-4.3342,-4.2229,-4.0088,0.0,0.0,-3.5908,-3.5504,-3.5504,-3.5504,-3.5504,-3.6372,-3.8955,-3.9589,0.0,0.0,0.0,0.0,0.0,0.0,0.0,0.0,0.0,0.0,0.0,0.0,0.0,0.0,0.0,-5.5194,-5.5194,-5.5194,-5.5194,-5.5194,-5.5194,-5.5194,-5.5194,-5.5194,-5.4491,-5.3234,-5.4581,0.0,0.0,0.0,0.0,0.0,-5.2366,-5.1244,-4.8476,-5.0451,-5.1214,-5.1214,-5.1214,-5.1354,-5.1587,0.0,0.0,0.0,0.0,0.0,0.0,0.0,-3.282,-3.2916,-3.2948,-3.2963,-3.287,-3.2673,-3.2847,-3.2194,-3.0248,-2.965,0.0,0.0,0.0,0.0,0.0,0.0,0.0,-2.7971,-2.8199,-2.8699,-2.9535,-2.97,-3.0042,-3.0516,-3.025,-3.0418,-3.0922,-3.067,0.0,0.0,0.0,0.0,0.0,0.0,0.0,-3.1063,0.0,0.0,0.0,0.0,0.0,0.0,0.0,0.0,0.0,0.0,0.0,0.0,0.0,-3.4973,-3.6984,0.0,-4.0344,-4.1431,-4.1767,-4.1137,0.0,0.0,0.0,0.0,0.0,0.0,0.0,-3.5684,-3.6312,-3.7195,-3.7804,0.0,0.0,0.0,0.0,0.0,0.0,0.0,0.0,0.0,0.0,0.0,0.0,0.0,0.0,0.0,0.0,-5.482,-5.482,-5.5059,-5.5194,-5.5194,-5.5194,-5.5194,-5.5194,-5.5194,-5.4491,-5.3234,-5.4581,0.0,0.0,0.0,0.0,0.0,-5.268,-5.1678,-4.9508,-5.0735,-5.1214,-5.1214,-5.1214,-5.1354,-5.1587,0.0,0.0,0.0,0.0,0.0,0.0,0.0,-3.2787,-3.29,-3.29,-3.29,-3.2662,-3.2047,-3.2498,-3.1972,-2.974,0.0,0.0,0.0,0.0,0.0,0.0,0.0,0.0,-2.7282,-2.789,-2.8151,-2.8049,-2.8661,-2.908,-2.9277,-2.8655,-2.9089,-3.0398,-2.9735,-3.0089,0.0,0.0,0.0,0.0,0.0,0.0,0.0,0.0,0.0,0.0,0.0,0.0,0.0,0.0,0.0,0.0,0.0,0.0,0.0,0.0,0.0,0.0,0.0,-3.9995,0.0,0.0,0.0,0.0,0.0,0.0,0.0,0.0,0.0,0.0,0.0,0.0,0.0,0.0,0.0,0.0,0.0,0.0,0.0,0.0,0.0,0.0,0.0,0.0,0.0,0.0,0.0,0.0,0.0,0.0,0.0,-5.4147,-5.473,-5.5089,-5.5194,-5.5194,-5.5119,-5.4985,-5.5119,-5.4401,-5.3025,-5.4506,0.0,0.0,0.0,0.0,0.0,-5.3129,-5.2366,-5.1214,-5.1214,-5.1214,-5.1214,-5.1214,-5.1354,-5.1587,0.0,0.0,0.0,0.0,0.0,0.0,0.0,0.0,0.0,0.0,-3.29,-3.2844,-3.2679,-3.2679,-3.2243,0.0,0.0,0.0,0.0,0.0,0.0,0.0,0.0,0.0,-2.7152,-2.7194,-2.7335,-2.756,-2.7619,-2.7843,-2.8176,-2.7996,-2.8586,-2.9705,-2.9214,-2.9593,0.0,0.0,0.0,0.0,0.0,0.0,0.0,0.0,0.0,0.0,-2.9689,-2.9808,0.0,0.0,0.0,0.0,0.0,0.0,0.0,0.0,-3.4369,-3.5432,-3.6094,0.0,-3.6501,-3.6929,-3.6225,-3.5548,0.0,0.0,0.0,0.0,0.0,0.0,0.0,0.0,0.0,0.0,0.0,0.0,0.0,0.0,0.0,0.0,0.0,0.0,0.0,0.0,0.0,0.0,0.0,0.0,0.0,0.0,0.0,-5.3428,-5.3578,-5.4147,-5.5179,-5.5194,-5.4431,-5.292,-5.4461,-5.3698,-5.102,-5.3892,0.0,0.0,0.0,0.0,-5.3144,-5.2636,-5.1947,-5.1214,-5.1214,-5.1214,-5.1214,-5.1214,-5.1214,-5.1308,0.0,0.0,0.0,0.0,0.0,0.0,0.0,0.0,0.0,0.0,0.0,0.0,0.0,0.0,0.0,0.0,0.0,0.0,0.0,0.0,0.0,0.0,0.0,-2.6891,-2.6841,-2.6556,-2.6478,-2.6625,-2.6792,-2.6899,-2.6944,-2.7261,-2.7936,-2.8884,-2.9377,-2.9863,0.0,0.0,0.0,0.0,0.0,0.0,0.0,0.0,0.0,0.0,-2.9303,-2.9509,0.0,-2.8823,-2.9215,-2.999,0.0,0.0,0.0,0.0,-3.4218,-3.51,-3.5415,-3.517,-3.5253,-3.7022,-3.6107,-3.5189,-3.7067,0.0,0.0,0.0,0.0,0.0,0.0,0.0,0.0,0.0,0.0,0.0,0.0,0.0,0.0,0.0,0.0,0.0,0.0,0.0,0.0,0.0,0.0,0.0,0.0,0.0,0.0,0.0,-5.3025,-5.3683,-5.473,-5.4745,-5.3892,-5.2217,-5.4236,-5.3773,-5.1214,-5.3638,0.0,0.0,0.0,0.0,-5.265,-5.1693,-5.1274,-5.1214,-5.1214,-5.1214,-5.1214,-5.1214,-5.1214,-5.1214,0.0,0.0,0.0,0.0,0.0,0.0,0.0,0.0,0.0,0.0,0.0,0.0,0.0,0.0,0.0,0.0,0.0,0.0,0.0,0.0,0.0,0.0,-2.6943,-2.6573,-2.6402,-2.5962,-2.5752,-2.5735,-2.607,-2.6102,-2.5816,-2.6356,-2.7023,-2.7883,-2.9442,-3.0143,0.0,0.0,0.0,0.0,-2.9032,0.0,0.0,0.0,0.0,0.0,0.0,0.0,0.0,-2.7999,-2.8345,-2.931,-2.9518,0.0,0.0,0.0,0.0,0.0,-3.5342,-3.5282,-3.5776,-3.9007,-3.7437,-3.5941,-3.9063,0.0,0.0,0.0,0.0,0.0,0.0,0.0,0.0,0.0,0.0,0.0,0.0,0.0,0.0,0.0,0.0,0.0,0.0,0.0,0.0,0.0,0.0,0.0,0.0,0.0,0.0,0.0,-5.2591,-5.3219,-5.3892,-5.3997,-5.3324,-5.1932,-5.3922,-5.3931,-5.2169,-5.3432,-5.4156,0.0,0.0,0.0,-5.2097,-5.0838,-5.0674,-5.1214,-5.1214,-5.1214,-5.1214,-5.1214,-5.1214,-5.1214,0.0,0.0,0.0,0.0,0.0,0.0,0.0,0.0,0.0,0.0,0.0,0.0,0.0,0.0,0.0,0.0,0.0,0.0,0.0,0.0,0.0,-2.8265,-2.708,-2.6279,-2.5924,-2.567,-2.5641,-2.5869,-2.5377,-2.5235,-2.5373,-2.4946,-2.5379,-2.6638,-2.7911,-2.8988,-2.981,-2.9067,-2.9291,-3.0067,-2.9123,0.0,0.0,0.0,0.0,0.0,0.0,0.0,0.0,-2.8491,-2.8551,-2.891,-2.9986,0.0,0.0,0.0,0.0,0.0,-3.5458,-3.5347,-3.5776,-3.9007,-3.7669,-3.6325,-3.9169,0.0,0.0,0.0,0.0,0.0,0.0,0.0,0.0,0.0,0.0,0.0,0.0,0.0,0.0,0.0,0.0,0.0,0.0,0.0,0.0,0.0,0.0,0.0,0.0,0.0,0.0,0.0,0.0,-5.1843,-5.2501,-5.3054,-5.2396,-5.0524,-5.2546,-5.2855,-5.1708,-5.2838,-5.3809,0.0,0.0,-5.2097,-5.2142,-5.1379,-5.1124,-5.1214,-5.1214,-5.1214,-5.1214,-5.1214,-5.1214,-5.1214,0.0,0.0,0.0,0.0,0.0,0.0,0.0,0.0,0.0,0.0,0.0,0.0,0.0,0.0,0.0,0.0,0.0,0.0,0.0,0.0,-2.9608,-2.8397,-2.7613,-2.6772,-2.5815,-2.5657,-2.5431,-2.5041,-2.5492,-2.5371,-2.4779,-2.5226,-2.5964,-2.6934,-2.796,-2.8728,-2.9171,-2.8528,-2.8854,-2.9731,0.0,0.0,0.0,0.0,0.0,0.0,0.0,0.0,0.0,0.0,-2.8949,-2.9607,-3.0203,0.0,0.0,0.0,0.0,0.0,-3.5287,-3.557,-3.6505,-4.0552,-3.8478,-3.6993,-4.3092,-3.9874,0.0,0.0,0.0,0.0,0.0,0.0,0.0,0.0,0.0,0.0,0.0,0.0,0.0,0.0,0.0,0.0,0.0,0.0,0.0,0.0,0.0,0.0,0.0,0.0,0.0,0.0,-5.1214,-5.1364,-5.1678,-5.1977,-5.1483,-5.0211,-5.2232,-5.2633,-5.1607,-5.2359,-5.3194,-5.3929,0.0,-5.102,-5.1588,-5.0586,-5.0586,-5.1214,-5.1214,-5.1214,-5.1214,-5.1214,-5.1214,-5.1214,0.0,0.0,0.0,0.0,0.0,0.0,0.0,0.0,0.0,0.0,0.0,0.0,0.0,0.0,0.0,0.0,0.0,0.0,0.0,0.0,-3.0337,-2.8976,-2.8471,-2.7529,-2.604,-2.5762,-2.535,-2.4795,-2.5533,-2.5349,-2.4333,-2.5564,-2.648,-2.7087,-2.8,-2.8474,-2.8568,-2.8208,-2.8568,-2.9323,0.0,0.0,0.0,0.0,0.0,0.0,0.0,0.0,0.0,0.0,0.0,0.0,0.0,0.0,0.0,-3.2841,-3.341,-3.3651,-3.5149,-3.5765,-3.7023,-4.1298,-3.8842,-3.7584,-4.6012,-4.1693,0.0,0.0,0.0,0.0,0.0,0.0,0.0,0.0,0.0,0.0,0.0,0.0,0.0,0.0,0.0,0.0,0.0,0.0,0.0,0.0,0.0,0.0,0.0,0.0,0.0,0.0,-5.1214,-5.1214,-5.1214,-5.1214,-5.096,-5.0435,-5.2007,-5.2406,-5.1823,-5.1952,-5.2498,-5.3238,-5.0804,-5.0287,-5.1139,-5.0137,-5.0316,-5.1214,-5.1214,-5.1214,-5.1214,-5.1214,-5.1214,-5.1214,0.0,0.0,0.0,0.0,0.0,0.0,0.0,0.0,0.0,0.0,0.0,0.0,0.0,0.0,0.0,0.0,0.0,0.0,0.0,0.0,-3.1458,-3.0839,-2.9699,-2.8322,-2.6679,-2.5784,-2.5626,-2.6264,-2.5041,-2.441,-2.4317,-2.5035,-2.5594,-2.6039,-2.7057,-2.7789,-2.8336,-2.8418,-2.8596,-2.8804,-2.816,0.0,0.0,0.0,0.0,0.0,0.0,0.0,0.0,0.0,0.0,0.0,0.0,0.0,-3.0316,-3.2766,-3.3141,-3.3186,-3.516,-3.5831,-3.6689,-3.9514,-3.8056,-3.7788,-4.4901,-4.1389,0.0,-4.3714,0.0,0.0,0.0,0.0,0.0,0.0,0.0,0.0,0.0,0.0,0.0,0.0,0.0,0.0,0.0,0.0,0.0,0.0,0.0,0.0,0.0,0.0,0.0,0.0,0.0,-5.1214,-5.1214,-5.1214,-5.1199,-5.1154,-5.1289,-5.1756,-5.2484,-5.168,-5.1756,-5.2622,-5.1528,-5.1139,-5.1214,-5.1109,-5.1139,-5.1214,-5.1214,-5.1214,-5.1214,-5.1214,-5.1214,-5.1214,0.0,0.0,0.0,0.0,0.0,0.0,0.0,0.0,0.0,0.0,0.0,0.0,0.0,0.0,0.0,0.0,0.0,0.0,0.0,-3.2231,-3.2282,-3.1833,-3.0929,-3.0011,-2.913,-2.7101,-2.5953,-2.5718,-2.4779,-2.4302,-2.4333,-2.5229,-2.5864,-2.623,-2.6956,-2.771,-2.8399,-2.8117,-2.8492,-2.9258,-2.8812,-2.8655,0.0,0.0,0.0,0.0,0.0,0.0,0.0,0.0,-2.9924,-3.0808,0.0,-3.1086,-3.1364,-3.3036,-3.3427,-3.3683,-3.525,-3.5863,-3.6856,-4.038,-3.8618,0.0,0.0,-4.2428,-3.9915,-4.6255,-4.4311,0.0,0.0,0.0,0.0,0.0,0.0,0.0,0.0,0.0,0.0,0.0,0.0,0.0,0.0,0.0,0.0,0.0,0.0,0.0,0.0,0.0,0.0,0.0,0.0,-5.1214,-5.1214,-5.1214,-5.1214,-5.1214,-5.1214,-5.1696,-5.2561,-5.1603,-5.1696,-5.2561,-5.1603,-5.1214,-5.1214,-5.1214,-5.1214,-5.1214,-5.1214,-5.1214,-5.1214,-5.1214,-5.1214,-5.1214,0.0,0.0,0.0,0.0,0.0,0.0,0.0,0.0,0.0,0.0,0.0,0.0,0.0,0.0,0.0,0.0,0.0,0.0,-3.2127,-3.2628,-3.2738,-3.2387,-3.1615,-3.091,-3.0299,-2.7975,-2.6401,-2.5619,-2.4727,-2.4302,-2.4312,-2.5187,-2.569,-2.5871,-2.6877,-2.7573,-2.8006,-2.8358,-2.8939,-2.9566,-2.9279,-2.9125,0.0,0.0,0.0,0.0,0.0,0.0,0.0,0.0,0.0,0.0,0.0,0.0,0.0,0.0,-3.3547,-3.3864,-3.5264,-3.5814,-3.6838,-4.0308,0.0,0.0,-4.5178,-4.291,-4.0937,-4.6961,-4.5318,0.0,0.0,0.0,0.0,0.0,0.0,0.0,0.0,0.0,0.0,0.0,0.0,0.0,0.0,0.0,0.0,0.0,0.0,0.0,0.0,0.0,0.0,0.0,0.0,0.0,-5.1214,-5.1214,-5.1214,-5.1214,-5.1214,-5.1526,-5.2124,-5.1479,-5.1557,-5.2124,-5.1773,-5.165,-5.165,-5.165,-5.1479,-5.1214,-5.1214,-5.1214,-5.1214,-5.1214,-5.1214,-5.1214,0.0,0.0,0.0,0.0,0.0,0.0,0.0,0.0,0.0,0.0,0.0,0.0,0.0,0.0,0.0,0.0,0.0,0.0,-3.2852,-3.2904,-3.2801,-3.2508,-3.1665,-3.0706,-2.9645,-2.816,-2.7042,-2.6296,-2.4979,-2.4317,-2.4312,-2.4789,-2.4866,-2.4724,-2.6722,-2.7325,-2.6992,-2.9345,-3.0043,-2.961,-2.9392,-2.9222,-2.8978,0.0,0.0,0.0,0.0,0.0,0.0,0.0,-3.0543,0.0,0.0,0.0,0.0,0.0,-3.347,-3.3541,-3.5123,-3.5763,-3.6561,0.0,0.0,0.0,-4.4191,-4.2583,-4.0915,-4.5061,0.0,0.0,0.0,0.0,0.0,0.0,0.0,0.0,0.0,0.0,0.0,0.0,0.0,0.0,0.0,0.0,0.0,0.0,0.0,0.0,0.0,0.0,0.0,0.0,0.0,0.0,-5.1214,-5.1214,-5.1214,-5.1214,-5.1214,-5.1214,-5.1214,-5.1214,-5.1214,-5.1261,-5.217,-5.2606,-5.2606,-5.2606,-5.2033,-5.1214,-5.1214,-5.1214,-5.1214,-5.1214,-5.1214,-5.1214,0.0,0.0,0.0,0.0,0.0,0.0,0.0,0.0,0.0,0.0,0.0,0.0,0.0,0.0,0.0,0.0,0.0,0.0,-3.2886,-3.3111,-3.3219,-3.3148,-3.1676,-3.067,-3.0323,-2.8389,-2.6811,-2.5604,-2.5718,-2.5431,-2.4724,-2.5206,-2.5856,-2.6708,-2.8319,-2.9021,-2.9181,-3.1145,-3.1332,-3.0293,-3.0084,-2.93,-2.8209,0.0,0.0,0.0,0.0,0.0,0.0,0.0,0.0,0.0,0.0,0.0,0.0,-3.4996,-3.4802,-3.4395,-3.7583,-3.7164,0.0,0.0,0.0,0.0,0.0,-4.1849,0.0,0.0,0.0,0.0,0.0,0.0,0.0,0.0,0.0,0.0,0.0,0.0,0.0,0.0,0.0,0.0,0.0,0.0,0.0,0.0,0.0,0.0,0.0,0.0,0.0,0.0,0.0,0.0,-5.1214,-5.1214,-5.1214,-5.1214,-5.1214,-5.1214,-5.1214,-5.1214,-5.1214,-5.1214,-5.1479,-5.2002,-5.2651,-5.3284,-5.3035,-5.217,-5.217,-5.1773,-5.1214,-5.1214,-5.1214,-5.1214,0.0,0.0,0.0,0.0,0.0,0.0,0.0,0.0,0.0,0.0,-3.1892,-3.18,0.0,0.0,0.0,0.0,0.0,0.0,0.0,-3.3582,-3.3362,-3.2643,-3.1512,-3.0525,-2.9745,-2.8458,-2.7257,-2.6127,-2.6175,-2.5887,-2.5296,-2.5397,-2.5842,-2.6649,-2.7915,-2.8721,-2.9198,-3.0925,-3.1113,-3.0206,-3.0024,-2.8975,-2.7527,0.0,0.0,0.0,0.0,0.0,0.0,0.0,0.0,0.0,0.0,0.0,0.0,-3.4877,-3.5363,-3.6061,-3.8596,0.0,0.0,0.0,0.0,0.0,0.0,0.0,0.0,0.0,0.0,0.0,0.0,0.0,0.0,0.0,0.0,0.0,0.0,0.0,0.0,0.0,0.0,0.0,0.0,0.0,0.0,0.0,0.0,0.0,0.0,0.0,0.0,0.0,0.0,0.0,-5.1214,-5.1214,-5.1214,-5.1214,-5.1214,-5.1214,-5.1214,-5.1214,-5.1214,-5.1214,-5.1603,-5.2078,-5.268,-5.3589,-5.3474,-5.2651,-5.2991,-5.2606,-5.1742,-5.1742,-5.1526,-5.1214,0.0,0.0,0.0,0.0,0.0,0.0,0.0,0.0,0.0,0.0,-3.18,-3.18,0.0,0.0,0.0,0.0,0.0,0.0,0.0,0.0,-3.3131,-3.1467,-3.1134,-3.016,-2.846,-2.8411,-2.808,-2.7441,-2.6541,-2.6083,-2.6022,-2.5521,-2.5379,-2.5565,-2.6651,-2.7418,-2.7998,-2.9706,-3.0119,-2.9595,-2.9402,-2.8352,-2.6927,-2.7136,0.0,0.0,0.0,0.0,0.0,0.0,0.0,0.0,0.0,0.0,-3.5101,-3.3667,-3.5456,-3.8058,0.0,0.0,0.0,0.0,0.0,0.0,0.0,0.0,0.0,0.0,0.0,0.0,0.0,0.0,0.0,0.0,0.0,0.0,0.0,0.0,0.0,0.0,0.0,0.0,0.0,0.0,0.0,0.0,0.0,0.0,0.0,0.0,0.0,0.0,0.0,0.0,-5.1261,-5.1261,-5.1214,0.0,-5.1214,-5.1214,-5.1214,-5.1214,-5.1214,-5.1261,-5.2215,-5.2606,-5.268,-5.3589,-5.3474,-5.268,-5.3561,-5.3328,-5.2606,-5.2606,-5.2033,-5.1354,0.0,0.0,0.0,0.0,0.0,0.0,0.0,0.0,0.0,0.0,0.0,0.0,0.0,0.0,0.0,0.0,0.0,0.0,0.0,0.0,-3.1917,-3.1429,-2.9957,-2.8983,-2.8565,-2.8444,-2.8238,-2.7866,-2.764,-2.7403,-2.7126,-2.6362,-2.67,-2.7994,-2.9246,-2.9552,-2.9363,-3.1996,-3.179,-2.9695,-2.8926,-2.7658,-2.6205,-2.605,-2.5887,0.0,0.0,0.0,0.0,0.0,0.0,0.0,-3.2163,-3.2462,-3.3122,-3.4773,-3.6451,-3.8344,0.0,0.0,0.0,0.0,0.0,0.0,0.0,0.0,0.0,0.0,0.0,0.0,0.0,0.0,0.0,0.0,0.0,0.0,0.0,0.0,0.0,0.0,0.0,0.0,0.0,0.0,0.0,0.0,0.0,0.0,0.0,0.0,0.0,0.0,0.0,-5.1757,-5.1757,-5.1757,-5.1572,0.0,-5.1214,-5.1214,-5.1214,-5.1214,-5.1214,-5.1261,-5.2215,-5.2606,-5.268,-5.3589,-5.3474,-5.2606,-5.2814,-5.2769,-5.2606,-5.2606,-5.2471,-5.2306,0.0,0.0,0.0,0.0,0.0,0.0,0.0,0.0,0.0,0.0,0.0,0.0,0.0,0.0,0.0,0.0,0.0,0.0,0.0,0.0,-3.1725,-3.0729,-2.9411,-2.8589,-2.8323,-2.8372,-2.8379,-2.8374,-2.8374,-2.8181,-2.778,-2.7504,-2.7858,-2.8738,-2.9392,-2.9653,-2.9711,-3.138,-3.1013,-2.93,-2.8591,-2.7476,-2.6204,-2.6396,-2.6557,-2.6952,-2.888,0.0,0.0,0.0,0.0,0.0,0.0,0.0,-3.3774,-3.3895,-3.5542,-3.7745,0.0,0.0,0.0,0.0,0.0,0.0,0.0,0.0,0.0,0.0,0.0,0.0,0.0,0.0,0.0,0.0,0.0,0.0,0.0,0.0,0.0,0.0,0.0,0.0,0.0,0.0,0.0,0.0,0.0,0.0,0.0,0.0,0.0,0.0,-5.2291,-5.2291,-5.2291,-5.2291,-5.2033,-5.1541,-5.1541,-5.1401,-5.1214,-5.1214,-5.1214,-5.1214,-5.1742,-5.217,-5.268,-5.3589,-5.3976,-5.3961,-5.4385,-5.4301,-5.3902,-5.3902,-5.3356,-5.2606,0.0,0.0,0.0,0.0,0.0,0.0,0.0,0.0,0.0,0.0,0.0,0.0,0.0,0.0,0.0,0.0,0.0,0.0,0.0,0.0,0.0,-2.9777,-2.9082,-2.8532,-2.8103,-2.8397,-2.862,-2.8822,-2.9011,-2.9059,-2.8967,-2.9198,-2.926,-2.926,-2.9376,-2.9406,-2.9479,-3.0044,-2.9822,-2.9091,-2.8491,-2.7672,-2.6862,-2.7305,-2.7745,-2.8358,-2.9867,-3.0841,-3.1424,-3.152,0.0,0.0,0.0,0.0,-3.4649,-3.2461,-3.4288,-3.7083,0.0,0.0,0.0,0.0,0.0,0.0,0.0,0.0,0.0,0.0,0.0,0.0,0.0,0.0,0.0,0.0,0.0,0.0,0.0,0.0,0.0,0.0,0.0,0.0,0.0,0.0,0.0,0.0,0.0,0.0,0.0,0.0,-5.2155,-5.2802,-5.2846,-5.2846,-5.2846,-5.2846,-5.2577,-5.2033,-5.1926,-5.1665,-5.1214,-5.1214,-5.1214,-5.1214,-5.1214,-5.165,-5.2426,-5.3212,-5.4046,-5.4927,-5.5708,-5.5692,-5.5296,-5.5296,-5.4369,-5.3064,0.0,0.0,0.0,0.0,0.0,0.0,0.0,0.0,0.0,0.0,-3.18,0.0,0.0,0.0,0.0,0.0,0.0,0.0,0.0,0.0,0.0,-2.8975,-2.8636,-2.8468,-2.8517,-2.8916,-2.9037,-2.8884,-2.9823,-3.1022,-3.2416,-3.1883,-3.1588,-3.1496,-3.2008,-3.0981,-2.8898,-3.0353,-3.0629,-3.0018,-2.883,-2.8431,-2.8423,-2.7926,-2.8208,-2.9068,-3.0661,-3.1305,-3.1501,-3.2059,-3.2293,0.0,0.0,0.0,-3.2423,-3.2074,-3.4512,0.0,0.0,0.0,0.0,0.0,0.0,0.0,0.0,0.0,0.0,0.0,0.0,0.0,0.0,0.0,0.0,0.0,0.0,0.0,0.0,0.0,0.0,0.0,0.0,0.0,0.0,0.0,0.0,0.0,0.0,0.0,0.0,-5.1895,-5.2336,-5.329,-5.329,-5.329,-5.329,-5.329,-5.3069,-5.2577,-5.2109,-5.1665,-5.1214,-5.1214,-5.1214,-5.1214,-5.1214,-5.1261,-5.1386,-5.1511,-5.2124,-5.2976,-5.3108,-5.403,-5.5296,-5.5296,-5.5133,-5.4927,0.0,0.0,0.0,0.0,0.0,0.0,0.0,0.0,0.0,0.0,0.0,-3.1818,0.0,0.0,0.0,0.0,0.0,0.0,0.0,0.0,0.0,-2.9091,-2.9209,-2.9024,-2.8508,-2.9537,-2.9843,-2.9361,-3.0386,-3.2299,-3.5014,-3.4684,-3.3813,-3.259,-3.4371,-3.3042,-2.9635,-3.1885,-3.1857,-3.0253,-2.9716,-2.9669,-2.987,-2.9907,-3.0241,-3.0809,-3.1921,-3.2096,-3.1888,-3.2195,-3.2302,-3.2274,-3.2219,0.0,0.0,0.0,-3.338,0.0,0.0,0.0,0.0,0.0,0.0,0.0,0.0,0.0,0.0,0.0,0.0,0.0,0.0,0.0,0.0,0.0,0.0,0.0,0.0,0.0,0.0,0.0,0.0,0.0,0.0,0.0,0.0,0.0,0.0,0.0,-5.2306,-5.2352,-5.2786,-5.3785,-5.3785,-5.3785,-5.3785,-5.3785,-5.3568,-5.3069,-5.2291,-5.1803,-5.1572,-5.1308,-5.1214,-5.1214,-5.1214,-5.1479,-5.2048,-5.2561,-5.3284,-5.4174,-5.4678,-5.5393,-5.6083,-5.6083,-5.5732,-5.5215,0.0,0.0,0.0,0.0,0.0,0.0,0.0,0.0,0.0,0.0,0.0,0.0,0.0,0.0,0.0,0.0,0.0,0.0,0.0,0.0,0.0,-2.9737,-2.9871,-2.9755,-2.9354,-3.0285,-3.0639,-3.0379,-3.1089,-3.2894,-3.5744,-3.6252,-3.5392,-3.3456,-3.5585,-3.462,-3.1441,-3.322,-3.2957,-3.1366,-3.1424,-3.1463,-3.1528,-3.1788,-3.2145,-3.2528,-3.2877,-3.2764,-3.242,-3.2252,-3.2219,-3.2247,-3.2247,-3.2219,0.0,0.0,0.0,0.0,0.0,0.0,0.0,0.0,0.0,0.0,0.0,0.0,0.0,0.0,0.0,0.0,0.0,0.0,0.0,0.0,0.0,0.0,0.0,0.0,0.0,0.0,0.0,0.0,0.0,0.0,0.0,0.0,0.0,0.0,-5.2652,-5.2802,-5.3246,-5.4044,-5.4103,-5.4103,-5.4103,-5.4103,-5.3872,-5.3377,-5.2652,-5.217,-5.1895,-5.1541,-5.1308,-5.1214,-5.1214,-5.1603,-5.2306,-5.3256,-5.4174,-5.5051,-5.5988,-5.6469,-5.668,-5.668,-5.6257,-5.5555,0.0,0.0,0.0,0.0,0.0,0.0,0.0,0.0,0.0,0.0,0.0,0.0,-3.1893,-3.1838,-3.1819,-3.1876,-3.2078,0.0,0.0,0.0,0.0,-3.0932,-3.0188,0.0,-3.1887,-3.1067,-3.116,-3.2262,-3.2046,-3.255,-3.3694,-3.5594,-3.5759,-3.4457,-3.5043,-3.5088,-3.4676,-3.3756,-3.3719,-3.4262,-3.4309,-3.4059,-3.3652,-3.2914,-3.311,-3.3712,-3.318,-3.3069,-3.3047,-3.2405,-3.2287,-3.2398,-3.2398,-3.2287,-3.2163,0.0,0.0,0.0,0.0,0.0,0.0,0.0,0.0,0.0,0.0,0.0,0.0,0.0,0.0,0.0,0.0,0.0,0.0,0.0,0.0,0.0,0.0,0.0,0.0,0.0,0.0,0.0,0.0,0.0,0.0,0.0,0.0,0.0,-5.2637,-5.3113,-5.3612,-5.4087,-5.4103,-5.4103,-5.4103,-5.4103,-5.3872,-5.3377,-5.3334,-5.2831,-5.1895,-5.188,-5.1618,-5.1214,-5.1214,-5.1214,-5.1354,-5.2306,-5.3196,-5.4147,-5.501,-5.5908,-5.668,-5.668,-5.668,-5.6603,0.0,0.0,0.0,0.0,0.0,0.0,0.0,0.0,0.0,0.0,0.0,0.0,0.0,-3.197,-3.2203,-3.2508,-3.2448,0.0,0.0,0.0,0.0,-3.0349,-3.0162,-3.0525,-3.1495,-3.142,-3.1502,-3.1755,-3.1924,-3.2279,-3.2886,-3.3604,-3.4128,-3.4653,-3.7789,-3.7033,-3.3599,-3.66,0.0,0.0,0.0,-3.6663,-3.445,-3.5812,-3.6247,0.0,0.0,0.0,0.0,-3.3032,-3.2344,-3.215,-3.215,-3.2122,-3.2129,-3.2367,-3.263,-3.3679,-3.7389,0.0,0.0,0.0,0.0,0.0,0.0,0.0,0.0,0.0,0.0,0.0,0.0,0.0,0.0,0.0,0.0,0.0,0.0,0.0,0.0,0.0,0.0,0.0,0.0,0.0,0.0,0.0,0.0,0.0,-5.2575,-5.2275,-5.2688,-5.4071,-5.4103,-5.4103,-5.4103,-5.4103,-5.4017,-5.3829,-5.3552,-5.3201,-5.2831,-5.2562,-5.2109,-5.1665,-5.1665,-5.1494,-5.1308,-5.2858,-5.3675,-5.4147,-5.5612,-5.6414,-5.668,-5.668,-5.668,-5.6603,0.0,0.0,0.0,0.0,0.0,0.0,0.0,0.0,-3.18,-3.18,0.0,0.0,0.0,0.0,-3.2497,-3.2655,-3.2307,-3.1945,-3.1587,-3.0791,-3.0349,-3.0382,-3.0479,-3.097,-3.1861,-3.1622,-3.1663,-3.2105,-3.1802,-3.1705,-3.1854,-3.2527,-3.308,-3.3664,-3.7644,-3.7569,0.0,0.0,0.0,-3.5774,0.0,0.0,-3.6944,0.0,0.0,0.0,0.0,0.0,0.0,0.0,0.0,-3.3621,-3.3393,-3.2681,-3.2002,-3.2311,-3.245,-3.314,-3.5968,0.0,0.0,0.0,0.0,0.0,0.0,0.0,0.0,0.0,0.0,0.0,0.0,0.0,0.0,0.0,0.0,0.0,0.0,0.0,0.0,0.0,0.0,0.0,0.0,0.0,0.0,0.0,0.0,0.0,-5.2236,-5.2293,-5.2827,-5.4071,-5.4103,-5.4103,-5.4103,-5.4103,-5.4103,-5.4103,-5.3785,-5.3552,-5.3377,-5.3069,-5.2577,-5.1895,-5.1895,-5.1618,-5.1354,-5.3212,-5.3976,-5.419,-5.6004,-5.668,-5.668,-5.668,-5.668,-5.6603,0.0,0.0,0.0,0.0,0.0,0.0,0.0,0.0,-3.1765,-3.18,0.0,0.0,0.0,0.0,0.0,-3.2253,-3.1672,-3.1487,-3.1843,-3.1339,-3.1074,-3.1182,0.0,0.0,0.0,-3.1669,-3.1663,-3.3457,-3.183,-3.083,-3.0552,-3.2497,-3.2721,-3.157,-3.4201,-3.6477,-3.8332,0.0,-4.0127,-4.1145,0.0,-4.0846,-4.1048,0.0,0.0,0.0,-3.9933,-3.9292,0.0,-3.9204,0.0,0.0,0.0,-3.394,-3.1799,-3.1799,-3.212,-3.2632,0.0,0.0,0.0,0.0,0.0,0.0,0.0,0.0,0.0,0.0,0.0,0.0,0.0,0.0,0.0,0.0,0.0,0.0,0.0,0.0,0.0,0.0,0.0,0.0,0.0,0.0,0.0,0.0,0.0,-5.0941,-5.1665,-5.3236,-5.4103,-5.4103,-5.4103,-5.4103,-5.4103,-5.4087,-5.4071,-5.4071,-5.404,-5.3809,-5.3359,-5.3359,-5.2829,-5.1896,-5.1896,-5.165,-5.1339,-5.3212,-5.3992,-5.419,-5.5964,-5.668,-5.668,-5.668,-5.668,-5.668,0.0,0.0,0.0,0.0,0.0,-3.0525,-3.0992,-3.1079,-3.1251,0.0,0.0,0.0,-3.2093,-3.2368,-3.2564,-3.2629,-3.2232,-3.174,-3.1216,-3.115,-3.1173,-3.1198,-3.1198,-3.1769,-3.2973,-3.1838,-3.1605,-3.2412,-3.1692,-3.1057,-3.0507,-3.1076,-3.0896,0.0,-3.2377,-3.4173,-3.5821,-3.9334,0.0,0.0,-4.297,-4.2073,0.0,0.0,0.0,0.0,0.0,-4.0494,-3.9706,0.0,-3.8287,-3.5529,0.0,-3.2182,-3.1568,-3.1568,-3.1659,-3.1914,-3.2572,0.0,0.0,0.0,0.0,0.0,0.0,0.0,0.0,0.0,0.0,0.0,0.0,0.0,0.0,0.0,0.0,0.0,0.0,0.0,0.0,0.0,0.0,0.0,0.0,0.0,0.0,0.0,-4.8849,-4.9897,-5.1603,-5.3236,-5.4103,-5.4103,-5.4103,-5.4103,-5.4103,-5.3629,-5.3376,-5.3376,-5.2839,-5.2503,-5.2377,-5.2377,-5.2289,-5.2193,-5.2193,-5.2027,-5.1757,-5.2651,-5.3387,-5.4105,-5.5231,-5.6123,-5.668,-5.668,-5.668,-5.668,0.0,0.0,0.0,0.0,0.0,-3.0473,-3.1167,-3.1253,-3.1373,0.0,0.0,0.0,-3.234,-3.2145,-3.2154,-3.2479,-3.2174,-3.1736,-3.1226,-3.1214,-3.1198,-3.1198,-3.1198,-3.1577,-3.2429,-3.1469,-3.1324,-3.1996,-3.1383,-3.1017,-3.0913,-3.0913,-3.0582,-3.0043,0.0,0.0,0.0,0.0,0.0,0.0,-4.303,0.0,0.0,-4.3329,-4.288,0.0,0.0,0.0,-4.2162,-4.3,-4.0546,0.0,0.0,0.0,-3.172,-3.2841,-3.2378,-3.1645,-3.2303,-3.2512,-3.2572,0.0,0.0,0.0,0.0,0.0,0.0,0.0,0.0,0.0,0.0,0.0,0.0,0.0,0.0,0.0,0.0,0.0,0.0,0.0,0.0,0.0,0.0,0.0,0.0,0.0,-4.8865,-5.0433,-5.2604,-5.3609,-5.4103,-5.4103,-5.4103,-5.3976,-5.3692,-5.3313,-5.2965,-5.2649,-5.2223,-5.2017,-5.2017,-5.2017,-5.1973,-5.1884,-5.218,-5.1999,-5.1547,-5.2063,-5.2991,-5.4105,-5.4968,-5.5852,-5.668,-5.668,-5.668,-5.668,0.0,0.0,-3.0002,-3.0593,-3.0733,-3.1011,-3.1705,-3.1809,-3.1825,0.0,-3.2406,-3.2859,-3.3006,-3.2192,-3.1757,-3.2123,-3.1864,-3.1663,-3.1641,-3.1405,-3.1284,-3.1284,-3.1284,-3.1448,-3.1809,-3.0974,-3.0976,-3.194,-3.1067,-3.0926,-3.1511,-3.1511,-3.1182,-3.0672,0.0,0.0,0.0,0.0,0.0,-4.2572,-4.1968,-4.3688,0.0,0.0,-4.4421,0.0,-4.6621,-4.6172,-4.4796,-4.6501,-4.3913,0.0,0.0,0.0,0.0,0.0,-3.3469,-3.172,-3.2243,-3.2318,-3.2317,0.0,0.0,0.0,-3.4234,-3.7648,0.0,0.0,0.0,0.0,0.0,0.0,0.0,0.0,0.0,0.0,0.0,0.0,0.0,0.0,0.0,0.0,0.0,0.0,-4.7339,-4.7414,-4.9517,-5.1747,-5.3895,-5.406,-5.4103,-5.4103,-5.4103,-5.3771,-5.3123,-5.3028,-5.2618,-5.1891,-5.1812,-5.178,-5.178,-5.178,-5.1564,-5.1283,-5.1907,-5.1716,-5.103,-5.1622,-5.2723,-5.4062,-5.4845,-5.5789,-5.668,-5.668,-5.668,-5.668,0.0,-2.902,-2.9687,-2.936,-2.9748,-3.0363,-3.1132,-3.1254,-3.1446,-3.1967,-3.2176,-3.2281,-3.237,-3.2367,-3.2413,-3.249,-3.2255,-3.2037,-3.1945,-3.1768,-3.167,-3.167,-3.167,-3.1761,-3.1964,-3.1459,-3.1314,-3.1597,-3.139,-3.1376,-3.1511,-3.1511,-3.1436,-3.1331,0.0,0.0,0.0,0.0,0.0,-3.8871,-4.2342,0.0,-4.2851,-4.5648,-4.5065,-4.3249,-4.68,-4.716,-4.5903,0.0,-4.4646,-4.2731,0.0,0.0,0.0,0.0,0.0,0.0,0.0,0.0,0.0,0.0,0.0,0.0,-3.3425,-3.4801,0.0,0.0,0.0,0.0,0.0,0.0,0.0,0.0,0.0,0.0,0.0,0.0,0.0,0.0,0.0,0.0,0.0,0.0,-4.7519,-4.8057,-5.0218,-5.2113,-5.3462,-5.3872,-5.4103,-5.4103,-5.4103,-5.3771,-5.3123,-5.2523,-5.1875,-5.1164,-5.0595,-5.0326,-5.0326,-5.0326,-5.0587,-5.1058,-5.12,-5.1318,-5.1475,-5.1613,-5.257,-5.4035,-5.419,-5.5247,-5.668,-5.668,-5.668,-5.668,-2.8825,-2.932,-2.9843,-2.9974,-3.0289,-3.0763,-3.1532,-3.1655,-3.176,-3.2073,-3.1636,-3.1653,-3.2614,-3.213,-3.2224,-3.3401,-3.2978,-3.2726,-3.2896,-3.2675,-3.2562,-3.2562,-3.206,-3.1935,-3.2176,-3.1506,-3.1271,-3.1511,-3.1511,-3.1511,-3.1511,-3.1511,-3.1511,-3.154,0.0,0.0,0.0,0.0,-3.6118,-3.8182,-4.1519,0.0,-4.2761,-4.6411,-4.677,-4.566,-4.7981,-4.8356,-4.7593,-4.6262,-4.514,0.0,0.0,-3.8886,-3.5804,0.0,-3.332,-3.1929,0.0,0.0,0.0,-3.1824,0.0,0.0,0.0,-3.4548,0.0,0.0,0.0,0.0,0.0,0.0,0.0,0.0,0.0,0.0,0.0,0.0,0.0,0.0,0.0,0.0,0.0,0.0,-4.8772,-4.9907,-5.1048,-5.2312,-5.3667,-5.3958,-5.4103,-5.4103,-5.3771,-5.3265,-5.257,-5.1843,-5.1148,-5.0453,-5.0089,-4.9876,-4.9876,-4.9876,-5.0121,-5.0469,-5.0816,-5.1173,-5.1463,-5.1803,-5.2895,-5.4348,-5.4078,-5.4819,-5.6083,-5.6508,-5.668,-5.668,-2.9846,-3.0021,-3.0368,-3.0957,-3.1201,-3.1498,-3.2109,-3.2214,-3.2266,-3.2335,-3.1614,-3.1813,-3.3675,-3.257,-3.2536,-3.4682,-3.4253,-3.3876,-3.3862,-3.3829,-3.3639,-3.3245,-3.23,-3.1973,-3.2382,-3.153,-3.1283,-3.1668,-3.1611,-3.1597,-3.1597,-3.1524,0.0,0.0,0.0,0.0,0.0,0.0,0.0,-3.8975,0.0,-4.2536,-4.3524,-4.698,-4.8207,-4.8237,-4.9269,-4.9689,-4.9344,-4.7369,0.0,-4.4721,-4.487,-4.0846,0.0,0.0,0.0,0.0,0.0,0.0,0.0,0.0,0.0,-3.1615,0.0,0.0,0.0,0.0,0.0,0.0,0.0,0.0,0.0,0.0,0.0,0.0,0.0,0.0,0.0,0.0,0.0,0.0,0.0,0.0,-4.9326,-5.1258,-5.159,-5.234,-5.3884,-5.4044,-5.404,-5.3913,-5.3392,-5.2681,-5.1828,-5.1259,-5.0611,-4.9876,-4.9876,-4.9876,-4.9876,-4.9876,-4.9876,-4.9908,-5.0532,-5.0919,-5.1152,-5.1822,-5.2991,-5.4326,-5.42,-5.4736,-5.5652,-5.643,-5.668,-5.668,-3.0038,-3.0751,-3.1442,-3.0994,-3.1516,-3.2021,-3.2197,-3.2301,-3.2599,-3.3175,-3.325,-3.4025,-3.6077,-3.5199,-3.5024,-3.6479,-3.6689,-3.5963,-3.4184,0.0,-3.487,-3.3029,-3.2211,-3.1973,-3.2382,-3.1951,-3.1882,-3.2287,-3.2066,-3.194,-3.194,-3.1655,0.0,0.0,-3.317,0.0,0.0,0.0,-3.8871,0.0,-4.3584,-4.3898,0.0,-4.68,-4.7923,-4.7728,-5.0137,-5.099,-5.069,0.0,-4.7189,-4.5756,0.0,-4.1025,-3.7958,0.0,0.0,0.0,0.0,0.0,0.0,0.0,-3.1509,0.0,0.0,0.0,0.0,0.0,0.0,0.0,0.0,0.0,0.0,0.0,0.0,0.0,0.0,0.0,0.0,0.0,0.0,0.0,0.0,0.0,0.0,-4.9965,-5.1138,-5.2208,-5.3434,-5.3872,-5.3834,-5.3234,-5.3155,-5.246,-5.1141,-5.1062,-5.0611,-4.9876,-4.9876,-4.9876,-4.9876,-4.9876,-4.9876,-4.9876,-5.001,-5.0171,-5.0466,-5.112,-5.2083,-5.3202,-5.422,-5.5401,-5.6547,-5.6641,-5.668,-5.668,-3.1079,-3.1406,-3.1733,-3.1531,-3.1757,-3.202,-3.2179,-3.2301,-3.2599,-3.3207,-3.3389,-3.4619,-3.76,0.0,0.0,0.0,0.0,-3.8299,0.0,0.0,-3.5826,-3.4961,-3.3322,-3.2435,-3.2382,-3.2081,-3.1916,-3.1881,-3.1754,-3.1712,0.0,-3.1958,0.0,0.0,-3.32,0.0,-3.7419,0.0,0.0,0.0,0.0,0.0,0.0,-4.7908,-4.9479,-4.9568,-4.9538,-5.0242,-5.069,0.0,-4.7145,0.0,0.0,0.0,0.0,0.0,0.0,0.0,0.0,0.0,0.0,0.0,0.0,0.0,-3.4337,0.0,-3.2153,0.0,0.0,0.0,0.0,0.0,0.0,0.0,0.0,0.0,0.0,0.0,0.0,0.0,0.0,0.0,0.0,0.0,0.0,0.0,0.0,-4.9687,-5.044,-5.2015,-5.276,-5.2475,-5.208,-5.1591,-5.1015,-5.0563,-5.0216,-4.9876,-4.9876,-4.9876,-4.9876,-4.9876,-4.9876,-4.9876,-4.9876,-5.0207,-5.0721,-5.0989,-5.2329,-5.4156,-5.4696,-5.5413,-5.6286,-5.6586,-5.668,-5.668,-3.18,-3.18,-3.1837,-3.1857,-3.1893,-3.2035,-3.2423,-3.3088,-3.3839,-3.4625,-3.4842,0.0,-3.9144,-3.7995,0.0,0.0,-4.0883,-4.0468,0.0,0.0,-3.7545,0.0,0.0,0.0,0.0,-3.2761,-3.2234,-3.1994,-3.184,-3.1845,0.0,0.0,0.0,0.0,0.0,-3.4951,-3.7449,0.0,0.0,-4.298,-4.3399,-4.4616,-4.6471,-4.8805,-5.0331,-5.1035,-4.9598,-5.0002,-5.0631,-4.6711,-4.7189,0.0,-4.5442,0.0,0.0,0.0,0.0,0.0,-3.7918,0.0,0.0,0.0,0.0,0.0,0.0,0.0,0.0,0.0,0.0,0.0,0.0,0.0,0.0,-3.1331,0.0,0.0,0.0,0.0,0.0,0.0,0.0,0.0,0.0,0.0,0.0,0.0,-4.6898,0.0,-4.8435,-5.0718,-5.1922,-5.1733,-5.1227,-5.0879,-5.069,-5.0184,-4.9876,-4.9876,-4.9876,-4.9876,-4.9876,-4.9876,-4.9876,-4.9876,-4.9876,-5.0216,-5.0706,-5.0936,-5.2523,-5.4876,-5.4974,-5.566,-5.6641,-5.6915,-5.6949,-5.6872,-3.18,-3.18,-3.18,0.0,0.0,0.0,-3.3047,-3.5046,0.0,0.0,0.0,0.0,0.0,0.0,0.0,0.0,0.0,-4.2317,-4.159,0.0,-4.0467,0.0,0.0,-3.4214,0.0,0.0,-3.324,-3.324,-3.266,-3.2693,0.0,0.0,0.0,0.0,0.0,-3.4951,-3.7539,-3.9484,-4.1833,-4.4526,-4.7772,-4.9808,-5.081,0.0,-4.9538,-5.1214,-5.1154,0.0,0.0,-4.885,-4.7818,0.0,0.0,0.0,0.0,0.0,0.0,0.0,0.0,0.0,0.0,-3.8018,0.0,0.0,0.0,0.0,-3.2512,0.0,0.0,0.0,0.0,-3.154,-3.1316,-3.0657,-3.1249,0.0,0.0,0.0,0.0,0.0,0.0,0.0,0.0,0.0,0.0,0.0,-4.5603,0.0,-4.8632,-5.0814,-5.1701,-5.1062,-5.103,-5.0642,-4.9923,-4.9892,-4.9876,-4.9876,-4.9876,-4.9876,-4.9876,-4.9876,-4.9876,-4.9876,-4.9876,-4.9892,-5.001,-5.069,-5.2398,-5.4531,-5.4876,-5.6417,-5.8367,-5.7991,-5.7625,-5.7289,0.0,-3.18,0.0,0.0,0.0,0.0,0.0,-3.4569,0.0,0.0,0.0,0.0,0.0,0.0,-4.3596,0.0,0.0,-4.5634,-4.4464,-4.3722,0.0,0.0,0.0,-3.8384,0.0,0.0,-3.5595,-3.3767,-3.3565,-3.3467,-3.3442,0.0,0.0,0.0,0.0,-3.4726,0.0,0.0,0.0,0.0,0.0,-4.8626,-4.8745,0.0,0.0,-5.1214,-5.1214,-5.1214,0.0,-4.8446,-4.8641,-4.9598,-4.7848,-4.6995,-4.6935,-4.8417,-4.6219,0.0,0.0,0.0,-4.3105,-4.2207,0.0,0.0,0.0,0.0,0.0,0.0,0.0,0.0,0.0,-3.2226,-3.173,-3.1809,-3.179,-3.1709,0.0,0.0,0.0,0.0,0.0,0.0,0.0,0.0,0.0,-3.9638,-4.0986,-4.198,0.0,-4.6581,-4.8593,-4.8225,-4.9552,-5.0168,-4.9876,-4.9876,-4.9876,-4.9876,-4.9876,-4.9876,-4.9876,-4.9876,-4.9876,-4.9876,-4.9876,-4.9876,-4.9947,-5.0184,-5.1355,-5.3095,-5.4232,-5.5796,-5.7438,-5.7768,-5.7808,-5.7662,-3.2593,0.0,0.0,0.0,0.0,0.0,0.0,0.0,0.0,0.0,-4.0797,0.0,-4.3984,0.0,-4.5359,0.0,-4.6335,-4.7087,-4.6913,-4.4828,0.0,-4.6123,-4.2758,0.0,0.0,0.0,0.0,-3.649,-3.4682,-3.4228,-3.502,0.0,0.0,0.0,0.0,0.0,0.0,0.0,-4.253,0.0,0.0,-4.8446,0.0,0.0,-5.0616,-5.1214,0.0,-5.1214,-5.096,-4.9269,-4.9823,-5.093,-4.9224,-4.8985,-4.9449,-5.0016,-4.8252,-4.613,-4.6322,-4.6381,0.0,-4.496,-4.4212,0.0,-4.2605,0.0,0.0,0.0,0.0,0.0,0.0,0.0,-3.3592,-3.2946,-3.2631,-3.2341,0.0,-3.2066,0.0,0.0,0.0,0.0,0.0,0.0,-3.5079,-3.6493,-3.8067,-3.915,0.0,0.0,-4.693,-4.6803,-4.8841,-4.9876,-4.9876,-4.9876,-4.9876,-4.9876,-4.9876,-4.9876,-4.9876,-4.9876,-4.9876,-4.9876,-4.9876,-4.9876,-4.9876,-4.9876,-5.0808,-5.2356,-5.389,-5.5431,-5.6923,-5.7918,-5.8207,-5.808,0.0,0.0,0.0,0.0,-3.3731,0.0,0.0,0.0,-4.1239,0.0,-4.4221,-4.348,-4.3684,-4.3719,-4.3712,-4.3696,-4.5049,0.0,-4.8604,-4.4448,0.0,0.0,-4.3216,-4.1525,-4.4733,0.0,0.0,0.0,0.0,-3.5186,-3.7879,0.0,0.0,0.0,-3.3784,0.0,-3.3844,-3.92,-4.1976,-4.301,-4.6666,-4.9314,-5.087,-4.9,0.0,-5.1214,-5.1214,-5.1214,-5.1214,-5.1214,-5.1214,-5.1214,-5.1214,-5.1214,-5.1094,-5.042,-5.0659,-5.0765,-4.8895,-4.9269,-4.9388,-4.6277,0.0,0.0,0.0,0.0,-4.1519,0.0,0.0,0.0,0.0,0.0,-3.6641,-3.4143,-3.3727,-3.338,-3.2379,-3.2345,0.0,0.0,0.0,0.0,0.0,-3.5539,-3.618,-3.4285,-3.6909,0.0,0.0,0.0,-4.6582,-4.6787,-4.8652,-4.9742,-4.9876,-4.9852,-4.9852,-4.9876,-4.9876,-4.9876,-4.9876,-4.9876,-4.9876,-4.9876,-4.9876,-4.9876,-4.9876,-4.9876,-5.0753,-5.2248,-5.3824,-5.5434,-5.7029,-5.8479,-5.8823,-5.849,-3.4217,-3.4231,-3.4611,0.0,-3.618,-3.7887,0.0,0.0,0.0,0.0,-4.5182,-4.586,-4.3933,-4.6448,-4.7078,-4.3981,-4.595,0.0,0.0,0.0,0.0,-4.9552,-4.8098,-4.6945,-4.6281,-4.5049,0.0,-4.265,0.0,0.0,-3.8713,0.0,0.0,0.0,0.0,0.0,-3.3903,-4.0172,-4.4347,-4.6726,-4.6247,-4.7264,0.0,0.0,-4.9508,-5.1214,-5.1214,-5.1214,-5.1214,-5.1214,-5.1214,-5.1214,-5.1214,-5.1214,-5.1184,-5.0973,-5.0689,-5.033,-4.9822,-4.9628,-4.9314,-4.8506,-4.7638,-4.6875,0.0,0.0,0.0,0.0,0.0,0.0,0.0,0.0,0.0,-3.7274,-3.5279,-3.3591,-3.2904,0.0,0.0,0.0,0.0,0.0,0.0,-3.3148,-3.3475,-3.3459,-3.4872,0.0,0.0,0.0,0.0,-4.6708,-4.6532,-4.7516,-4.99,-4.9005,-4.9005,-4.9876,-4.9876,-4.9876,-4.9876,-4.9876,-4.9876,-4.9876,-4.9876,-4.9876,-4.9876,-4.9876,-5.0129,-5.0689,-5.284,-5.5301,-5.7741,-5.8668,-5.8944,-5.8806,-3.4907,0.0,0.0,-3.6149,0.0,0.0,-4.1654,0.0,0.0,-4.6126,-4.7144,0.0,-4.7095,-4.9114,-4.9567,-4.7185,-4.7597,0.0,0.0,0.0,0.0,-4.9765,-4.9363,-4.8335,-4.6834,-4.6518,0.0,-4.4523,0.0,0.0,-4.0067,0.0,0.0,0.0,0.0,-3.4073,0.0,-4.0965,-4.5514,-4.8192,-4.7055,0.0,0.0,-4.8611,-4.9508,-5.1214,-5.1214,-5.1214,-5.1214,-5.1214,-5.1214,-5.1214,-5.1214,-5.1214,-5.1154,-5.0823,-5.0689,-5.0495,-4.9972,-4.9972,-5.0047,-4.9763,-4.9359,-4.894,-4.8656,-4.7713,-4.6862,0.0,0.0,0.0,0.0,0.0,0.0,-3.8407,-3.63,-3.4577,0.0,0.0,0.0,0.0,0.0,0.0,0.0,0.0,0.0,0.0,0.0,0.0,0.0,0.0,0.0,-4.4142,-4.5667,-4.6912,-4.7866,-4.75,-4.794,-4.9131,-4.9131,-4.9409,-4.9876,-4.9876,-4.9876,-4.9876,-4.9876,-4.9876,-4.9876,-4.9876,-4.9876,-5.0168,-5.2831,-5.5525,-5.7995,-5.8737,-5.9012,-5.8978,0.0,0.0,0.0,0.0,0.0,0.0,0.0,-4.5855,0.0,-5.0665,0.0,-4.9227,-5.0989,-5.1254,-5.1263,-5.1085,0.0,-4.8966,-5.0025,-4.6586,-4.6269,-5.0168,-4.9061,-4.8051,-4.7498,-4.6819,0.0,0.0,0.0,0.0,0.0,0.0,0.0,0.0,0.0,0.0,0.0,-4.1564,-4.5618,0.0,-4.8282,-4.9314,-5.0676,-4.9224,-4.9733,-5.1214,-5.1214,-5.1214,-5.1214,-5.1214,-5.1214,-5.1214,-5.1214,-5.1214,-5.1109,-5.048,-5.0719,-5.0975,-4.9838,-5.0361,-5.1079,-5.0465,-5.0749,-5.1065,-5.045,-5.0315,-5.0315,-5.0315,-4.9912,-4.9149,0.0,0.0,0.0,-3.8722,0.0,0.0,0.0,0.0,0.0,0.0,0.0,0.0,0.0,0.0,0.0,0.0,0.0,0.0,0.0,0.0,0.0,-4.123,-4.5206,0.0,-4.5496,0.0,-4.6989,-4.838,-4.8189,-4.8726,-4.9876,-4.9876,-4.9876,-4.9876,-4.9876,-4.9876,-4.9876,-4.9876,-4.9955,-5.0341,-5.3234,-5.5692,-5.7688,-5.8565,-5.8926,-5.9012,0.0,0.0,0.0,0.0,0.0,-4.3871,-4.8321,-5.0718,-5.1623,-5.0521,-5.1606,0.0,-5.0609,-5.1385,-5.1567,-5.0367,-5.0517,0.0,0.0,0.0,0.0,-5.2598,-5.1272,-5.0642,-5.1085,-5.0421,-5.0121,0.0,0.0,0.0,-4.2762,0.0,0.0,0.0,0.0,0.0,-4.1833,-4.1878,0.0,-4.8282,-4.8282,-4.8491,-4.894,-5.0212,-5.0915,-5.1214,-5.1214,-5.1214,-5.1214,-5.1214,-5.1214,-5.1214,-5.1214,-5.1214,-5.1199,-5.1079,-5.1124,-5.1169,-5.0945,-5.105,-5.1184,-5.1065,-5.1124,-5.1184,-5.1065,-5.1003,-5.1003,-5.1003,-5.096,-5.0646,-4.9822,0.0,0.0,0.0,0.0,0.0,0.0,0.0,0.0,0.0,0.0,0.0,0.0,0.0,0.0,0.0,0.0,0.0,0.0,0.0,0.0,0.0,0.0,0.0,0.0,0.0,-4.7536,-4.9919,-4.8666,-4.8726,-4.9876,-4.9876,-4.9876,-4.9876,-4.9876,-4.9876,-4.9876,-4.9876,-5.0292,-5.1086,-5.2893,-5.4563,-5.6183,-5.7586,-5.8495,-5.9012,0.0,0.0,0.0,0.0,0.0,0.0,0.0,-5.2942,0.0,-5.3183,-5.392,-5.45,-5.4262,-5.4429,-5.4459,-5.4127,-5.3432,-5.2973,-5.2821,-5.1453,-5.1102,-5.2053,-5.1724,0.0,-4.99,-5.0943,-5.0816,-4.9378,0.0,0.0,-4.2834,-3.8013,0.0,0.0,0.0,-3.9555,0.0,0.0,0.0,-4.9101,-4.9867,-5.0155,-5.0261,-5.0948,-5.1214,-5.1214,-5.1214,-5.1214,-5.1214,-5.1214,-5.1214,-5.1214,-5.1214,-5.1214,-5.1214,-5.1214,-5.1214,-5.1214,-5.1214,-5.1214,-5.1214,-5.1214,-5.1214,-5.1214,-5.1214,-5.1214,-5.1214,-5.1214,-5.1214,-5.081,-4.9479,-4.7572,0.0,0.0,0.0,0.0,0.0,0.0,0.0,0.0,0.0,0.0,0.0,0.0,0.0,0.0,0.0,0.0,0.0,0.0,0.0,0.0,0.0,0.0,0.0,0.0,0.0,-4.9149,-4.8427,-4.8726,-4.9876,-4.9876,-4.9876,-4.9876,-4.9876,-4.9876,-4.9876,-4.9876,-5.037,-5.1258,-5.2798,-5.4307,-5.5788,-5.7312,-5.8374,-5.9012,0.0,-4.1405,0.0,0.0,-4.5768,0.0,0.0,-5.4218,-5.6271,-5.6115,-5.6098,-5.6611,-5.7979,-5.7464,-5.7021,-5.7051,-5.6007,-5.4802,-5.3459,-5.2574,-5.1841,-5.1304,-5.1862,-5.129,-4.9268,-5.1211,-5.118,0.0,0.0,0.0,0.0,-3.9645,0.0,0.0,0.0,0.0,0.0,0.0,-4.9882,-5.0291,-5.1439,-5.1849,-5.1711,-5.1354,-5.1214,-5.1214,-5.1214,-5.1214,-5.1214,-5.1214,-5.1214,-5.1214,-5.1214,-5.1214,-5.1214,-5.1214,-5.1214,-5.1214,-5.1214,-5.1214,-5.1214,-5.1214,-5.1214,-5.1214,-5.1214,-5.1214,-5.1214,-5.1214,-5.1214,-5.075,-4.9194,-4.8784,0.0,0.0,0.0,0.0,0.0,0.0,0.0,0.0,0.0,0.0,0.0,0.0,0.0,0.0,0.0,0.0,-3.6372,-3.8357,0.0,0.0,0.0,-4.4384,-4.4968,0.0,-4.6909,0.0,-4.8253,-4.8726,-4.9876,-4.9876,-4.9876,-4.9876,-4.9876,-4.9876,-4.9876,-4.9876,-5.0292,-5.107,-5.258,-5.4121,-5.5667,-5.7174,-5.8304,-5.9132,0.0,0.0,0.0,0.0,0.0,0.0,0.0,-5.5339,-5.5443,-5.7426,-5.7669,-5.7997,-5.8823,-5.8196,-5.6881,-5.4886,-5.6425,-5.5499,-5.0714,-5.3324,-5.4196,-5.2165,-5.2649,-5.3171,-5.3502,-5.3186,-5.287,0.0,0.0,0.0,0.0,0.0,0.0,0.0,0.0,0.0,0.0,-4.9257,-5.0481,-5.1714,-5.185,-5.1665,-5.1261,-5.1214,-5.1214,-5.1214,-5.1214,-5.1214,-5.1214,-5.1214,-5.1214,-5.1214,-5.1214,-5.1214,-5.1214,-5.1214,-5.1214,-5.1214,-5.1214,-5.1214,-5.1214,-5.1214,-5.1214,-5.1214,-5.1214,-5.1214,-5.1214,-5.1214,-5.1214,-5.1154,-5.0975,-4.9223,-4.7081,0.0,0.0,0.0,0.0,0.0,0.0,0.0,0.0,0.0,0.0,0.0,0.0,0.0,0.0,-3.5953,-3.723,-3.7297,-3.8185,-4.0128,0.0,-4.217,-4.4267,-4.4952,0.0,-5.0094,-4.8729,-4.8726,-4.9876,-4.9876,-4.9876,-4.9876,-4.9876,-4.9876,-4.9876,-4.9876,-5.0089,-5.0518,-5.1786,-5.3492,-5.5299,-5.6606,-5.8137,-5.9504,0.0,0.0,0.0,0.0,0.0,0.0,0.0,-5.6736,-5.7547,-5.8443,-5.8564,-5.8685,-5.8978,-5.8719,-5.8168,-5.7261,-5.7997,-5.7231,-5.417,-5.5338,-5.5142,-5.2828,-5.3339,-5.3645,-5.3502,-5.3629,-5.3502,0.0,0.0,0.0,0.0,0.0,0.0,0.0,0.0,-4.8809,-4.9838,-5.159,-5.2672,-5.3142,-5.2622,-5.2261,-5.2033,-5.1448,-5.1214,-5.1214,-5.1214,-5.1214,-5.1214,-5.1214,-5.1214,-5.1214,-5.1214,-5.1214,-5.1214,-5.1214,-5.1214,-5.1214,-5.1214,-5.1214,-5.1214,-5.1214,-5.1214,-5.1214,-5.1214,-5.1214,-5.1214,-5.1214,-5.1214,-5.1214,-5.1214,-5.0576,-4.9357,0.0,0.0,0.0,0.0,0.0,0.0,0.0,0.0,0.0,0.0,0.0,0.0,0.0,0.0,0.0,-3.6893,-3.8057,-3.9777,-4.2178,0.0,-4.471,-4.7575,-4.7161,-4.7983,-5.005,-4.948,-4.9511,-5.0129,-4.9971,-4.9876,-4.9876,-4.9876,-5.001,-5.0129,-5.0129,-5.0262,-5.0573,-5.1549,-5.3208,-5.5228,-5.6167,-5.7819,-5.9603,-5.3563,0.0,-5.2235,0.0,-5.4443,-5.5615,-5.5926,-5.7702,-5.8857,-5.8426,-5.8737,-5.9012,-5.9012,-5.9012,-5.8737,-5.8064,-5.8633,-5.7771,-5.4887,-5.5901,-5.5378,-5.2606,-5.3518,0.0,-5.3408,-5.3866,-5.3866,-5.3392,-5.0405,0.0,0.0,0.0,0.0,0.0,-5.0096,-5.1253,-5.1623,-5.337,-5.4001,-5.3829,-5.3157,-5.2846,-5.2622,-5.1895,-5.1526,-5.1401,-5.1401,-5.1308,-5.1214,-5.1214,-5.1214,-5.1214,-5.1214,-5.1214,-5.1214,-5.1214,-5.1214,-5.1214,-5.1214,-5.1214,-5.1214,-5.1214,-5.1214,-5.1214,-5.1214,-5.1214,-5.1214,-5.1214,-5.1214,-5.1214,-5.1214,-5.1401,-5.0939,-4.8862,0.0,0.0,0.0,0.0,0.0,0.0,0.0,-4.2651,-4.4859,0.0,0.0,0.0,0.0,0.0,-3.6983,-3.8224,0.0,0.0,0.0,0.0,0.0,-4.7532,-4.8152,-4.9876,-4.9971,-5.0089,-5.0184,-5.001,-4.9876,-4.9876,-4.9876,-5.001,-5.0184,-5.0262,-5.0418,-5.065,-5.1397,-5.3135,-5.5353,-5.6013,-5.7769,-5.9751,-5.6736,-5.6736,-5.6943,-5.7702,-5.784,-5.7633,-5.6891,-5.8064,-5.8478,-5.7012,-5.8116,-5.9012,-5.9012,-5.9012,-5.8099,-5.5824,-5.7719,-5.6491,-5.0555,-5.4212,-5.4943,0.0,0.0,-5.4103,-5.4087,-5.4103,-5.4103,-5.4087,0.0,0.0,-4.7877,0.0,-4.8936,-5.1006,-5.3107,-5.4055,-5.4055,-5.4087,-5.3829,-5.3421,-5.3393,-5.3113,-5.2712,-5.2667,-5.2336,-5.1895,-5.1895,-5.1572,-5.1214,-5.1214,-5.1214,-5.1214,-5.1214,-5.1214,-5.1214,-5.1214,-5.1214,-5.1214,-5.1214,-5.1214,-5.1214,-5.1214,-5.1214,-5.1214,-5.1214,-5.1214,-5.1214,-5.1214,-5.1214,-5.1214,-5.1214,-5.1401,-5.0893,-4.864,0.0,0.0,0.0,0.0,0.0,0.0,-4.1496,-4.0628,-4.2834,0.0,0.0,0.0,0.0,0.0,0.0,0.0,0.0,-3.988,-3.9188,0.0,-4.3947,-4.4801,-4.6816,-4.9876,-5.0168,-5.0184,-4.9916,-4.9876,-4.9876,-4.9876,-4.9876,-4.9876,-4.9931,-5.0184,-5.0418,-5.065,-5.1397,-5.3299,-5.567,-5.6268,-5.8031,-6.0057,-5.4684,-5.6546,-5.8064,-5.7288,-5.7978,-5.8581,-5.834,-5.8719,-5.884,-5.8374,-5.8719,-5.9012,-5.9012,-5.9012,-5.8719,0.0,-5.7167,-5.6065,0.0,-5.4353,-5.3928,-5.3144,-5.2381,-5.197,-5.197,-5.197,-5.197,-5.197,0.0,0.0,0.0,-4.9995,-5.1101,-5.3123,-5.3803,-5.4103,-5.4103,-5.4103,-5.4001,-5.3872,-5.3509,-5.329,-5.3157,-5.2846,-5.2562,-5.2442,-5.2442,-5.2124,-5.1665,-5.1665,-5.1433,-5.1214,-5.1214,-5.1214,-5.1214,-5.1214,-5.1214,-5.1214,-5.1214,-5.1214,-5.1214,-5.1214,-5.1214,-5.1214,-5.1214,-5.1214,-5.1214,-5.1214,-5.1214,-5.1214,-5.1214,-5.1261,-5.0663,-4.8655,-4.9449,0.0,0.0,0.0,0.0,0.0,0.0,-4.3698,0.0,-4.2965,0.0,0.0,0.0,0.0,0.0,0.0,0.0,0.0,-4.4665,0.0,-4.7985,-4.7474,-4.8104,-4.9876,-5.001,-5.0089,-5.0184,-5.0457,-5.0418,-5.0168,-5.0168,-5.0262,-5.0379,-5.0301,-5.0573,-5.1032,-5.1108,-5.236,-5.4257,-5.5449,-5.7054,-5.8737,-5.5684,-5.7409,-5.8719,-5.7788,-5.8392,-5.8823,-5.8271,-5.865,-5.8806,-5.8254,-5.8668,-5.9012,-5.9012,-5.9012,0.0,-5.9012,-5.7719,-5.6918,-5.7047,-5.5716,-5.4967,-5.5026,-5.3802,-5.2933,-5.2612,0.0,0.0,-5.2144,-5.2144,-5.2144,-5.2144,-5.2144,-5.2855,-5.4103,-5.4103,-5.4103,-5.4103,-5.4103,-5.4103,-5.4044,-5.3785,-5.364,-5.364,-5.3334,-5.3113,-5.298,-5.298,-5.2517,-5.1895,-5.1895,-5.1572,-5.1214,-5.1214,-5.1214,-5.1214,-5.1214,-5.1214,-5.1214,-5.1214,-5.1214,-5.1214,-5.1214,-5.1214,-5.1214,-5.1214,-5.1214,-5.1214,-5.1214,-5.1214,-5.1214,-5.1214,-5.1214,-5.081,-4.9583,-5.0559,-5.0981,-4.9553,0.0,0.0,0.0,0.0,0.0,0.0,-4.5631,0.0,0.0,0.0,0.0,0.0,0.0,0.0,-4.5143,-4.6203,0.0,-4.8939,-4.8562,-4.8961,-5.0168,-5.0168,-5.0301,-5.0534,-5.0705,-5.0666,-5.0418,-5.0418,-5.0496,-5.0589,-5.0457,-5.0689,-5.1086,-5.095,-5.1911,-5.3565,-5.4659,-5.6252,-5.8059,-5.8719,-5.8875,0.0,0.0,-5.8944,0.0,-5.7167,-5.8133,-5.8512,-5.7133,-5.815,-5.9012,-5.9012,-5.9012,-5.9012,-5.9012,0.0,0.0,0.0,-5.7662,-5.7278,-5.6652,-5.6465,-5.6017,-5.5191,-5.5126,-5.4773,-5.4103,-5.4103,-5.4103,-5.4103,-5.4103,-5.4103,-5.4103,-5.4103,-5.4103,-5.4103,-5.4103,-5.4103,-5.4103,-5.4103,-5.4103,-5.4103,-5.4103,-5.3829,-5.3465,-5.3465,-5.2846,-5.1972,-5.1972,-5.1711,-5.1308,-5.1308,-5.1308,-5.1308,-5.1214,-5.1214,-5.1214,-5.1214,-5.1214,-5.1214,-5.1214,-5.1214,-5.1214,-5.1214,-5.1214,-5.1214,-5.1214,-5.1214,-5.1214,-5.1214,-5.1214,-5.1214,-5.1214,-5.1214,-5.1169,-5.1035,0.0,0.0,0.0,0.0,0.0,0.0,-4.7731,-4.7219,0.0,0.0,0.0,0.0,0.0,-4.1289,-4.3698,-4.4749,-4.6036,-4.7577,-4.84,-4.9432,-5.0589,-5.0628,-5.0705,-5.0912,-5.0705,-5.0628,-5.0589,-5.0589,-5.0589,-5.0589,-5.0589,-5.0705,-5.0912,-5.0912,-5.1841,-5.3324,-5.3946,-5.5656,-5.7734,0.0,0.0,-5.865,-5.7529,-5.8254,-5.8892,-5.8547,-5.8788,-5.8875,-5.853,-5.8788,-5.9012,-5.9012,-5.9012,-5.9012,-5.9012,-5.7426,-5.6798,-5.7732,-5.6188,-5.5629,-5.6547,-5.5082,-5.4129,-5.3927,-5.3269,-5.3327,-5.4103,-5.4103,-5.4103,-5.4103,-5.4103,-5.4103,-5.4103,-5.4103,-5.4103,-5.4103,-5.4103,-5.4103,-5.4103,-5.4103,-5.4103,-5.4103,-5.4103,-5.4044,-5.3915,-5.3915,-5.3552,-5.3053,-5.3053,-5.2742,-5.2352,-5.2352,-5.2352,-5.2215,-5.1448,-5.1214,-5.1214,-5.1214,-5.1214,-5.1214,-5.1214,-5.1214,-5.1214,-5.1214,-5.1214,-5.1214,-5.1214,-5.1214,-5.1214,-5.1214,-5.1214,-5.1214,-5.1214,-5.1354,-5.0922,-4.9239,-4.8699,0.0,0.0,-4.6978,-4.7742,-4.8115,-4.9,-4.8865,0.0,0.0,0.0,0.0,-4.4601,-4.5033,-4.7287,-4.7965,-4.8608,-4.9305,-4.9866,-5.0275,-5.0589,-5.0743,-5.0858,-5.0896,-5.101,-5.088,-5.0589,-5.0589,-5.0512,-5.0379,-5.0379,-5.0589,-5.0912,-5.0912,-5.1259,-5.1908,-5.3603,-5.4582,-5.5434,-5.6736,-5.7892,-5.8754,-5.7961,-5.8478,-5.9012,-5.9012,-5.9012,-5.9012,-5.9012,-5.9012,-5.9012,-5.9012,-5.9012,-5.9012,-5.9012,-5.7874,-5.7499,-5.8301,-5.7191,-5.6845,-5.7654,-5.6611,-5.5827,-5.5451,-5.4637,-5.4179,-5.4103,-5.4103,-5.4103,-5.4103,-5.4103,-5.4103,-5.4103,-5.4103,-5.4103,-5.4103,-5.4103,-5.4103,-5.4103,-5.4103,-5.4103,-5.4103,-5.4103,-5.4103,-5.4103,-5.4103,-5.3785,-5.3377,-5.3377,-5.3069,-5.2712,-5.2712,-5.2712,-5.2577,-5.2033,-5.1711,-5.1526,-5.1526,-5.1354,-5.1214,-5.1214,-5.1214,-5.1214,-5.1214,-5.1214,-5.1214,-5.1214,-5.1214,-5.1214,-5.1214,-5.1214,-5.1214,-5.1214,-5.0604,-4.9674,-4.8476,-4.7619,0.0,-4.6723,-4.7623,-4.8641,-4.9538,-5.0272,-5.0107,-4.882,0.0,0.0,-4.7102,-4.5839,-4.6183,-4.8517,-4.9072,-4.9557,-5.0018,-5.0596,-5.088,-5.0896,-5.0956,-5.1048,-5.1048,-5.1146,-5.107,-5.088,-5.0781,-5.0666,-5.055,-5.0379,-5.055,-5.0912,-5.0781,-5.0934,-5.1403,-5.2973,-5.3834,-5.4549,-5.9012,-5.9012,-5.9012,-5.9012,-5.9012,-5.9012,-5.9012,-5.9012,-5.9012,-5.9012,-5.9012,-5.9012,-5.9012,-5.9012,-5.9012,-5.9012,-5.9012,-5.9012,-5.9012,-5.9012,-5.9012,-5.9012,-5.9012,-5.8667,-5.7995,-5.7055,-5.5789,-5.4103,-5.4103,-5.4103,-5.4103,-5.4103,-5.4103,-5.4103,-5.4103,-5.4103,-5.4103,-5.4103,-5.4103,-5.4103,-5.4103,-5.4103,-5.4103,-5.4103,-5.4103,-5.4103,-5.4103,-5.3829,-5.3509,-5.3509,-5.3246,-5.2891,-5.2891,-5.2891,-5.2891,-5.2891,-5.2532,-5.2063,-5.1941,-5.1572,-5.1214,-5.1214,-5.1214,-5.1214,-5.1214,-5.1214,-5.1214,-5.1214,-5.1214,-5.1214,-5.1214,-5.1214,-5.1124,-5.0825,-4.9374,-4.8177,-4.7878,0.0,-4.6381,-4.8087,-4.8595,-4.9434,-5.1096,-5.1323,-5.1083,-5.0528,-4.8395,-4.7636,0.0,-4.6641,-4.6392,-4.8475,-4.899,-4.9582,-5.0237,-5.0902,-5.1183,-5.1183,-5.1183,-5.1183,-5.1183,-5.1183,-5.1183,-5.1146,-5.0934,-5.0836,-5.0781,-5.0418,-5.0496,-5.0797,-5.0705,-5.0858,-5.1296,-5.2381,-5.3309,-5.4277,-5.8995,-5.9012,-5.9012,-5.9012,-5.9012,-5.9012,-5.9012,-5.9012,-5.9012,-5.9012,-5.9012,-5.9012,-5.9012,-5.9012,-5.9012,-5.9012,-5.9012,-5.9012,-5.9012,-5.9012,-5.9012,-5.9012,-5.9012,-5.8944,-5.8823,-5.7355,-5.5789,-5.4103,-5.4103,-5.4103,-5.4103,-5.4103,-5.4103,-5.4103,-5.4103,-5.4103,-5.4103,-5.4103,-5.4103,-5.4103,-5.4103,-5.4103,-5.4103,-5.4103,-5.4103,-5.4103,-5.4103,-5.4044,-5.4001,-5.4001,-5.3958,-5.3872,-5.3872,-5.3872,-5.3872,-5.3872,-5.3552,-5.298,-5.2109,-5.1572,-5.1214,-5.1214,-5.1214,-5.1214,-5.1214,-5.1214,-5.1214,-5.1214,-5.1214,-5.1214,-5.1214,-5.1214,-5.0676,-4.9015,-4.8491,-4.7698,-4.5992,0.0,-4.7938,-4.8252,-4.993,-5.1194,-5.1511,-5.1741,-5.1803,-5.1743,-5.0319,-4.9575,-4.9787,-4.8514,-4.7965,-4.8313,-4.8744,-4.9446,-5.0432,-5.094,-5.1183,-5.1183,-5.1183,-5.1183,-5.1183,-5.1183,-5.1124,-5.095,-5.0743,-5.055,-5.0379,-5.034,-5.034,-5.0418,-5.0743,-5.0896,-5.1124,-5.2345,-5.2903,-5.3312,-5.8875,-5.8909,-5.8927,-5.8978,-5.9012,-5.9012,-5.9012,-5.9012,-5.9012,-5.9012,-5.9012,-5.9012,-5.9012,-5.9012,-5.9012,-5.9012,-5.9012,-5.9012,-5.9012,-5.9012,-5.9012,-5.9012,-5.9012,-5.8597,-5.7741,-5.6996,-5.5789,-5.4103,-5.4103,-5.4103,-5.4103,-5.4103,-5.4103,-5.4103,-5.4103,-5.4103,-5.4103,-5.4103,-5.4103,-5.4103,-5.4103,-5.4103,-5.4103,-5.4103,-5.4103,-5.4103,-5.4103,-5.4103,-5.4103,-5.4103,-5.4103,-5.4103,-5.4103,-5.4103,-5.4103,-5.4103,-5.3785,-5.3201,-5.2155,-5.1757,-5.1526,-5.1261,-5.1214,-5.1214,-5.1214,-5.1214,-5.1214,-5.1214,-5.1214,-5.1214,-5.1214,-5.1214,-5.093,-5.0017,-4.897,0.0,0.0,-4.7698,-4.8282,-4.8282,-5.0109,-5.1448,-5.1587,-5.1726,-5.1834,-5.2002,-5.0757,-5.0042,-5.0144,-4.8993,-4.837,-4.8453,-4.8908,-4.9477,-5.0175,-5.0618,-5.094,-5.1183,-5.1183,-5.1146,-5.1048,-5.1048,-5.0934,-5.0743,-5.055,-5.0395,-5.0301,-5.0129,-5.0168,-5.034,-5.0628,-5.0781,-5.101,-5.2004,-5.254,-5.304,-5.8683,-5.8718,-5.8771,-5.8927,-5.8961,-5.8944,-5.9012,-5.9012,-5.9012,-5.9012,-5.9012,-5.9012,-5.9012,-5.9012,-5.9012,-5.9012,-5.9012,-5.9012,-5.9012,-5.9012,-5.9012,-5.9012,-5.9012,-5.8334,-5.692,-5.6691,-5.5868,-5.4354,-5.4173,-5.4103,-5.4103,-5.4103,-5.4103,-5.4103,-5.4103,-5.4103,-5.4103,-5.4103,-5.4103,-5.4103,-5.4103,-5.4103,-5.4103,-5.4103,-5.4103,-5.4103,-5.4103,-5.4103,-5.4103,-5.4103,-5.4103,-5.4103,-5.4103,-5.4103,-5.4103,-5.4103,-5.3829,-5.3334,-5.2336,-5.1972,-5.1803,-5.1308,-5.1214,-5.1214,-5.1214,-5.1214,-5.1214,-5.1214,-5.1214,-5.1214,-5.1214,-5.1214,-5.1065,-5.0616,0.0,0.0,0.0,-4.8282,-4.8461,-4.891,-5.0393,-5.1463,-5.168,-5.1772,-5.1926,-5.2124,-5.0936,-5.0203,-5.0391,-4.9105,-4.8453,-4.862,-4.9072,-4.9477,-4.9892,-5.0292,-5.0733,-5.1183,-5.1183,-5.1108,-5.0988,-5.0896,-5.0836,-5.0666,-5.0418,-5.0301,-5.0262,-5.001,-5.001,-5.0223,-5.0512,-5.0705,-5.0934,-5.1639,-5.231,-5.2955,-5.849,-5.8525,-5.8596,-5.8788,-5.8823,-5.884,-5.8978,-5.9012,-5.9012,-5.9012,-5.9012,-5.9012,-5.9012,-5.9012,-5.9012,-5.9012,-5.9012,-5.9012,-5.9012,-5.9012,-5.9012,-5.9012,-5.9012,-5.8597,-5.7741,-5.698,-5.6129,-5.5231,-5.4481,-5.4103,-5.4103,-5.4103,-5.4103,-5.4103,-5.4103,-5.4103,-5.4103,-5.4103,-5.4103,-5.4103,-5.4103,-5.4103,-5.4103,-5.4103,-5.4103,-5.4103,-5.4103,-5.4103,-5.4103,-5.4103,-5.4103,-5.4103,-5.4103,-5.4103,-5.4103,-5.4103,-5.4103,-5.3829,-5.2891,-5.2306,-5.1803,-5.1308,-5.1214,-5.1214,-5.1214,-5.1214,-5.1214,-5.1214,-5.1214,-5.1214,-5.1214,-5.1214,-5.0616,-4.8805,0.0,0.0,-4.8282,-4.8282,-4.897,-5.078,-5.1558,-5.1956,-5.1987,-5.2352,-5.2624,-5.2669,-5.1423,-5.0654,-5.0697,-4.9332,-4.8563,-4.862,-4.9072,-4.9477,-4.9892,-5.0292,-5.0733,-5.1183,-5.1183,-5.1183,-5.1183,-5.0972,-5.0912,-5.0874,-5.0473,-5.0301,-5.0262,-5.001,-4.9916,-4.9971,-5.0418,-5.0628,-5.0689,-5.1471,-5.2167,-5.2871,-5.826,-5.8295,-5.8384,-5.8561,-5.8596,-5.8631,-5.8684,-5.8684,-5.8719,-5.8875,-5.8875,-5.8892,-5.8978,-5.9012,-5.9012,-5.9012,-5.9012,-5.9012,-5.9012,-5.9012,-5.9012,-5.9012,-5.9012,-5.8632,-5.7814,-5.752,-5.6679,-5.5296,-5.5001,-5.4591,-5.4103,-5.4103,-5.4103,-5.4103,-5.4103,-5.4103,-5.4103,-5.4103,-5.4103,-5.4103,-5.4103,-5.4103,-5.4103,-5.4103,-5.4103,-5.4103,-5.4103,-5.4103,-5.4103,-5.4103,-5.4103,-5.4103,-5.4103,-5.4103,-5.4103,-5.4103,-5.4103,-5.3958,-5.329,-5.2742,-5.2246,-5.1757,-5.1401,-5.1214,-5.1214,-5.1214,-5.1214,-5.1214,-5.1214,-5.1214,-5.1214,-5.1214,-5.0975,-5.0227,0.0,-5.0107,-5.0107,-5.0107,-5.0376,-5.1124,-5.1541,-5.1834,-5.1987,-5.2291,-5.2503,-5.2713,-5.1467,-5.0697,-5.0697,-4.9374,-4.862,-4.862,-4.8785,-4.9072,-4.9517,-4.9916,-5.0347,-5.0771,-5.1054,-5.1108,-5.101,-5.0934,-5.082,-5.0705,-5.0418,-5.0301,-5.0262,-5.001,-4.9876,-4.9971,-5.0418,-5.0496,-5.0496,-5.1016,-5.1786,-5.2629,-5.808,-5.8116,-5.8188,-5.8384,-5.8419,-5.8419,-5.849,-5.849,-5.8561,-5.8683,-5.8718,-5.8771,-5.8927,-5.8927,-5.8944,-5.9012,-5.9012,-5.9012,-5.9012,-5.9012,-5.9012,-5.9012,-5.9012,-5.8754,-5.8192,-5.7923,-5.7226,-5.608,-5.5579,-5.5042,-5.4465,-5.4215,-5.4103,-5.4103,-5.4103,-5.4103,-5.4103,-5.4103,-5.4103,-5.4103,-5.4103,-5.4103,-5.4103,-5.4103,-5.4103,-5.4103,-5.4103,-5.4103,-5.4103,-5.4103,-5.4103,-5.4103,-5.4103,-5.4103,-5.4103,-5.4103,-5.4103,-5.4044,-5.3699,-5.329,-5.2757,-5.2079,-5.1526,-5.1214,-5.1214,-5.1214,-5.1214,-5.1214,-5.1214,-5.1214,-5.1214,-5.1214,-5.1214,-5.1214,-5.1214,-5.1214,-5.1214,-5.1214,-5.1214,-5.1214,-5.1448,-5.168,-5.1849,-5.2063,-5.2322,-5.2563,-5.1304,-5.0411,-5.0066,-4.9127,-4.862,-4.862,-4.862,-4.8826,-4.9275,-4.9677,-5.0191,-5.0717,-5.1054,-5.1124,-5.0972,-5.095,-5.0781,-5.0589,-5.0379,-5.0262,-5.0168,-4.9971,-4.9876,-4.9931,-5.034,-5.0418,-5.034,-5.0666,-5.1529,-5.2507,-5.7881,-5.7881,-5.7954,-5.8152,-5.8188,-5.826,-5.8455,-5.849,-5.849,-5.849,-5.849,-5.8561,-5.8788,-5.8788,-5.884,-5.8978,-5.9012,-5.9012,-5.9012,-5.9012,-5.9012,-5.9012,-5.9012,-5.9012,-5.9012,-5.8227,-5.7814,-5.7814,-5.6119,-5.5296,-5.5296,-5.4465,-5.4103,-5.4103,-5.4103,-5.4103,-5.4103,-5.4103,-5.4103,-5.4103,-5.4103,-5.4103,-5.4103,-5.4103,-5.4103,-5.4103,-5.4103,-5.4103,-5.4103,-5.4103,-5.4103,-5.4103,-5.4103,-5.4103,-5.4103,-5.4103,-5.4103,-5.4103,-5.4103,-5.3742,-5.3157,-5.2155,-5.1572,-5.1214,-5.1214,-5.1214,-5.1214,-5.1214,-5.1214,-5.1214,-5.1214,-5.1214,-5.1214,-5.1214,-5.1214,-5.1214,-5.1214,-5.1214,-5.1214,-5.1214,-5.1448,-5.1587,-5.1587,-5.1834,-5.2063,-5.2306,-5.1053,-4.9794,-4.864,-4.862,-4.862,-4.862,-4.862,-4.8826,-4.9275,-4.9677,-5.0363,-5.1183,-5.1183,-5.1183,-5.1183,-5.0972,-5.0781,-5.0589,-5.0379,-5.0129,-4.9876,-4.9876,-4.9876,-4.9931,-5.0223,-5.0301,-5.0301,-5.0496,-5.1417,-5.2472,-5.7881,-5.7881,-5.7918,-5.7971,-5.8007,-5.8007,-5.808,-5.808,-5.8116,-5.826,-5.8295,-5.8384,-5.8561,-5.8596,-5.8666,-5.884,-5.8875,-5.8892,-5.8978,-5.9012,-5.9012,-5.9012,-5.9012,-5.9012,-5.9012,-5.8754,-5.8386,-5.7814,-5.7301,-5.6432,-5.5296,-5.5026,-5.4617,-5.4103,-5.4103,-5.4103,-5.4103,-5.4103,-5.4103,-5.4103,-5.4103,-5.4103,-5.4103,-5.4103,-5.4103,-5.4103,-5.4103,-5.4103,-5.4103,-5.4103,-5.4103,-5.4103,-5.4103,-5.4103,-5.4103,-5.4103,-5.4103,-5.4103,-5.4103,-5.3742,-5.3334,-5.3024,-5.2336,-5.1711,-5.1711,-5.1448,-5.1214,-5.1214,-5.1214,-5.1214,-5.1214,-5.1214,-5.1214,-5.1214,-5.1214,-5.1214,-5.1214,-5.1214,-5.1214,-5.1214,-5.1448,-5.1587,-5.1587,-5.1834,-5.2033,-5.2063,-5.0832,-4.9609,-4.8446,-4.837,-4.8453,-4.862,-4.862,-4.8826,-4.9275,-4.9677,-5.0152,-5.0733,-5.1054,-5.1183,-5.1183,-5.0972,-5.0874,-5.0781,-5.0457,-5.0262,-5.0184,-4.9971,-4.9876,-4.9931,-5.0223,-5.0184,-5.005,-5.0301,-5.087,-5.1606,-5.7881,-5.7881,-5.7881,-5.7881,-5.7881,-5.7881,-5.7881,-5.7881,-5.7918,-5.808,-5.808,-5.8152,-5.8367,-5.8384,-5.8455,-5.8666,-5.8683,-5.8736,-5.8892,-5.8927,-5.8961,-5.9012,-5.9012,-5.9012,-5.9012,-5.9012,-5.8754,-5.8263,-5.7959,-5.7264,-5.6276,-5.5619,-5.5042,-5.4549,-5.4242,-5.4103,-5.4103,-5.4103,-5.4103,-5.4103,-5.4103,-5.4103,-5.4103,-5.4103,-5.4103,-5.4103,-5.4103,-5.4103,-5.4103,-5.4103,-5.4103,-5.4103,-5.4103,-5.4103,-5.4103,-5.4103,-5.4103,-5.4103,-5.4103,-5.3872,-5.3699,-5.3699,-5.2786,-5.1895,-5.1895,-5.1541,-5.1214,-5.1214,-5.1214,-5.1214,-5.1214,-5.1214,-5.1214,-5.1214,-5.1214,-5.1214,-5.1214,-5.1214,-5.1214,-5.1214,-5.1354,-5.1448,-5.1448,-5.1602,-5.153,-5.1182,-5.0527,-4.9609,-4.8488,-4.8412,-4.8453,-4.862,-4.862,-4.8826,-4.9275,-4.9557,-4.9939,-5.0509,-5.0902,-5.1086,-5.1086,-5.0858,-5.0743,-5.0666,-5.0418,-5.0223,-5.0129,-4.9971,-4.9876,-4.9931,-5.0089,-5.005,-4.9916,-5.0207,-5.0656,-5.1215,-5.7881,-5.7881,-5.7881,-5.7881,-5.7881,-5.7881,-5.7881,-5.7881,-5.7881,-5.7881,-5.7881,-5.7954,-5.8152,-5.8188,-5.826,-5.8455,-5.849,-5.8561,-5.8753,-5.8788,-5.884,-5.8944,-5.8944,-5.8944,-5.8944,-5.8978,-5.9012,-5.9012,-5.8263,-5.785,-5.7741,-5.6198,-5.5418,-5.5231,-5.4523,-5.4146,-5.4103,-5.4103,-5.4103,-5.4103,-5.4103,-5.4103,-5.4103,-5.4103,-5.4103,-5.4103,-5.4103,-5.4103,-5.4103,-5.4103,-5.4103,-5.4103,-5.4103,-5.4103,-5.4103,-5.4103,-5.4103,-5.4103,-5.4103,-5.4103,-5.4103,-5.4103,-5.3069,-5.2018,-5.1987,-5.1618,-5.1261,-5.1214,-5.1214,-5.1214,-5.1214,-5.1214,-5.1214,-5.1214,-5.1214,-5.1214,-5.1214,-5.1214,-5.1214,-5.1214,-5.1214,-5.1214,-5.1214,-5.1214,-5.0846,-4.9955,-5.0114,-4.9751,-4.864,-4.8578,-4.8563,-4.862,-4.862,-4.8826,-4.9235,-4.9275,-4.9701,-5.0525,-5.0727,-5.0874,-5.0912,-5.0666,-5.0457,-5.0301,-5.0262,-5.0144,-4.9876,-4.9876,-4.9876,-4.9876,-4.9876,-4.9876,-4.9916,-5.0168,-5.0579,-5.114,-5.7881,-5.7881,-5.7881,-5.7881,-5.7881,-5.7881,-5.7881,-5.7881,-5.7881,-5.7881,-5.7881,-5.7918,-5.7954,-5.7971,-5.8044,-5.826,-5.8419,-5.8525,-5.8561,-5.8561,-5.8596,-5.8631,-5.8614,-5.8614,-5.8614,-5.8892,-5.9012,-5.9012,-5.8823,-5.8334,-5.7557,-5.7189,-5.6348,-5.5131,-5.4941,-5.4581,-5.4103,-5.4103,-5.4103,-5.4103,-5.4103,-5.4103,-5.4103,-5.4103,-5.4103,-5.4103,-5.4103,-5.4103,-5.4103,-5.4103,-5.4103,-5.4103,-5.4103,-5.4103,-5.4103,-5.4103,-5.4103,-5.4103,-5.4103,-5.4103,-5.4103,-5.4103,-5.3596,-5.298,-5.2622,-5.2109,-5.1618,-5.1261,-5.1214,-5.1214,-5.1214,-5.1214,-5.1214,-5.1214,-5.1214,-5.1214,-5.1214,-5.1214,-5.1214,-5.1214,-5.1214,-5.1214,-5.1214,-5.1214,-5.0753,-4.9748,-4.9731,-4.9361,-4.8405,-4.837,-4.8453,-4.862,-4.862,-4.8661,-4.8744,-4.9113,-4.9701,-5.0525,-5.0409,-5.0557,-5.0874,-5.055,-5.034,-5.0301,-5.0089,-4.9955,-4.9876,-4.9876,-4.9876,-4.9876,-4.9876,-4.9876,-4.9916,-4.9971,-5.0073,-5.0354,-5.7881,-5.7881,-5.7881,-5.7881,-5.7881,-5.7881,-5.7881,-5.7881,-5.7881,-5.7881,-5.7881,-5.7881,-5.7881,-5.7881,-5.7918,-5.8044,-5.8152,-5.826,-5.8331,-5.8384,-5.8419,-5.849,-5.849,-5.849,-5.849,-5.8684,-5.8823,-5.8892,-5.8892,-5.8667,-5.8227,-5.7814,-5.698,-5.5805,-5.5385,-5.48,-5.4103,-5.4103,-5.4103,-5.4103,-5.4103,-5.4103,-5.4103,-5.4103,-5.4103,-5.4103,-5.4103,-5.4103,-5.4103,-5.4103,-5.4103,-5.4103,-5.4103,-5.4103,-5.4103,-5.4103,-5.4103,-5.4103,-5.4103,-5.4103,-5.4103,-5.4103,-5.3915,-5.3612,-5.3157,-5.2652,-5.217,-5.1618,-5.1526,-5.1494,-5.1214,-5.1214,-5.1214,-5.1214,-5.1214,-5.1214,-5.1214,-5.1214,-5.1214,-5.1214,-5.1214,-5.1214,-5.1214,-5.1214,-5.0888,-5.011,-4.9779,-4.9308,-4.8682,-4.8428,-4.8328,-4.8453,-4.8453,-4.8453,-4.8453,-4.8702,-4.9138,-4.9725,-5.0042,-5.0331,-5.0557,-5.0496,-5.0379,-5.0301,-5.0129,-5.001,-4.9876,-4.9876,-4.9876,-4.9876,-4.9876,-4.9876,-4.9876,-4.9876,-5.0393,-5.1129,-5.7881,-5.7881,-5.7881,-5.7881,-5.7881,-5.7881,-5.7881,-5.7881,-5.7881,-5.7881,-5.7881,-5.7881,-5.7881,-5.7881,-5.7881,-5.7881,-5.7881,-5.7954,-5.8152,-5.8152,-5.8224,-5.8367,-5.8419,-5.8419,-5.8419,-5.8419,-5.8525,-5.8753,-5.8753,-5.8806,-5.8909,-5.8244,-5.752,-5.6729,-5.5836,-5.5058,-5.4285,-5.4173,-5.4103,-5.4103,-5.4103,-5.4103,-5.4103,-5.4103,-5.4103,-5.4103,-5.4103,-5.4103,-5.4103,-5.4103,-5.4103,-5.4103,-5.4103,-5.4103,-5.4103,-5.4103,-5.4103,-5.4103,-5.4103,-5.4103,-5.4103,-5.4103,-5.4103,-5.4001,-5.3612,-5.3157,-5.2667,-5.2155,-5.2033,-5.1941,-5.1541,-5.1448,-5.1448,-5.1354,-5.1308,-5.1308,-5.1214,-5.1214,-5.1214,-5.1214,-5.1214,-5.1214,-5.1214,-5.1214,-5.1038,-5.0653,-4.9975,-4.9415,-4.8999,-4.8514,-4.826,-4.826,-4.8286,-4.8286,-4.8286,-4.8328,-4.8537,-4.8852,-4.9646,-5.012,-5.0198,-5.048,-5.0512,-5.0301,-5.0301,-5.0129,-4.9876,-4.9876,-4.9876,-4.9876,-4.9876,-4.9876,-4.9876,-4.9876,-5.0821,-5.2029,-5.7881,-5.7881,-5.7881,-5.7881,-5.7881,-5.7881,-5.7881,-5.7881,-5.7881,-5.7881,-5.7881,-5.7881,-5.7881,-5.7881,-5.7881,-5.7881,-5.7881,-5.7918,-5.7935,-5.7918,-5.7954,-5.7971,-5.7991,-5.7991,-5.7991,-5.7991,-5.8152,-5.8525,-5.8525,-5.8561,-5.8561,-5.8438,-5.8046,-5.7318,-5.6536,-5.5772,-5.5067,-5.4396,-5.4103,-5.4103,-5.4103,-5.4103,-5.4103,-5.4103,-5.4103,-5.4103,-5.4103,-5.4103,-5.4103,-5.4103,-5.4103,-5.4103,-5.4103,-5.4103,-5.4103,-5.4103,-5.4103,-5.4103,-5.4103,-5.4103,-5.4103,-5.4103,-5.4103,-5.4087,-5.4001,-5.3655,-5.3157,-5.2712,-5.2577,-5.2577,-5.2532,-5.2487,-5.2352,-5.1895,-5.1803,-5.1665,-5.1261,-5.1214,-5.1214,-5.1214,-5.1214,-5.1214,-5.1214,-5.1214,-5.1038,-5.0653,-4.9975,-4.9415,-4.8999,-4.8387,-4.8049,-4.8049,-4.8202,-4.8286,-4.8286,-4.8453,-4.8578,-4.8661,-4.9178,-4.9701,-5.0198,-5.048,-5.0512,-5.0301,-5.0301,-5.0129,-4.9876,-4.9876,-4.9876,-4.9876,-4.9876,-4.9876,-4.9876,-4.9876,-5.047,-5.1348,-5.7881,-5.7881,-5.7881,-5.7881,-5.7881,-5.7881,-5.7881,-5.7881,-5.7881,-5.7881,-5.7881,-5.7881,-5.7881,-5.7881,-5.7881,-5.7881,-5.7881,-5.7881,-5.7881,-5.7881,-5.7881,-5.7881,-5.7881,-5.7881,-5.7881,-5.7881,-5.8007,-5.8152,-5.826,-5.8367,-5.849,-5.849,-5.8118,-5.7467,-5.7147,-5.6559,-5.5812,-5.5099,-5.4717,-5.4623,-5.4258,-5.4103,-5.4103,-5.4103,-5.4103,-5.4103,-5.4103,-5.4103,-5.4103,-5.4103,-5.4103,-5.4103,-5.4103,-5.4103,-5.4103,-5.4103,-5.4103,-5.4103,-5.4103,-5.4103,-5.4103,-5.4103,-5.4103,-5.4103,-5.4103,-5.3915,-5.3655,-5.3201,-5.3069,-5.3024,-5.2757,-5.2712,-5.2622,-5.2397,-5.2124,-5.1849,-5.1618,-5.1354,-5.1214,-5.1214,-5.1214,-5.1214,-5.1214,-5.1214,-5.1141,-5.0949,-5.002,-4.9359,-4.9177,-4.8412,-4.7922,-4.7794,-4.8133,-4.826,-4.8133,-4.8328,-4.8453,-4.8453,-4.9031,-4.9557,-5.0058,-5.0386,-5.0518,-5.0473,-5.0473,-5.0246,-4.9876,-4.9876,-4.9876,-4.9876,-4.9876,-4.9876,-4.9876,-4.9876,-5.0409,-5.1215]},{"header":{"parameterUnit":"m.s-1","parameterCategory":1,"la1":30.6,"la2":28.766,"lo1":-90.7593,"lo2":-88.6598,"dy":0.0162,"dx":0.0183,"nx":116,"ny":114,"refTime":"2023-06-13T18:00:00:Z","depth":0,"parameterNumber":3,"parameterNumberName":"V-component_of_WINDS"},"data":[0.0,0.0,0.0,0.0,0.0,0.0,0.0,0.0,0.0,0.0,0.0,0.0,0.0,0.0,0.0,0.0,0.0,0.0,0.0,0.0,0.0,0.0,0.0,0.0,0.0,0.0,0.0,0.0,0.0,0.0,0.0,0.0,0.0,0.0,0.0,0.0,0.0,0.0,0.0,0.0,0.0,0.0,0.0,0.0,0.0,0.0,0.0,0.0,0.0,0.0,0.0,0.0,0.0,0.0,0.0,0.0,0.0,0.0,0.0,0.0,0.0,0.0,0.0,0.0,0.0,0.0,0.0,0.0,0.0,0.0,0.0,0.0,0.0,0.0,0.0,0.0,0.0,0.0,0.0,0.0,0.0,0.0,0.0,0.0,0.0,0.0,0.0,0.0,0.0,0.0,0.0,0.0,0.0,0.0,0.0,0.0,0.0,0.0,0.0,0.0,0.0,0.0,0.0,0.0,0.0,0.0,0.0,0.0,0.0,0.0,0.0,0.0,0.0,0.0,0.0,0.0,0.0,0.0,0.0,0.0,0.0,0.0,0.0,0.0,0.0,0.0,0.0,0.0,0.0,0.0,0.0,0.0,0.0,0.0,0.0,0.0,0.0,0.0,0.0,0.0,0.0,0.0,0.0,0.0,0.0,0.0,0.0,0.0,0.0,0.0,0.0,0.0,0.0,0.0,0.0,0.0,0.0,0.0,0.0,0.0,0.0,0.0,0.0,0.0,0.0,0.0,0.0,0.0,0.0,0.0,0.0,0.0,0.0,0.0,0.0,0.0,0.0,0.0,0.0,0.0,0.0,0.0,0.0,0.0,0.0,0.0,0.0,0.0,0.0,0.0,0.0,0.0,0.0,0.0,0.0,0.0,0.0,0.0,0.0,0.0,0.0,0.0,0.0,0.0,0.0,0.0,0.0,0.0,0.0,0.0,0.0,0.0,0.0,0.0,0.0,0.0,0.0,0.0,0.0,0.0,0.0,0.0,0.0,0.0,0.0,0.0,0.0,0.0,0.0,0.0,0.0,0.0,0.0,0.0,0.0,0.0,0.0,0.0,0.0,0.0,0.0,0.0,0.0,0.0,0.0,0.0,0.0,0.0,0.0,0.0,0.0,0.0,0.0,0.0,0.0,0.0,0.0,0.0,0.0,0.0,0.0,0.0,0.0,0.0,0.0,0.0,0.0,0.0,0.0,0.0,0.0,0.0,0.0,0.0,0.0,0.0,0.0,0.0,0.0,0.0,0.0,0.0,0.0,0.0,0.0,0.0,0.0,0.0,0.0,0.0,0.0,0.0,0.0,0.0,0.0,0.0,0.0,0.0,0.0,0.0,0.0,0.0,0.0,0.0,0.0,0.0,0.0,0.0,0.0,0.0,0.0,0.0,0.0,0.0,0.0,0.0,0.0,0.0,0.0,0.0,0.0,0.0,0.0,0.0,0.0,0.0,0.0,0.0,0.0,0.0,0.0,0.0,0.0,0.0,0.0,0.0,0.0,0.0,0.0,0.0,0.0,0.0,0.0,0.0,0.0,0.0,0.0,0.0,0.0,0.0,0.0,0.0,0.0,0.0,0.0,0.0,0.0,0.0,0.0,0.0,0.0,0.0,0.0,0.0,0.0,0.0,0.0,0.0,0.0,0.0,0.0,0.0,0.0,0.0,0.0,0.0,0.0,0.0,0.0,0.0,0.0,0.0,0.0,0.0,0.0,0.0,0.0,0.0,0.0,0.0,0.0,0.0,0.0,0.0,0.0,0.0,0.0,0.0,0.0,0.0,0.0,0.0,0.0,0.0,0.0,0.0,0.0,0.0,0.0,0.0,0.0,0.0,0.0,0.0,0.0,0.0,0.0,0.0,0.0,0.0,0.0,0.0,0.0,0.0,0.0,0.0,0.0,0.0,0.0,0.0,0.0,0.0,0.0,0.0,0.0,0.0,0.0,0.0,0.0,0.0,0.0,0.0,0.0,0.0,0.0,0.0,0.0,0.0,0.0,0.0,0.0,0.0,0.0,0.0,0.0,0.0,0.0,0.0,0.0,0.0,0.0,0.0,0.0,0.0,0.0,0.0,0.0,0.0,0.0,0.0,0.0,0.0,0.0,0.0,0.0,0.0,0.0,0.0,0.0,0.0,0.0,0.0,0.0,0.0,0.0,0.0,0.0,0.0,0.0,0.0,0.0,0.0,0.0,0.0,0.0,0.0,0.0,0.0,0.0,0.0,0.0,0.0,0.0,0.0,0.0,0.0,0.0,0.0,0.0,0.0,0.0,0.0,0.0,0.0,0.0,0.0,0.0,0.0,0.0,0.0,0.0,0.0,0.0,0.0,0.0,0.0,0.0,0.0,0.0,0.0,0.0,0.0,0.0,0.0,0.0,0.0,0.0,0.0,0.0,0.0,0.0,0.0,0.0,0.0,0.0,0.0,0.0,0.0,0.0,0.0,0.0,0.0,0.0,0.0,0.0,0.0,0.0,0.0,0.0,0.0,0.0,0.0,0.0,0.0,0.0,0.0,0.0,0.0,0.0,0.0,0.0,0.0,0.0,0.0,0.0,0.0,0.0,0.0,0.0,0.0,0.0,0.0,0.0,0.0,0.0,0.0,0.0,0.0,0.0,0.0,0.0,0.0,0.0,0.0,0.0,0.0,0.0,0.0,0.0,0.0,0.0,0.0,0.0,0.0,0.0,0.0,0.0,0.0,0.0,0.0,0.0,0.0,0.0,0.0,0.0,0.0,0.0,0.0,0.0,0.0,0.0,0.0,0.0,0.0,0.0,0.0,0.0,0.0,0.0,0.0,0.0,0.0,0.0,0.0,0.0,0.0,0.0,0.0,0.0,0.0,0.0,0.0,0.0,0.0,0.0,0.0,0.0,0.0,0.0,0.0,0.0,0.0,0.0,0.0,0.0,0.0,0.0,0.0,0.0,0.0,0.0,0.0,0.0,0.0,0.0,0.0,0.0,0.0,0.0,0.0,0.0,0.0,0.0,0.0,0.0,0.0,0.0,0.0,0.0,0.0,0.0,0.0,0.0,0.0,0.0,0.0,0.0,0.0,0.0,0.0,0.0,0.0,0.0,0.0,0.0,0.0,0.0,0.0,0.0,0.0,0.0,0.0,0.0,0.0,0.0,0.0,0.0,0.0,0.0,0.0,0.0,0.0,0.0,0.0,0.0,0.0,0.0,0.0,0.0,0.0,0.0,0.0,0.0,0.0,0.0,0.0,0.0,0.0,0.0,0.0,0.0,0.0,0.0,0.0,0.0,0.0,0.0,0.0,0.0,0.0,0.0,0.0,0.0,0.0,0.0,0.0,0.0,0.0,0.0,0.0,0.0,0.0,0.0,0.0,0.0,0.0,0.0,0.0,0.0,0.0,0.0,0.0,0.0,0.0,0.0,0.0,0.0,0.0,0.0,0.0,0.0,0.0,0.0,0.0,0.0,0.0,0.0,0.0,0.0,0.0,0.0,0.0,0.0,0.0,0.0,0.0,0.0,0.0,0.0,0.0,0.0,0.0,0.0,0.0,0.0,0.0,0.0,0.0,0.0,0.0,0.0,0.0,0.0,0.0,0.0,0.0,0.0,0.0,0.0,0.0,0.0,0.0,0.0,0.0,0.0,0.0,0.0,0.0,0.0,0.0,0.0,0.0,0.0,0.0,0.0,0.0,0.0,0.0,0.0,0.0,0.0,0.0,0.0,0.0,0.0,0.0,0.0,0.0,0.0,0.0,0.0,0.0,0.0,0.0,0.0,0.0,0.0,0.0,0.0,0.0,0.0,0.0,0.0,0.0,0.0,0.0,0.0,0.0,0.0,0.0,0.0,0.0,0.0,0.0,0.0,0.0,0.0,0.0,0.0,0.0,0.0,0.0,0.0,0.0,0.0,0.0,0.0,0.0,0.0,0.0,0.0,0.0,0.0,0.0,0.0,0.0,0.0,0.0,0.0,0.0,0.0,0.0,0.0,0.0,0.0,0.0,0.0,0.0,0.0,0.0,0.0,0.0,0.0,0.0,0.0,0.0,0.0,0.0,0.0,0.0,0.0,0.0,0.0,0.0,0.0,0.0,0.0,0.0,0.0,0.0,0.0,0.0,0.0,0.0,0.0,0.0,0.0,0.0,0.0,0.0,0.0,0.0,0.0,0.0,0.0,0.0,0.0,0.0,0.0,0.0,0.0,0.0,0.0,0.0,0.0,0.0,0.0,0.0,0.0,0.0,0.0,0.0,0.0,0.0,0.0,0.0,0.0,0.0,0.0,0.0,0.0,0.0,0.0,0.0,0.0,0.0,0.0,0.0,0.0,0.0,0.0,0.0,0.0,0.0,0.0,0.0,0.0,0.0,0.0,0.0,0.0,0.0,0.0,0.0,0.0,0.0,0.0,0.0,0.0,0.0,0.0,0.0,0.0,0.0,0.0,0.0,0.0,0.0,0.0,0.0,0.0,0.0,0.0,0.0,0.0,0.0,0.0,0.0,0.0,0.0,0.0,0.0,0.0,0.0,0.0,0.0,0.0,0.0,0.0,0.0,0.0,0.0,0.0,0.0,0.0,0.0,0.0,0.0,0.0,0.0,0.0,0.0,0.0,0.0,0.0,0.0,0.0,0.0,0.0,0.0,0.0,0.0,0.0,0.0,0.0,0.0,0.0,0.0,0.0,0.0,0.0,0.0,0.0,0.0,0.0,0.0,0.0,0.0,0.0,0.0,0.0,0.0,0.0,0.0,0.0,0.0,0.0,0.0,0.0,0.0,0.0,0.0,0.0,0.0,0.0,0.0,0.0,0.0,0.0,0.0,0.0,0.0,0.0,0.0,0.0,0.0,0.0,0.0,0.0,0.0,0.0,0.0,0.0,0.0,0.0,0.0,0.0,0.0,0.0,0.0,0.0,0.0,0.0,0.0,0.0,0.0,0.0,0.0,0.0,0.0,0.0,0.0,0.0,0.0,0.0,0.0,0.0,0.0,0.0,0.0,0.0,0.0,0.0,0.0,0.0,0.0,0.0,0.0,0.0,0.0,0.0,0.0,0.0,0.0,0.0,0.0,0.0,0.0,0.0,0.0,0.0,0.0,0.0,0.0,0.0,0.0,0.0,0.0,0.0,0.0,0.0,0.0,0.0,0.0,0.0,0.0,0.0,0.0,0.0,0.0,0.0,0.0,0.0,0.0,0.0,0.0,0.0,0.0,0.0,0.0,0.0,0.0,0.0,0.0,0.0,0.0,0.0,0.0,0.0,0.0,0.0,0.0,0.0,0.0,0.0,0.0,0.0,0.0,0.0,0.0,0.0,0.0,0.0,0.0,0.0,0.0,0.0,0.0,0.0,0.0,0.0,0.0,0.0,0.0,0.0,0.0,0.0,0.0,0.0,0.0,0.0,0.0,0.0,0.0,0.0,0.0,0.0,0.0,0.0,0.0,0.0,0.0,0.0,0.0,0.0,0.0,0.0,0.0,0.0,0.0,0.0,0.0,0.0,0.0,0.0,0.0,0.0,0.0,0.0,0.0,0.0,0.0,0.0,0.0,0.0,0.0,0.0,0.0,0.0,0.0,0.0,0.0,0.0,0.0,0.0,0.0,0.0,0.0,0.0,0.0,0.0,0.0,0.0,0.0,0.0,0.0,0.0,0.0,0.0,0.0,0.0,0.0,0.0,0.0,0.0,0.0,0.0,0.0,0.0,0.0,0.0,0.0,0.0,0.0,0.0,0.0,0.0,0.0,0.0,0.0,0.0,0.0,0.0,0.0,0.0,0.0,0.0,0.0,0.0,0.0,0.0,0.0,0.0,0.0,0.0,0.0,0.0,0.0,0.0,0.0,0.0,0.0,0.0,0.0,0.0,0.0,0.0,0.0,0.0,0.0,0.0,0.0,0.0,0.0,0.0,0.0,0.0,0.0,0.0,0.0,0.0,0.0,0.0,0.0,0.0,0.0,0.0,0.0,0.0,0.0,0.0,0.0,0.0,0.0,0.0,0.0,0.0,0.0,0.0,0.0,0.0,0.0,0.0,0.0,0.0,0.0,0.0,0.0,0.0,0.0,0.0,0.0,0.0,0.0,0.0,0.0,0.0,0.0,0.0,0.0,0.0,0.0,0.0,0.0,0.0,0.0,0.0,0.0,0.0,0.0,-2.6734,0.0,0.0,0.0,0.0,0.0,0.0,0.0,0.0,0.0,0.0,0.0,0.0,0.0,0.0,0.0,0.0,0.0,0.0,0.0,0.0,0.0,0.0,0.0,0.0,0.0,0.0,0.0,0.0,0.0,0.0,0.0,0.0,0.0,0.0,0.0,0.0,0.0,0.0,0.0,0.0,0.0,0.0,0.0,0.0,0.0,0.0,0.0,0.0,0.0,0.0,0.0,0.0,0.0,0.0,0.0,0.0,0.0,0.0,0.0,0.0,0.0,0.0,0.0,0.0,0.0,0.0,0.0,0.0,0.0,0.0,0.0,0.0,0.0,0.0,0.0,0.0,0.0,0.0,0.0,0.0,0.0,0.0,0.0,0.0,0.0,0.0,0.0,0.0,0.0,0.0,0.0,0.0,0.0,0.0,0.0,0.0,0.0,0.0,0.0,0.0,0.0,0.0,0.0,0.0,0.0,0.0,0.0,0.0,0.0,0.0,0.0,0.0,0.0,0.0,0.0,0.0,-2.7675,0.0,0.0,0.0,0.0,0.0,0.0,0.0,0.0,0.0,0.0,0.0,0.0,0.0,0.0,0.0,0.0,0.0,0.0,0.0,0.0,0.0,0.0,0.0,0.0,0.0,0.0,0.0,0.0,0.0,0.0,0.0,0.0,0.0,0.0,0.0,0.0,0.0,0.0,0.0,0.0,0.0,0.0,0.0,0.0,0.0,0.0,0.0,0.0,0.0,0.0,0.0,0.0,0.0,0.0,0.0,0.0,0.0,0.0,0.0,0.0,0.0,0.0,0.0,0.0,0.0,0.0,0.0,0.0,0.0,0.0,0.0,0.0,0.0,0.0,0.0,0.0,0.0,0.0,0.0,0.0,0.0,0.0,0.0,0.0,0.0,0.0,0.0,0.0,0.0,0.0,0.0,0.0,0.0,0.0,0.0,0.0,0.0,0.0,0.0,0.0,0.0,0.0,0.0,0.0,0.0,0.0,0.0,0.0,0.0,-2.981,-2.981,-2.9784,-2.9565,-2.9168,-3.0041,-3.0443,-3.037,0.0,0.0,0.0,0.0,0.0,0.0,0.0,0.0,0.0,0.0,0.0,0.0,0.0,0.0,0.0,0.0,0.0,0.0,0.0,0.0,0.0,0.0,0.0,0.0,0.0,0.0,0.0,0.0,0.0,0.0,0.0,0.0,0.0,0.0,0.0,0.0,0.0,0.0,0.0,-2.7013,-2.6868,-2.6443,-2.584,-2.5381,0.0,0.0,0.0,0.0,0.0,0.0,0.0,0.0,0.0,0.0,0.0,0.0,0.0,0.0,0.0,0.0,0.0,0.0,0.0,0.0,0.0,0.0,0.0,0.0,0.0,0.0,0.0,0.0,0.0,0.0,0.0,0.0,0.0,0.0,0.0,0.0,0.0,0.0,0.0,0.0,0.0,0.0,0.0,-2.1953,-2.3409,0.0,0.0,0.0,0.0,0.0,0.0,0.0,0.0,0.0,0.0,0.0,0.0,0.0,0.0,-2.7548,-2.9128,-3.0563,-3.1758,-3.3116,-3.377,-3.377,-3.377,-3.3737,-3.3584,-3.2036,0.0,-3.0319,-3.149,0.0,0.0,0.0,0.0,0.0,0.0,0.0,0.0,0.0,0.0,0.0,0.0,0.0,0.0,0.0,0.0,0.0,0.0,0.0,0.0,0.0,0.0,0.0,0.0,0.0,0.0,0.0,0.0,0.0,0.0,0.0,0.0,0.0,0.0,0.0,0.0,-2.3672,-2.5937,-2.7487,-2.716,-2.7897,-2.9376,-2.7963,-2.7342,-2.7337,-2.63,0.0,0.0,0.0,0.0,0.0,0.0,0.0,0.0,0.0,0.0,0.0,0.0,0.0,0.0,0.0,0.0,0.0,0.0,0.0,0.0,0.0,0.0,0.0,0.0,0.0,0.0,0.0,0.0,0.0,0.0,0.0,0.0,0.0,0.0,0.0,0.0,0.0,0.0,0.0,-2.1866,-2.2823,-2.4507,-2.3535,-2.2268,0.0,0.0,0.0,0.0,0.0,0.0,0.0,0.0,0.0,-2.6962,-2.8576,-2.965,-3.011,-3.1847,-3.3031,-3.3595,-3.4229,-3.4524,-3.4524,-3.4524,-3.4524,-3.448,-3.3617,-3.3016,-3.2569,-3.2212,-3.1734,-3.126,0.0,0.0,0.0,0.0,0.0,-2.9837,0.0,0.0,0.0,0.0,0.0,0.0,0.0,0.0,0.0,0.0,0.0,0.0,0.0,0.0,0.0,-1.4173,0.0,0.0,0.0,0.0,0.0,0.0,0.0,0.0,0.0,0.0,0.0,-2.218,-2.4167,-2.5927,-2.7539,-2.7181,-2.8375,-3.076,-2.9361,-2.8912,-2.9246,-2.7897,-2.6754,0.0,0.0,0.0,0.0,0.0,0.0,0.0,0.0,0.0,0.0,0.0,0.0,0.0,0.0,0.0,0.0,0.0,0.0,0.0,0.0,0.0,0.0,0.0,0.0,0.0,0.0,0.0,0.0,0.0,0.0,0.0,0.0,0.0,0.0,0.0,0.0,0.0,0.0,-2.3525,-2.4224,-2.6399,-2.5499,-2.4373,0.0,0.0,0.0,0.0,0.0,0.0,-2.7391,-2.8616,-2.9402,-2.9722,-3.1799,-3.2754,-3.2372,-3.3803,-3.4524,-3.4524,-3.4524,-3.4524,-3.4524,-3.4524,-3.4524,-3.4524,-3.4524,-3.4589,-3.4578,-3.3314,-3.2886,-3.3046,-3.3731,-3.3215,-3.2134,-3.2515,-3.2892,-3.3224,0.0,0.0,0.0,0.0,0.0,0.0,0.0,0.0,0.0,0.0,0.0,0.0,0.0,0.0,-1.3551,-1.4576,-1.5836,-1.6422,0.0,0.0,0.0,0.0,0.0,0.0,0.0,0.0,0.0,-2.4053,-2.3691,-2.4544,-2.6609,-2.6875,-2.7651,-2.8774,-2.9279,-2.9964,-3.0534,-2.8195,-2.7405,-2.7662,0.0,0.0,0.0,0.0,0.0,0.0,0.0,0.0,0.0,0.0,0.0,0.0,0.0,0.0,0.0,0.0,0.0,0.0,0.0,0.0,0.0,0.0,0.0,0.0,0.0,0.0,0.0,0.0,0.0,0.0,0.0,0.0,0.0,0.0,0.0,0.0,0.0,0.0,0.0,-2.9866,-3.0129,0.0,0.0,0.0,0.0,-2.6011,-2.7224,-2.8778,-3.0663,-3.1685,-3.2799,-3.4118,-3.4315,-3.4403,-3.4371,-3.448,-3.4524,-3.4524,-3.4524,-3.4524,-3.4524,-3.4524,-3.4524,-3.4524,-3.4524,-3.4764,-3.5181,-3.5721,-3.6315,-3.6752,-3.6036,-3.6048,-3.627,-3.4458,-3.514,-3.6956,0.0,0.0,0.0,0.0,0.0,0.0,0.0,0.0,0.0,0.0,0.0,0.0,0.0,-1.1433,-1.3604,-1.4259,-1.5591,-1.6631,-1.7193,0.0,0.0,0.0,0.0,0.0,0.0,0.0,-1.9971,-2.1372,-2.1976,-2.2757,-2.372,-2.4466,-2.5654,-2.7179,-2.7049,-2.7889,-2.9269,-2.9451,-2.8692,-2.7353,-2.7593,-2.7181,0.0,0.0,0.0,0.0,0.0,0.0,0.0,0.0,0.0,0.0,0.0,0.0,0.0,0.0,0.0,0.0,0.0,0.0,0.0,0.0,0.0,0.0,0.0,0.0,0.0,0.0,0.0,0.0,0.0,0.0,0.0,0.0,0.0,0.0,0.0,0.0,0.0,-2.9574,-2.9887,0.0,0.0,-2.9662,-2.9704,-2.9666,-3.1218,-3.2523,-3.3212,-3.3584,-3.3999,-3.4457,-3.4524,-3.4524,-3.4524,-3.4524,-3.4524,-3.4524,-3.4524,-3.4524,-3.4534,-3.4829,-3.496,-3.4982,-3.531,-3.5987,-3.6895,-3.7108,-3.7366,-3.7671,-3.8904,-3.9534,-3.97,-3.9762,-4.0153,-4.0657,0.0,0.0,0.0,0.0,0.0,0.0,0.0,0.0,0.0,0.0,0.0,-0.892,-0.8159,-1.0936,-1.3192,-1.3873,-1.5458,-1.6708,-1.7354,0.0,0.0,0.0,0.0,0.0,0.0,-1.9052,-1.9977,-2.0252,-2.1234,-2.1782,-2.2017,-2.2963,-2.414,-2.5427,-2.5443,-2.625,-2.7718,-2.908,-2.8702,-2.724,-2.7939,-2.7151,-2.5579,0.0,0.0,0.0,0.0,0.0,0.0,0.0,0.0,0.0,0.0,0.0,0.0,0.0,0.0,0.0,0.0,0.0,0.0,0.0,0.0,0.0,0.0,0.0,0.0,0.0,0.0,0.0,0.0,0.0,0.0,0.0,0.0,0.0,0.0,0.0,-2.8412,-3.0153,-3.0621,-3.0955,-3.1329,-3.1665,-3.2038,-3.2466,-3.3606,-3.4349,-3.4513,-3.4524,-3.4524,-3.4524,-3.4524,-3.4524,-3.4524,-3.4524,-3.4524,-3.4524,-3.4524,-3.4524,-3.4534,-3.484,-3.4709,-3.4305,-3.5789,-3.6409,-3.6589,-3.804,-3.8762,-3.9073,-4.0886,-4.1967,-4.2521,-4.332,-4.3362,-4.2995,0.0,0.0,0.0,0.0,0.0,0.0,0.0,0.0,0.0,0.0,-0.8276,-0.7989,-0.8433,-1.0433,-1.2235,-1.3598,-1.5513,-1.6637,-1.6531,-1.6454,0.0,0.0,0.0,0.0,-1.897,-1.9577,-2.0267,-2.1211,-2.1497,-2.1668,-2.174,-2.2663,-2.3263,-2.3665,-2.4656,-2.5464,-2.6128,-2.7099,-2.7513,-2.7512,-2.7894,-2.7341,-2.6302,0.0,0.0,0.0,0.0,0.0,0.0,0.0,0.0,0.0,0.0,0.0,0.0,0.0,0.0,0.0,0.0,0.0,0.0,0.0,0.0,0.0,0.0,0.0,0.0,0.0,0.0,0.0,0.0,0.0,0.0,0.0,0.0,0.0,-2.667,-2.846,-3.0281,-3.1986,-3.2842,-3.3713,-3.4978,-3.416,-3.3772,-3.4183,-3.3967,-3.4032,-3.4502,-3.448,-3.4458,-3.4458,-3.4458,-3.4458,-3.4458,-3.4502,-3.4524,-3.4524,-3.4524,-3.4524,-3.4524,-3.4556,-3.3814,-3.2759,-3.5815,-3.6012,-3.4416,-3.8701,-4.0801,-4.1269,-4.1947,-4.324,-4.4668,-4.4668,-4.4382,-4.3807,0.0,0.0,0.0,0.0,0.0,0.0,0.0,0.0,0.0,0.0,-0.909,-0.8769,-0.9571,-1.1069,-1.2576,-1.3894,-1.5471,-1.6518,-1.6844,0.0,0.0,0.0,0.0,0.0,-1.9206,-2.0048,-2.0579,-2.0838,-2.096,-2.1189,-2.1668,-2.221,-2.2836,-2.3613,-2.4162,-2.4743,-2.5472,-2.6667,-2.7272,-2.7581,-2.8902,-2.8422,-2.7146,0.0,0.0,0.0,0.0,0.0,0.0,0.0,0.0,0.0,0.0,0.0,0.0,0.0,0.0,0.0,0.0,0.0,0.0,0.0,0.0,0.0,0.0,0.0,0.0,0.0,0.0,0.0,0.0,0.0,0.0,0.0,0.0,-3.0782,-3.0425,-3.0865,-3.1851,-3.357,-3.4245,-3.4596,-3.4611,-3.4919,-3.5016,-3.4575,-3.4625,-3.4725,-3.4869,-3.3649,-3.2973,-3.2973,-3.2973,-3.2973,-3.2973,-3.3999,-3.4524,-3.4524,-3.4524,-3.4524,-3.4545,-3.5255,-3.5844,-3.6395,-3.7942,-3.9284,-4.0463,-4.1731,-4.2816,-4.3632,-4.2957,-4.3504,-4.4668,-4.4668,-4.463,-4.4185,0.0,0.0,0.0,0.0,0.0,0.0,0.0,0.0,0.0,0.0,-1.0496,-1.0259,-1.0519,-1.2019,-1.3432,-1.4642,-1.58,-1.6547,-1.6784,0.0,0.0,0.0,0.0,-1.8893,-1.9513,-2.016,-2.0608,-2.0716,-2.0838,-2.1017,-2.1253,-2.1757,-2.2251,-2.2799,-2.3126,-2.3884,-2.495,-2.6138,-2.6945,-2.7642,-2.9099,-2.876,-2.7521,-2.9695,-2.9832,-2.9029,-3.0373,-3.0379,-2.9529,-2.8452,0.0,0.0,0.0,0.0,0.0,0.0,0.0,0.0,0.0,0.0,0.0,0.0,0.0,0.0,0.0,0.0,0.0,0.0,0.0,0.0,0.0,0.0,0.0,0.0,-3.0808,-3.2771,-3.33,-3.3209,-3.3521,-3.4735,-3.5123,-3.5309,-3.5489,-3.5679,-3.5653,-3.5354,-3.5102,-3.4935,-3.4813,-3.3846,-3.3005,-3.2405,-3.2962,-3.3082,-3.272,-3.4098,-3.4917,-3.5124,-3.5124,-3.5397,-3.5904,-3.6485,-3.7065,0.0,-3.9641,-4.0648,-4.1025,-4.2343,-4.3288,0.0,0.0,0.0,0.0,0.0,-4.4668,-4.4485,0.0,0.0,0.0,0.0,0.0,0.0,0.0,0.0,0.0,0.0,0.0,-1.1938,-1.1585,-1.3181,-1.4614,-1.5596,-1.6363,-1.6693,0.0,0.0,0.0,-1.7809,-1.8247,-1.8876,-1.9788,-2.0097,-2.0385,-2.0658,-2.0967,-2.0967,-2.0723,-2.13,-2.1628,-2.173,-2.2023,-2.2991,-2.4515,-2.5532,-2.6551,-2.7535,-2.8735,-2.8587,-2.7763,-2.8371,-2.8114,-2.7613,-2.8451,-2.8339,-2.7893,-2.8227,0.0,0.0,0.0,0.0,0.0,0.0,0.0,0.0,0.0,0.0,0.0,0.0,0.0,0.0,0.0,0.0,0.0,0.0,0.0,0.0,0.0,0.0,0.0,0.0,-3.1661,-3.3355,-3.5375,-3.5324,-3.5187,-3.5554,-3.5657,-3.6025,-3.6863,-3.6278,-3.5923,-3.6151,-3.5447,-3.4924,-3.4579,0.0,0.0,0.0,0.0,-3.3967,-3.3212,-3.4567,-3.5517,-3.6023,-3.6023,-3.6638,-3.7792,-3.7849,-3.7942,-3.8215,-4.1022,-4.1018,-3.9165,-4.1973,-4.3108,-4.3232,-4.4274,-4.4668,-4.4642,-4.438,-4.45,0.0,0.0,0.0,0.0,0.0,0.0,0.0,0.0,0.0,0.0,-1.2737,-1.2052,-1.2002,-1.3436,-1.4592,-1.5459,-1.6095,-1.6806,-1.6905,0.0,0.0,-1.628,-1.7823,-1.8501,-1.9098,-1.9795,-1.9866,-2.004,-2.0385,-2.0443,-2.0558,-2.0716,-2.0838,-2.1177,-2.1723,-2.1789,-2.2408,-2.349,-2.4716,-2.5862,-2.7027,-2.8065,-2.8386,-2.8371,-3.0312,-3.0747,-3.0583,-3.219,-3.2823,-3.2595,-3.0682,-2.9671,-2.9136,-2.8797,0.0,0.0,0.0,0.0,0.0,0.0,0.0,0.0,0.0,0.0,0.0,0.0,0.0,0.0,0.0,0.0,0.0,0.0,0.0,0.0,-3.3044,-3.4494,-3.5764,-3.6578,-3.6601,-3.6484,-3.6162,-3.6484,-3.6656,-3.6438,-3.6269,-3.6105,-3.5877,-3.5523,-3.5202,-3.4935,-3.3593,0.0,-3.2982,-3.3202,-3.3442,-3.365,-3.5091,-3.5925,-3.6023,0.0,0.0,-3.7803,-3.8194,-3.9454,-4.1343,-4.2371,-4.3,-4.3478,-4.4093,-4.4328,-4.4383,-4.4613,-4.4668,-4.45,-4.2657,-4.3141,-4.4407,0.0,0.0,0.0,0.0,0.0,0.0,0.0,0.0,0.0,0.0,-1.3071,-1.3572,-1.4583,-1.5254,-1.5956,-1.6685,-1.629,0.0,0.0,-1.553,-1.5866,-1.7067,-1.8109,-1.8919,-1.9354,-1.951,-1.9815,-2.027,-2.0162,-2.0213,-2.0493,-2.0321,-2.0405,-2.0734,-2.0901,-2.154,-2.2488,-2.3594,-2.4845,-2.6221,-2.7121,-2.7807,-2.8361,-3.002,-3.0529,-3.047,-3.1733,-3.2108,-3.1898,-3.0985,-3.047,-3.0142,-3.0018,-2.91,-2.7676,0.0,0.0,0.0,0.0,0.0,0.0,0.0,0.0,0.0,0.0,0.0,0.0,0.0,0.0,-3.0317,0.0,0.0,-3.2429,-3.3621,-3.4645,-3.5676,-3.6541,-3.7092,-3.7219,-3.6714,-3.6886,-3.6932,-3.6679,-3.6262,-3.6063,-3.5981,-3.5502,-3.5191,-3.5087,-3.424,-3.3683,-3.3442,-3.4196,-3.4403,-3.4163,-3.5605,-3.6446,-3.6734,-3.7292,-3.8261,-3.9469,-4.032,-4.1681,-4.348,-4.3694,-4.4152,-4.4668,-4.4668,-4.4668,-4.4668,-4.4668,-4.4668,-4.4537,-4.3441,-4.3689,-4.4511,0.0,0.0,0.0,0.0,0.0,0.0,0.0,0.0,0.0,0.0,0.0,-1.4813,-1.5149,-1.5445,-1.5928,0.0,0.0,0.0,0.0,-1.5484,-1.5863,-1.6715,-1.7802,-1.8571,-1.8918,-1.9101,-1.953,-2.0213,-1.9873,-1.9873,-2.0213,-1.9931,-1.9815,-1.9809,-2.0155,-2.0816,-2.1635,-2.2498,-2.3743,-2.5249,-2.6039,-2.6985,-2.7971,-2.8913,-2.9276,-2.9411,-3.0033,-3.0092,-2.9954,-3.0544,-3.0577,-3.0399,-3.0628,-3.0598,-2.9915,-2.6666,-2.6852,0.0,0.0,0.0,0.0,0.0,0.0,0.0,0.0,0.0,-3.2128,-3.1918,-3.1934,-3.2032,-3.2,-3.2054,-3.2492,-3.374,-3.4377,-3.5051,-3.618,-3.7151,-3.7541,-3.7037,-3.6979,-3.6945,-3.6786,-3.62,-3.5856,-3.5983,-3.5458,-3.5167,-3.519,-3.5299,-3.5048,-3.4382,-3.5408,-3.5681,-3.5081,-3.6151,-3.6926,-3.7435,-3.8648,-3.9873,-4.1157,-4.2326,-4.3577,-4.4668,-4.4668,-4.4668,-4.4668,-4.4626,-4.4626,-4.4626,-4.4572,-4.4518,-4.4572,-4.4626,-4.4626,-4.4572,0.0,0.0,0.0,0.0,0.0,0.0,0.0,0.0,0.0,0.0,0.0,0.0,0.0,0.0,0.0,0.0,0.0,0.0,-1.5858,-1.6537,-1.7351,-1.8216,-1.8127,-1.8302,-1.8911,-1.866,-1.8964,-1.9873,-1.9526,-1.9526,-1.9873,-1.9815,-1.9815,-1.9809,-2.0155,-2.0644,-2.1262,-2.1663,-2.2746,-2.4107,-2.4744,-2.5842,-2.7172,-2.787,-2.8496,-2.9159,-2.9209,-2.9621,-3.0143,-3.0105,-3.0153,-3.0292,-3.072,-3.0686,-3.0133,-2.8524,0.0,-2.7533,-2.4746,-2.4406,-2.5192,-2.6794,-2.9336,-3.1377,0.0,0.0,-3.5538,-3.4038,-3.455,-3.5314,-3.5523,-3.5625,-3.5614,-3.5252,-3.5429,-3.5874,-3.6486,-3.7099,-3.7315,-3.7037,-3.6979,-3.6697,-3.5976,-3.5831,-3.5599,-3.5169,-3.5456,-3.5508,-3.5212,-3.5638,-3.6031,-3.6358,-3.6107,-3.6373,-3.7057,-3.6817,-3.6926,-3.7435,-3.8648,-3.9873,-4.1157,-4.2326,-4.3577,-4.4668,-4.4668,-4.4668,-4.4681,-4.4409,-4.4367,-4.4313,-4.4052,-4.401,-4.3997,-4.4258,-4.4367,-4.4367,0.0,0.0,0.0,0.0,0.0,0.0,0.0,0.0,0.0,0.0,0.0,0.0,0.0,0.0,0.0,0.0,0.0,0.0,-1.4618,-1.5398,-1.6113,-1.6669,-1.7516,-1.8109,-1.8355,-1.8292,-1.8579,-1.9277,-1.8984,-1.907,-1.9526,-1.9533,-1.9591,-1.9591,-2.0104,-2.0335,-2.045,-2.1325,-2.2546,-2.3902,-2.4863,-2.6454,-2.8305,-2.889,-2.9802,-3.058,-2.9198,-2.9518,0.0,0.0,-3.0273,-2.9993,-3.2124,-3.1247,-2.9548,-3.0068,-2.9014,0.0,-2.7607,-2.8028,0.0,0.0,-3.2911,-3.4166,-3.4229,-3.5262,-3.5901,-3.5167,-3.5322,-3.5534,-3.5458,-3.4786,-3.4457,0.0,-3.4821,-3.4829,-3.5779,-3.6365,-3.6556,-3.6115,-3.5332,-3.4721,-3.4581,-3.5179,-3.5064,-3.3828,-3.4758,-3.5457,-3.5638,-3.6118,-3.6489,-3.6686,-3.65,-3.6446,-3.6555,-3.7364,-3.7945,-3.8301,-4.038,-4.168,-4.2426,-4.3313,-4.3903,-4.4203,-4.4203,-4.4203,-4.4203,-4.4107,-4.4052,-4.4052,-4.3955,-4.3776,-4.364,-4.3942,-4.4052,-4.4052,0.0,0.0,0.0,0.0,0.0,0.0,0.0,0.0,0.0,0.0,0.0,0.0,0.0,0.0,0.0,0.0,0.0,0.0,0.0,-1.5079,-1.5725,-1.6112,-1.724,-1.7902,-1.7982,-1.7976,-1.8226,-1.8692,-1.8475,-1.8568,-1.895,-1.9094,-1.9185,-1.9301,-1.9815,-1.9982,-2.0046,-2.141,-2.2749,-2.395,-2.5434,-2.7185,-2.8933,-2.9877,-3.0873,-3.1514,-2.9308,-2.9483,0.0,0.0,-2.976,-2.9753,-3.1581,-3.0712,-2.926,-3.0229,-2.8904,-2.7584,-2.9332,0.0,0.0,-3.3866,-3.4741,-3.5207,-3.6173,-3.605,-3.5678,-3.5636,-3.5491,-3.5368,-3.5146,-3.4225,-3.3848,-3.4814,-3.4437,-3.4281,-3.5157,-3.5725,-3.5759,-3.4907,-3.3966,-3.3128,-3.2334,-3.375,-3.4313,-3.3512,-3.4668,-3.5638,-3.6198,-3.662,-3.6883,-3.6883,-3.6762,-3.6754,-3.6864,-3.7509,-3.8354,-3.9393,-4.1258,-4.2426,-4.2985,-4.378,-4.4052,-4.3899,-4.3899,-4.3899,-4.3899,-4.3776,-4.3764,-4.3764,-4.3666,-4.3474,-4.3295,-4.3543,-4.3721,-4.3708,0.0,0.0,0.0,0.0,0.0,0.0,0.0,0.0,0.0,0.0,0.0,0.0,0.0,0.0,0.0,0.0,0.0,0.0,0.0,-1.6603,-1.7363,-1.7895,-1.7696,-1.7729,-1.8009,-1.7766,-1.7753,-1.8102,-1.8044,-1.8014,-1.8027,-1.8294,-1.859,-1.8933,-1.9236,-1.97,-2.0385,-2.2153,-2.3287,-2.4094,-2.6354,-2.7659,-2.8432,-3.0066,-3.0954,-3.1097,-2.9467,0.0,0.0,0.0,-2.8305,-2.9635,-2.7584,-2.833,0.0,-2.8216,-2.7488,-2.7401,0.0,0.0,-2.8855,-3.2064,-3.2897,-3.3296,-3.4758,-3.5224,-3.5423,-3.5379,-3.5379,-3.5423,-3.5368,-3.5334,-3.5256,-3.5035,-3.4958,-3.4958,-3.4991,-3.5445,-3.5091,-3.3433,-3.3694,-3.2588,0.0,-3.1213,-3.3501,-3.4982,-3.5627,-3.6162,-3.6642,-3.7101,-3.7352,-3.7352,-3.6926,-3.7466,-3.9111,-3.7229,-3.7702,-4.0558,-4.0315,-4.0846,-4.2069,-4.3364,-4.3899,-4.3899,-4.3899,-4.3899,-4.3899,-4.3517,-4.3394,-4.3394,-4.3141,-4.303,-4.303,-4.303,-4.3184,-4.3394,0.0,0.0,0.0,0.0,0.0,0.0,0.0,0.0,0.0,0.0,0.0,0.0,0.0,0.0,0.0,0.0,0.0,0.0,0.0,-1.5464,-1.6279,-1.7408,-1.7535,-1.7729,-1.7975,-1.7347,-1.713,-1.7425,-1.73,-1.7272,-1.7503,-1.7711,-1.8027,-1.8314,-1.8887,-1.9725,-2.0916,-2.2112,-2.3782,-2.5744,-2.6994,-2.8643,-3.0358,-3.0074,-3.0747,-3.1431,0.0,0.0,0.0,0.0,0.0,0.0,-2.8797,-2.8069,-2.6481,-2.553,-2.7161,-2.9088,-2.8302,0.0,-3.145,-3.2546,-3.3679,-3.4589,-3.4925,-3.5047,-3.5091,-3.4858,-3.3767,-3.2964,-3.3358,-3.1987,-3.1276,-3.2735,-3.1804,-3.1698,-3.4052,-3.2909,-3.2534,-3.4329,-3.3016,0.0,0.0,0.0,0.0,-3.235,-3.4589,-3.6173,-3.6664,-3.7134,-3.7183,-3.6627,-3.6465,-3.6872,-3.793,-3.7345,-3.8597,-4.1651,-4.2513,-4.3124,-4.3558,-4.3584,-4.3678,-4.3796,-4.3485,-4.3321,-4.3265,-4.3197,-4.3129,-4.3129,-4.303,-4.2974,-4.2974,-4.2974,-4.3085,-4.3129,0.0,0.0,0.0,0.0,0.0,0.0,0.0,0.0,0.0,0.0,0.0,0.0,0.0,0.0,0.0,0.0,0.0,0.0,0.0,0.0,-1.5372,-1.6529,-1.68,-1.7001,-1.705,-1.6951,-1.689,-1.6977,-1.7216,-1.739,-1.751,-1.7685,-1.7893,-1.8166,-1.8897,-1.9843,-2.1033,-2.2815,-2.4708,-2.659,-2.7327,-2.8795,-3.0439,-2.9385,-2.9496,0.0,0.0,0.0,0.0,0.0,0.0,0.0,-2.7428,-2.6376,-2.4826,-2.5615,-2.7556,-2.942,-2.9261,-3.0877,-3.2818,-3.3442,-3.4283,-3.4869,-3.4702,-3.459,-3.4423,-3.4244,-3.3344,-3.2436,-3.1958,-3.1066,-3.0679,-3.1436,-3.103,-3.1414,-3.3619,-3.2491,-3.2082,-3.369,-3.2241,0.0,0.0,0.0,0.0,-3.1853,-3.3846,-3.5236,-3.5598,-3.6064,-3.6302,-3.6267,-3.6277,-3.6692,-3.7675,-3.7747,-3.9163,-4.1997,-4.3229,-4.3844,-4.3839,-4.3404,-4.3002,-4.2635,-4.2873,-4.2647,-4.2145,-4.2735,-4.2974,-4.2974,-4.2862,-4.2806,-4.2806,-4.2806,-4.2806,-4.2862,0.0,0.0,0.0,0.0,0.0,0.0,0.0,0.0,0.0,0.0,0.0,0.0,0.0,0.0,0.0,0.0,0.0,0.0,0.0,0.0,0.0,-1.537,-1.5692,-1.5732,-1.5424,-1.6513,-1.6979,-1.6626,-1.7705,-1.8075,-1.7855,-1.7912,-1.8081,-1.835,-1.9201,-1.9954,-2.0809,-2.3864,-2.5691,-2.6509,-2.7192,-2.7961,-2.8663,-2.7989,0.0,0.0,0.0,0.0,0.0,0.0,0.0,0.0,0.0,-2.372,-2.4886,-2.8109,-2.851,-2.8448,-3.1252,-3.2229,-3.2873,-3.4527,-3.4489,-3.4086,-3.4086,-3.3861,-3.3547,-3.3508,-3.3763,-3.3306,0.0,0.0,-3.2827,-3.1167,-3.2446,-3.3637,-3.3628,-3.3951,-3.3511,0.0,0.0,0.0,0.0,0.0,0.0,-3.3354,0.0,-3.3576,-3.3845,-3.4246,-3.5099,-3.6319,-3.6361,-3.6989,-3.8257,-3.8376,-3.9475,-4.1509,-4.2544,-4.2986,-4.3024,-4.2986,-4.2158,-4.0814,-4.2321,-4.2108,-4.0802,-4.2346,-4.2974,-4.2974,-4.2638,-4.2525,-4.2525,-4.2525,-4.2525,-4.2581,0.0,0.0,0.0,0.0,0.0,0.0,0.0,0.0,0.0,0.0,0.0,0.0,0.0,0.0,0.0,0.0,0.0,0.0,0.0,0.0,0.0,0.0,0.0,0.0,0.0,0.0,0.0,0.0,0.0,-1.5921,-1.6021,-1.663,-1.7086,-1.7399,-1.8348,-1.9597,-2.1,-2.1721,-2.2978,-2.4563,0.0,-2.5671,-2.6377,0.0,0.0,0.0,0.0,0.0,0.0,0.0,0.0,0.0,0.0,-2.6628,-2.6574,-2.7097,-2.8593,-3.0182,-3.0603,-3.2147,-3.3744,-3.4224,-3.403,-3.3738,-3.3738,-3.3681,-3.3231,-3.187,-3.0508,-2.9104,0.0,0.0,0.0,-3.0047,-3.0308,0.0,-3.4164,-3.3051,0.0,-3.3196,0.0,-3.2444,-3.3508,-3.3923,0.0,0.0,-3.388,-3.4886,-3.5667,-3.5827,-3.5929,-3.6034,-3.6044,-3.6624,-3.7921,-3.9768,-4.0937,-4.1509,-4.2544,-4.3187,-4.3576,-4.3162,-4.3187,-4.3551,-4.315,-4.2974,-4.2961,-4.2974,-4.2974,-4.2974,-4.2918,-4.2862,-4.2862,-4.2862,-4.2862,-4.2862,0.0,0.0,0.0,0.0,0.0,0.0,0.0,0.0,0.0,0.0,0.0,0.0,0.0,0.0,0.0,0.0,0.0,0.0,0.0,0.0,0.0,0.0,0.0,0.0,0.0,0.0,0.0,0.0,0.0,0.0,0.0,-1.733,-1.7826,-1.7997,-1.9007,-2.0016,-2.0944,-2.1681,0.0,0.0,0.0,0.0,0.0,0.0,0.0,0.0,0.0,0.0,0.0,0.0,0.0,-2.6214,-2.9929,-2.9726,-2.8522,-3.0103,0.0,-3.2268,-3.1987,-3.3236,-3.4568,-3.4199,-3.3749,-3.3187,-3.2363,-3.2424,-3.1987,-2.9764,-2.894,0.0,0.0,0.0,0.0,0.0,0.0,0.0,-3.4563,-3.397,-3.3456,0.0,-3.3005,0.0,-3.607,-3.5942,-3.5349,0.0,-3.4342,-3.4403,-3.4763,-3.4974,-3.5292,-3.5654,-3.5675,-3.671,-3.8942,-4.0774,-4.2123,-4.3069,-4.3506,-4.3865,-4.4154,-4.384,-4.3639,-4.3539,0.0,-4.3325,-4.2748,-4.3162,-4.32,-4.2974,-4.2862,-4.2806,-4.2806,-4.2806,-4.2806,-4.2806,0.0,0.0,0.0,0.0,0.0,0.0,0.0,0.0,0.0,0.0,0.0,0.0,0.0,0.0,0.0,0.0,0.0,0.0,0.0,0.0,0.0,0.0,0.0,0.0,0.0,0.0,0.0,0.0,0.0,0.0,0.0,0.0,0.0,0.0,0.0,0.0,0.0,0.0,0.0,0.0,0.0,0.0,0.0,0.0,0.0,0.0,0.0,0.0,0.0,0.0,-2.8764,-2.7099,-3.3153,-3.2737,-3.0686,-3.4361,-3.4949,-3.4357,-3.426,-3.4902,-3.5367,-3.468,-3.4019,-3.321,-3.1615,-3.1454,-3.0889,-2.8312,0.0,-2.8435,-2.6068,0.0,-2.9505,-3.0798,0.0,-3.4794,-3.474,-3.5521,-3.5627,-3.4498,-3.3373,-3.4061,-3.7559,-3.7142,-3.6866,-3.7398,-3.5287,-3.3707,-3.3182,-3.3534,-3.4399,-3.5717,-3.581,-3.7468,-4.0832,-4.1625,-4.3063,-4.5093,-4.4747,-4.4618,-4.4618,-4.4618,-4.3878,-4.2728,0.0,0.0,-4.1827,-4.3237,-4.3476,-4.2974,-4.2694,-4.2581,-4.2581,-4.2581,-4.2581,-4.2638,0.0,0.0,0.0,0.0,0.0,0.0,0.0,0.0,0.0,0.0,-1.4677,-1.4955,0.0,0.0,0.0,0.0,0.0,0.0,0.0,0.0,0.0,0.0,0.0,0.0,0.0,0.0,0.0,0.0,0.0,0.0,0.0,0.0,0.0,0.0,0.0,0.0,0.0,0.0,0.0,0.0,0.0,0.0,0.0,0.0,0.0,0.0,0.0,0.0,0.0,0.0,-3.1369,-3.1068,-3.4366,-3.4545,-3.3623,-3.4016,-3.4698,-3.5337,-3.5204,-3.5794,-3.6414,-3.6545,-3.6154,-3.5729,-3.584,-3.4211,0.0,0.0,0.0,-2.7949,-2.7797,-2.91,0.0,-3.3284,0.0,0.0,0.0,0.0,-3.5868,0.0,0.0,0.0,0.0,0.0,0.0,0.0,0.0,0.0,-3.5604,-3.5594,-3.6288,-3.7675,-3.8054,-3.9696,-4.2697,-4.2674,-4.3455,-4.5093,-4.4747,-4.4618,-4.4618,-4.4618,-4.4731,-4.4895,0.0,0.0,-4.4041,-4.3865,-4.3476,-4.2974,-4.2918,-4.2918,-4.2918,-4.2918,-4.2918,-4.2918,0.0,0.0,0.0,0.0,0.0,0.0,0.0,-1.4569,-1.4569,-1.4497,-1.434,-1.4433,-1.5028,-1.4781,0.0,0.0,0.0,0.0,0.0,0.0,0.0,0.0,0.0,0.0,0.0,0.0,0.0,0.0,0.0,0.0,0.0,0.0,0.0,0.0,0.0,0.0,0.0,0.0,0.0,0.0,0.0,0.0,0.0,0.0,0.0,0.0,0.0,0.0,0.0,0.0,-3.1073,-3.188,-3.6045,-3.6671,-3.5696,-3.4768,-3.6039,-3.7264,-3.5434,-3.6105,-3.7222,-3.69,-3.6719,-3.6148,-3.4428,0.0,0.0,0.0,-2.7672,-2.7089,-2.7308,0.0,0.0,0.0,0.0,0.0,0.0,0.0,0.0,0.0,0.0,0.0,0.0,0.0,0.0,0.0,0.0,0.0,-3.76,-3.7496,-3.7799,-3.8474,-4.0043,-4.1712,-4.3396,-4.3911,-4.4737,-4.5746,-4.5556,-4.5497,-4.5497,-4.5497,-4.5648,-4.5899,-4.5623,0.0,-4.3388,-4.3978,-4.3225,-4.1781,-4.2635,-4.2974,-4.2974,-4.2974,-4.2974,-4.2974,0.0,0.0,0.0,0.0,0.0,0.0,0.0,-1.4434,-1.4423,-1.4316,-1.4011,-1.392,-1.409,-1.423,-1.4473,0.0,0.0,0.0,0.0,0.0,0.0,0.0,0.0,0.0,0.0,0.0,0.0,0.0,0.0,0.0,0.0,0.0,0.0,0.0,0.0,0.0,0.0,0.0,0.0,0.0,0.0,0.0,0.0,0.0,0.0,0.0,0.0,0.0,0.0,0.0,-3.0246,-3.1461,-3.6258,-3.7096,-3.6146,-3.552,-3.7083,-3.8488,-3.6221,-3.6936,-3.8108,-3.7382,-3.7395,-3.6778,-3.3432,-3.2783,0.0,0.0,-2.7158,-2.7113,-2.7628,0.0,0.0,0.0,0.0,0.0,0.0,0.0,0.0,0.0,0.0,0.0,0.0,0.0,0.0,0.0,0.0,0.0,0.0,-3.9482,-3.963,-3.983,-4.1986,-4.3482,-4.416,-4.5159,-4.5886,-4.6313,-4.6313,-4.6313,-4.6313,-4.6313,-4.6313,-4.6313,-4.6313,0.0,0.0,-4.394,-4.2999,-4.0676,-4.2333,-4.2974,-4.2974,-4.2974,-4.2974,-4.2974,0.0,0.0,0.0,0.0,0.0,0.0,0.0,-1.423,-1.3956,-1.3956,-1.3766,-1.3531,-1.3258,-1.3322,-1.3738,0.0,0.0,0.0,0.0,0.0,0.0,0.0,0.0,0.0,0.0,0.0,0.0,0.0,0.0,0.0,0.0,0.0,0.0,0.0,0.0,0.0,0.0,0.0,0.0,0.0,0.0,0.0,0.0,0.0,0.0,0.0,0.0,0.0,0.0,0.0,0.0,-3.0791,-3.2916,-3.3434,-3.3637,-3.5326,0.0,0.0,-3.883,-3.9353,-3.9478,-3.9154,-3.9445,-3.9306,-3.743,0.0,0.0,-3.2047,-3.0075,-2.93,-3.1306,-3.2164,-3.3445,0.0,0.0,-3.5054,0.0,0.0,0.0,0.0,0.0,0.0,0.0,0.0,0.0,0.0,0.0,0.0,0.0,-4.1697,-4.2256,-4.3117,-4.3805,-4.4768,-4.6045,-4.6178,-4.6263,-4.6313,-4.6313,-4.6313,-4.6313,-4.6313,-4.6313,-4.6313,0.0,0.0,0.0,-4.394,-4.2999,-4.0676,-4.2333,-4.2974,-4.2974,-4.2974,-4.2974,-4.2974,0.0,0.0,0.0,0.0,0.0,0.0,-1.4533,-1.4379,-1.4249,-1.4037,-1.3769,-1.3531,-1.3359,-1.3233,-1.3429,-1.4061,0.0,0.0,0.0,0.0,0.0,0.0,0.0,0.0,0.0,0.0,0.0,0.0,0.0,0.0,0.0,0.0,0.0,0.0,0.0,0.0,0.0,0.0,0.0,0.0,0.0,0.0,0.0,0.0,0.0,0.0,0.0,0.0,0.0,0.0,0.0,0.0,-2.8881,-2.9605,0.0,0.0,-3.5347,-3.7257,-3.7159,-3.8254,-3.9426,-3.9322,-3.9929,-3.9758,-3.6737,0.0,0.0,-3.1524,-2.9856,-2.9264,-3.0532,-3.0947,-3.1867,-3.4168,0.0,0.0,0.0,0.0,0.0,0.0,0.0,0.0,0.0,0.0,0.0,0.0,0.0,0.0,0.0,-4.3822,-4.3648,-4.4023,-4.4976,-4.5732,-4.6301,-4.6313,-4.6313,-4.6313,-4.6313,-4.6313,-4.6313,-4.6313,-4.6313,-4.6313,0.0,0.0,0.0,-4.3526,-4.2409,-3.927,-4.1944,-4.2974,-4.2974,-4.2974,-4.2862,-4.2694,0.0,0.0,0.0,0.0,0.0,-1.5062,-1.4613,-1.4446,-1.4304,-1.4055,-1.3792,-1.3546,-1.3335,-1.3302,-1.3369,-1.3476,-1.3805,0.0,0.0,0.0,0.0,0.0,0.0,0.0,0.0,0.0,-1.6628,-1.7324,0.0,0.0,0.0,0.0,0.0,0.0,0.0,0.0,0.0,0.0,0.0,0.0,0.0,0.0,0.0,0.0,0.0,0.0,0.0,0.0,0.0,0.0,0.0,0.0,0.0,0.0,0.0,0.0,-3.4107,-3.6678,-3.5906,-3.7456,-3.9258,-3.8998,-3.9207,-3.8646,0.0,0.0,0.0,-3.0642,-2.958,-2.9315,-2.9716,-2.9792,-3.052,-3.2759,0.0,-3.4587,0.0,0.0,0.0,0.0,0.0,0.0,0.0,0.0,0.0,0.0,0.0,0.0,0.0,-4.5403,-4.489,-4.489,-4.5793,-4.6313,-4.6313,-4.6313,-4.6313,-4.6313,-4.6313,-4.6137,-4.5824,-4.6163,-4.6125,-4.5836,0.0,0.0,0.0,-4.3463,-4.2296,-3.9032,-4.1869,-4.2974,-4.2974,-4.2974,-4.2806,-4.2525,0.0,0.0,0.0,0.0,0.0,0.0,-1.4935,-1.4312,-1.3917,-1.3909,-1.3716,-1.342,-1.2957,-1.3431,-1.3536,-1.2883,-1.3522,0.0,0.0,0.0,0.0,0.0,0.0,0.0,0.0,0.0,-1.6489,-1.6907,-1.7305,-1.7676,0.0,0.0,0.0,0.0,0.0,0.0,0.0,0.0,0.0,0.0,0.0,0.0,0.0,0.0,0.0,0.0,0.0,0.0,0.0,0.0,0.0,0.0,0.0,0.0,0.0,0.0,-3.2777,-3.5305,-3.6158,-3.7802,-3.9102,-3.825,-3.7064,-3.5771,0.0,0.0,0.0,-3.0091,-2.9792,-2.9779,-2.9792,-2.9792,-3.052,-3.2759,-3.3533,0.0,0.0,0.0,0.0,0.0,0.0,0.0,0.0,0.0,0.0,0.0,0.0,0.0,0.0,0.0,-4.6313,-4.6313,-4.6313,-4.6313,-4.6313,-4.6313,-4.6313,-4.6313,-4.6313,-4.5723,-4.4681,-4.5799,-4.5698,0.0,0.0,0.0,0.0,-4.3928,-4.2986,-4.0651,-4.2321,-4.2974,-4.2974,-4.2974,-4.2806,-4.2525,0.0,0.0,0.0,0.0,0.0,0.0,0.0,-1.4589,-1.4332,-1.4261,-1.4198,-1.4052,-1.376,-1.4013,-1.3971,-1.3333,-1.3734,0.0,0.0,0.0,0.0,0.0,0.0,0.0,0.0,0.0,-1.6052,-1.6897,-1.7111,-1.748,-1.8008,-1.8008,-1.8008,0.0,0.0,0.0,0.0,0.0,0.0,0.0,0.0,0.0,0.0,0.0,0.0,0.0,0.0,0.0,0.0,0.0,0.0,0.0,0.0,0.0,0.0,-2.875,0.0,0.0,-3.3553,-3.4431,-3.5174,-3.5424,-3.5176,-3.4502,-3.3046,0.0,0.0,-3.0131,-2.9792,-2.9792,-2.9792,-2.9792,-3.052,-3.2759,-3.3219,0.0,0.0,0.0,0.0,0.0,0.0,0.0,0.0,0.0,0.0,0.0,0.0,0.0,0.0,0.0,-4.6313,-4.6313,-4.6313,-4.6313,-4.6313,-4.6313,-4.6313,-4.6313,-4.6313,-4.5723,-4.4669,-4.5799,0.0,0.0,0.0,0.0,0.0,-4.394,-4.2999,-4.0676,-4.2333,-4.2974,-4.2974,-4.2974,-4.2806,-4.2525,0.0,0.0,0.0,0.0,0.0,0.0,0.0,-1.4784,-1.4569,-1.4497,-1.4461,-1.4335,-1.3953,-1.424,-1.4124,-1.3309,-1.3826,0.0,0.0,0.0,0.0,0.0,0.0,0.0,-1.4873,-1.5152,-1.5663,-1.6413,-1.6718,-1.7301,-1.8155,-1.7952,-1.8052,-1.8351,-1.8201,0.0,0.0,0.0,0.0,0.0,0.0,0.0,-2.1902,0.0,0.0,0.0,0.0,0.0,0.0,0.0,0.0,0.0,0.0,0.0,0.0,0.0,-2.9087,-3.0487,0.0,-3.2889,-3.3625,-3.4049,-3.3461,0.0,0.0,0.0,0.0,0.0,0.0,0.0,-2.9942,-3.047,-3.121,-3.1791,0.0,0.0,0.0,0.0,0.0,0.0,0.0,0.0,0.0,0.0,0.0,0.0,0.0,0.0,0.0,0.0,-4.5999,-4.5999,-4.62,-4.6313,-4.6313,-4.6313,-4.6313,-4.6313,-4.6313,-4.5723,-4.4669,-4.5799,0.0,0.0,0.0,0.0,0.0,-4.4204,-4.3363,-4.1543,-4.2572,-4.2974,-4.2974,-4.2974,-4.2806,-4.2525,0.0,0.0,0.0,0.0,0.0,0.0,0.0,-1.4856,-1.4605,-1.4605,-1.4605,-1.4371,-1.3727,-1.4257,-1.4193,-1.3009,0.0,0.0,0.0,0.0,0.0,0.0,0.0,0.0,-1.4506,-1.5025,-1.5404,-1.5668,-1.6174,-1.7129,-1.8383,-1.7905,-1.8132,-1.8949,-1.8535,-1.8258,0.0,0.0,0.0,0.0,0.0,0.0,0.0,0.0,0.0,0.0,0.0,0.0,0.0,0.0,0.0,0.0,0.0,0.0,0.0,0.0,0.0,0.0,0.0,-3.2605,0.0,0.0,0.0,0.0,0.0,0.0,0.0,0.0,0.0,0.0,0.0,0.0,0.0,0.0,0.0,0.0,0.0,0.0,0.0,0.0,0.0,0.0,0.0,0.0,0.0,0.0,0.0,0.0,0.0,0.0,0.0,-4.5434,-4.5924,-4.6225,-4.6313,-4.6313,-4.625,-4.6137,-4.625,-4.5648,-4.4493,-4.5736,0.0,0.0,0.0,0.0,0.0,-4.4581,-4.394,-4.2974,-4.2974,-4.2974,-4.2974,-4.2974,-4.2806,-4.2525,0.0,0.0,0.0,0.0,0.0,0.0,0.0,0.0,0.0,0.0,-1.4605,-1.4537,-1.4379,-1.4764,-1.4779,0.0,0.0,0.0,0.0,0.0,0.0,0.0,0.0,0.0,-1.4666,-1.5035,-1.5623,-1.6437,-1.6719,-1.7398,-1.8473,-1.8355,-1.8343,-1.8472,-1.8882,-1.8944,0.0,0.0,0.0,0.0,0.0,0.0,0.0,0.0,0.0,0.0,-2.4474,-2.4791,0.0,0.0,0.0,0.0,0.0,0.0,0.0,0.0,-2.8775,-2.9665,-3.0152,0.0,-3.0089,-3.0645,-2.9995,-2.9434,0.0,0.0,0.0,0.0,0.0,0.0,0.0,0.0,0.0,0.0,0.0,0.0,0.0,0.0,0.0,0.0,0.0,0.0,0.0,0.0,0.0,0.0,0.0,0.0,0.0,0.0,0.0,-4.4832,-4.4957,-4.5434,-4.6301,-4.6313,-4.5673,-4.4405,-4.5698,-4.5058,-4.2811,-4.5221,0.0,0.0,0.0,0.0,-4.4593,-4.4166,-4.3589,-4.2974,-4.2974,-4.2974,-4.2974,-4.2974,-4.2974,-4.2862,0.0,0.0,0.0,0.0,0.0,0.0,0.0,0.0,0.0,0.0,0.0,0.0,0.0,0.0,0.0,0.0,0.0,0.0,0.0,0.0,0.0,0.0,0.0,-1.5059,-1.5108,-1.5642,-1.6226,-1.684,-1.7233,-1.7889,-1.8692,-1.8955,-1.9111,-1.9208,-1.9169,-1.9209,0.0,0.0,0.0,0.0,0.0,0.0,0.0,0.0,0.0,0.0,-2.3836,-2.4325,0.0,-2.4293,-2.4677,-2.5333,0.0,0.0,0.0,0.0,-2.8712,-2.9453,-2.9716,-2.9186,-2.8932,-3.0655,-2.9831,-2.9072,-3.0692,0.0,0.0,0.0,0.0,0.0,0.0,0.0,0.0,0.0,0.0,0.0,0.0,0.0,0.0,0.0,0.0,0.0,0.0,0.0,0.0,0.0,0.0,0.0,0.0,0.0,0.0,0.0,-4.4493,-4.5045,-4.5924,-4.5937,-4.5221,-4.3815,-4.551,-4.5121,-4.2974,-4.5008,0.0,0.0,0.0,0.0,-4.4179,-4.3376,-4.3024,-4.2974,-4.2974,-4.2974,-4.2974,-4.2974,-4.2974,-4.2974,0.0,0.0,0.0,0.0,0.0,0.0,0.0,0.0,0.0,0.0,0.0,0.0,0.0,0.0,0.0,0.0,0.0,0.0,0.0,0.0,0.0,0.0,-1.5166,-1.5575,-1.5786,-1.65,-1.7004,-1.7277,-1.7792,-1.8362,-1.906,-1.9414,-1.9859,-2.0304,-1.9533,-1.9388,0.0,0.0,0.0,0.0,-1.8186,0.0,0.0,0.0,0.0,0.0,0.0,0.0,0.0,-2.3755,-2.4102,-2.4867,-2.5044,0.0,0.0,0.0,0.0,0.0,-2.959,-2.902,-2.8971,-3.187,-3.0519,-2.917,-3.1987,0.0,0.0,0.0,0.0,0.0,0.0,0.0,0.0,0.0,0.0,0.0,0.0,0.0,0.0,0.0,0.0,0.0,0.0,0.0,0.0,0.0,0.0,0.0,0.0,0.0,0.0,0.0,-4.4129,-4.4656,-4.5221,-4.5309,-4.4744,-4.3576,-4.5246,-4.5053,-4.3292,-4.4736,-4.5241,0.0,0.0,0.0,-4.3714,-4.2753,-4.2615,-4.2974,-4.2974,-4.2974,-4.2974,-4.2974,-4.2974,-4.2974,0.0,0.0,0.0,0.0,0.0,0.0,0.0,0.0,0.0,0.0,0.0,0.0,0.0,0.0,0.0,0.0,0.0,0.0,0.0,0.0,0.0,-1.5029,-1.5517,-1.6065,-1.6595,-1.695,-1.7623,-1.8623,-1.8269,-1.863,-1.9646,-1.9272,-1.9606,-2.0532,-2.0232,-2.0063,-1.9966,-1.9285,-1.9158,-1.9433,-1.9094,0.0,0.0,0.0,0.0,0.0,0.0,0.0,0.0,-2.396,-2.401,-2.4312,-2.5217,0.0,0.0,0.0,0.0,0.0,-2.9359,-2.8879,-2.8971,-3.187,-3.0914,-2.9811,-3.2073,0.0,0.0,0.0,0.0,0.0,0.0,0.0,0.0,0.0,0.0,0.0,0.0,0.0,0.0,0.0,0.0,0.0,0.0,0.0,0.0,0.0,0.0,0.0,0.0,0.0,0.0,0.0,0.0,-4.3501,-4.4053,-4.4518,-4.3966,-4.2489,-4.4091,-4.3474,-4.0946,-4.3556,-4.416,0.0,0.0,-4.3714,-4.3752,-4.3112,-4.2898,-4.2974,-4.2974,-4.2974,-4.2974,-4.2974,-4.2974,-4.2974,0.0,0.0,0.0,0.0,0.0,0.0,0.0,0.0,0.0,0.0,0.0,0.0,0.0,0.0,0.0,0.0,0.0,0.0,0.0,0.0,-1.6159,-1.6478,-1.688,-1.6974,-1.6765,-1.784,-1.8562,-1.8955,-1.9297,-1.9424,-1.936,-1.9708,-2.0286,-2.1043,-2.1021,-2.0968,-2.0855,-2.0209,-2.0392,-2.1012,0.0,0.0,0.0,0.0,0.0,0.0,0.0,0.0,0.0,0.0,-2.4507,-2.512,-2.5625,0.0,0.0,0.0,0.0,0.0,-2.9413,-2.9192,-2.9561,-3.2911,-3.1159,-2.9889,-3.4585,-3.2506,0.0,0.0,0.0,0.0,0.0,0.0,0.0,0.0,0.0,0.0,0.0,0.0,0.0,0.0,0.0,0.0,0.0,0.0,0.0,0.0,0.0,0.0,0.0,0.0,0.0,0.0,-4.2974,-4.3099,-4.3363,-4.3614,-4.32,-4.2225,-4.3827,-4.3099,-4.0411,-4.297,-4.3461,-4.2324,0.0,-4.2811,-4.3288,-4.2446,-4.2446,-4.2974,-4.2974,-4.2974,-4.2974,-4.2974,-4.2974,-4.2974,0.0,0.0,0.0,0.0,0.0,0.0,0.0,0.0,0.0,0.0,0.0,0.0,0.0,0.0,0.0,0.0,0.0,0.0,0.0,0.0,-1.6859,-1.7757,-1.8051,-1.7963,-1.7523,-1.8803,-1.9452,-1.9372,-1.9949,-1.9805,-1.9011,-1.9973,-2.0735,-2.1354,-2.1485,-2.1603,-2.1674,-2.1016,-2.1479,-2.2551,0.0,0.0,0.0,0.0,0.0,0.0,0.0,0.0,0.0,0.0,0.0,0.0,0.0,0.0,0.0,-2.7618,-2.7972,-2.8111,-2.9363,-2.9417,-2.9914,-3.3293,-3.1174,-2.9963,-3.6436,-3.3612,0.0,0.0,0.0,0.0,0.0,0.0,0.0,0.0,0.0,0.0,0.0,0.0,0.0,0.0,0.0,0.0,0.0,0.0,0.0,0.0,0.0,0.0,0.0,0.0,0.0,0.0,-4.2974,-4.2974,-4.2974,-4.2974,-4.276,-4.2414,-4.3639,-4.2913,-4.0579,-4.2636,-4.2893,-4.1687,-4.1694,-4.2195,-4.2911,-4.207,-4.2221,-4.2974,-4.2974,-4.2974,-4.2974,-4.2974,-4.2974,-4.2974,0.0,0.0,0.0,0.0,0.0,0.0,0.0,0.0,0.0,0.0,0.0,0.0,0.0,0.0,0.0,0.0,0.0,0.0,0.0,0.0,-1.7214,-1.803,-1.8334,-1.8924,-1.9831,-1.9785,-2.0021,-2.0473,-1.9564,-1.9071,-1.8999,-1.9603,-2.0313,-2.1133,-2.133,-2.1662,-2.2039,-2.1806,-2.2342,-2.3273,-2.2702,0.0,0.0,0.0,0.0,0.0,0.0,0.0,0.0,0.0,0.0,0.0,0.0,0.0,-2.5157,-2.7433,-2.7624,-2.7417,-2.8984,-2.9275,-2.9644,-3.1927,-3.0748,-3.0396,-3.5636,-3.3367,0.0,-3.5955,0.0,0.0,0.0,0.0,0.0,0.0,0.0,0.0,0.0,0.0,0.0,0.0,0.0,0.0,0.0,0.0,0.0,0.0,0.0,0.0,0.0,0.0,0.0,0.0,0.0,-4.2974,-4.2974,-4.2974,-4.2961,-4.2924,-4.3037,-4.2381,-4.1097,-4.2413,-4.2381,-4.1206,-4.2382,-4.2911,-4.2974,-4.2886,-4.2911,-4.2974,-4.2974,-4.2974,-4.2974,-4.2974,-4.2974,-4.2974,0.0,0.0,0.0,0.0,0.0,0.0,0.0,0.0,0.0,0.0,0.0,0.0,0.0,0.0,0.0,0.0,0.0,0.0,0.0,-1.7138,-1.7619,-1.8379,-1.9093,-1.9911,-2.0778,-2.0376,-2.0141,-2.0093,-1.936,-1.8987,-1.9011,-2.0113,-2.0665,-2.0864,-2.2171,-2.2944,-2.3306,-2.3646,-2.4442,-2.5378,-2.4608,-2.4582,0.0,0.0,0.0,0.0,0.0,0.0,0.0,0.0,-2.5109,-2.5908,0.0,-2.5911,-2.5912,-2.7598,-2.7801,-2.7766,-2.9058,-2.9236,-2.9779,-3.2626,-3.1203,0.0,0.0,-3.3976,-3.2394,-3.729,-3.5405,0.0,0.0,0.0,0.0,0.0,0.0,0.0,0.0,0.0,0.0,0.0,0.0,0.0,0.0,0.0,0.0,0.0,0.0,0.0,0.0,0.0,0.0,0.0,0.0,-4.2974,-4.2974,-4.2974,-4.2974,-4.2974,-4.2974,-4.2331,-4.1157,-4.2444,-4.2331,-4.1157,-4.2444,-4.2974,-4.2974,-4.2974,-4.2974,-4.2974,-4.2974,-4.2974,-4.2974,-4.2974,-4.2974,-4.2974,0.0,0.0,0.0,0.0,0.0,0.0,0.0,0.0,0.0,0.0,0.0,0.0,0.0,0.0,0.0,0.0,0.0,0.0,-1.7082,-1.7348,-1.8007,-1.9173,-1.9803,-2.0605,-2.1662,-2.1033,-2.0488,-2.0061,-1.9363,-1.8987,-1.9037,-2.026,-2.0757,-2.0718,-2.2602,-2.3653,-2.4078,-2.4924,-2.5829,-2.6621,-2.5621,-2.5262,0.0,0.0,0.0,0.0,0.0,0.0,0.0,0.0,0.0,0.0,0.0,0.0,0.0,0.0,-2.7716,-2.7668,-2.9134,-2.9326,-2.9831,-3.2933,0.0,0.0,-3.6259,-3.4593,-3.315,-3.769,-3.621,0.0,0.0,0.0,0.0,0.0,0.0,0.0,0.0,0.0,0.0,0.0,0.0,0.0,0.0,0.0,0.0,0.0,0.0,0.0,0.0,0.0,0.0,0.0,0.0,0.0,-4.2974,-4.2974,-4.2974,-4.2974,-4.2974,-4.2569,-4.1741,-4.2625,-4.25,-4.1741,-4.2206,-4.2388,-4.2388,-4.2388,-4.2625,-4.2974,-4.2974,-4.2974,-4.2974,-4.2974,-4.2974,-4.2974,0.0,0.0,0.0,0.0,0.0,0.0,0.0,0.0,0.0,0.0,0.0,0.0,0.0,0.0,0.0,0.0,0.0,0.0,-1.7468,-1.7495,-1.8416,-2.0511,-2.027,-2.0907,-2.2645,-2.1853,-2.1127,-2.0591,-1.9516,-1.8999,-1.9037,-1.9851,-2.0407,-2.0792,-2.2422,-2.3492,-2.4197,-2.5397,-2.6231,-2.6602,-2.555,-2.518,-2.5134,0.0,0.0,0.0,0.0,0.0,0.0,0.0,-2.5403,0.0,0.0,0.0,0.0,0.0,-2.7164,-2.692,-2.9212,-2.9481,-2.9739,0.0,0.0,0.0,-3.6267,-3.5025,-3.3578,-3.6653,0.0,0.0,0.0,0.0,0.0,0.0,0.0,0.0,0.0,0.0,0.0,0.0,0.0,0.0,0.0,0.0,0.0,0.0,0.0,0.0,0.0,0.0,0.0,0.0,0.0,0.0,-4.2974,-4.2974,-4.2974,-4.2974,-4.2974,-4.2974,-4.2974,-4.2974,-4.2974,-4.2918,-4.1684,-4.11,-4.11,-4.11,-4.1854,-4.2974,-4.2974,-4.2974,-4.2974,-4.2974,-4.2974,-4.2974,0.0,0.0,0.0,0.0,0.0,0.0,0.0,0.0,0.0,0.0,0.0,0.0,0.0,0.0,0.0,0.0,0.0,0.0,-1.7486,-1.826,-1.8986,-1.9574,-2.0326,-2.103,-2.1629,-2.149,-2.0947,-2.0049,-2.0093,-2.0048,-1.9932,-2.0732,-2.16,-2.256,-2.4672,-2.5619,-2.5703,-2.7374,-2.7781,-2.7157,-2.6094,-2.5358,-2.4738,0.0,0.0,0.0,0.0,0.0,0.0,0.0,0.0,0.0,0.0,0.0,0.0,-2.8784,-2.8435,-2.7852,-3.105,-3.0636,0.0,0.0,0.0,0.0,0.0,-3.404,0.0,0.0,0.0,0.0,0.0,0.0,0.0,0.0,0.0,0.0,0.0,0.0,0.0,0.0,0.0,0.0,0.0,0.0,0.0,0.0,0.0,0.0,0.0,0.0,0.0,0.0,0.0,0.0,-4.2974,-4.2974,-4.2974,-4.2974,-4.2974,-4.2974,-4.2974,-4.2974,-4.2974,-4.2974,-4.2625,-4.1923,-4.1043,-4.0152,-4.0512,-4.1684,-4.1684,-4.2206,-4.2974,-4.2974,-4.2974,-4.2974,0.0,0.0,0.0,0.0,0.0,0.0,0.0,0.0,0.0,0.0,-1.6735,-1.6908,0.0,0.0,0.0,0.0,0.0,0.0,0.0,-1.8376,-1.8971,-1.9469,-2.022,-2.093,-2.1562,-2.1689,-2.1296,-2.0458,-2.0681,-2.073,-2.0622,-2.1358,-2.2071,-2.281,-2.4806,-2.5691,-2.5832,-2.724,-2.7587,-2.7078,-2.5985,-2.5077,-2.4301,0.0,0.0,0.0,0.0,0.0,0.0,0.0,0.0,0.0,0.0,0.0,0.0,-2.8559,-2.8829,-2.9332,-3.1816,0.0,0.0,0.0,0.0,0.0,0.0,0.0,0.0,0.0,0.0,0.0,0.0,0.0,0.0,0.0,0.0,0.0,0.0,0.0,0.0,0.0,0.0,0.0,0.0,0.0,0.0,0.0,0.0,0.0,0.0,0.0,0.0,0.0,0.0,0.0,-4.2974,-4.2974,-4.2974,-4.2974,-4.2974,-4.2974,-4.2974,-4.2974,-4.2974,-4.2974,-4.2444,-4.1797,-4.0973,-3.9744,-3.9931,-4.1043,-4.057,-4.11,-4.2275,-4.2275,-4.2569,-4.2974,0.0,0.0,0.0,0.0,0.0,0.0,0.0,0.0,0.0,0.0,-1.6908,-1.6908,0.0,0.0,0.0,0.0,0.0,0.0,0.0,0.0,-1.8745,-1.9854,-2.0122,-2.0874,-2.2135,-2.2197,-2.1988,-2.1536,-2.1349,-2.1264,-2.1308,-2.1845,-2.2159,-2.242,-2.3787,-2.4687,-2.521,-2.6052,-2.653,-2.6589,-2.539,-2.4484,-2.3771,-2.3382,0.0,0.0,0.0,0.0,0.0,0.0,0.0,0.0,0.0,0.0,-2.8871,-2.7385,-2.8776,-3.1025,0.0,0.0,0.0,0.0,0.0,0.0,0.0,0.0,0.0,0.0,0.0,0.0,0.0,0.0,0.0,0.0,0.0,0.0,0.0,0.0,0.0,0.0,0.0,0.0,0.0,0.0,0.0,0.0,0.0,0.0,0.0,0.0,0.0,0.0,0.0,0.0,-4.2918,-4.2918,-4.2974,0.0,-4.2974,-4.2974,-4.2974,-4.2974,-4.2974,-4.2918,-4.1627,-4.11,-4.0973,-3.9744,-3.9931,-4.0973,-3.9814,-4.0094,-4.11,-4.11,-4.1854,-4.2806,0.0,0.0,0.0,0.0,0.0,0.0,0.0,0.0,0.0,0.0,0.0,0.0,0.0,0.0,0.0,0.0,0.0,0.0,0.0,0.0,-1.9463,-1.9878,-2.0927,-2.1642,-2.1968,-2.2123,-2.2261,-2.2414,-2.2383,-2.2489,-2.2761,-2.2665,-2.3467,-2.504,-2.6218,-2.6608,-2.6438,-2.8121,-2.7941,-2.633,-2.4925,-2.3884,-2.3083,-2.2249,-2.1867,0.0,0.0,0.0,0.0,0.0,0.0,0.0,-2.5641,-2.6111,-2.6941,-2.8285,-2.9782,-3.1538,0.0,0.0,0.0,0.0,0.0,0.0,0.0,0.0,0.0,0.0,0.0,0.0,0.0,0.0,0.0,0.0,0.0,0.0,0.0,0.0,0.0,0.0,0.0,0.0,0.0,0.0,0.0,0.0,0.0,0.0,0.0,0.0,0.0,0.0,0.0,-4.2287,-4.2287,-4.2287,-4.2513,0.0,-4.2974,-4.2974,-4.2974,-4.2974,-4.2974,-4.2918,-4.1627,-4.11,-4.0973,-3.9744,-3.9931,-4.11,-4.0801,-4.0858,-4.11,-4.11,-4.1272,-4.1513,0.0,0.0,0.0,0.0,0.0,0.0,0.0,0.0,0.0,0.0,0.0,0.0,0.0,0.0,0.0,0.0,0.0,0.0,0.0,0.0,-1.9062,-1.9813,-2.1124,-2.1937,-2.2278,-2.2216,-2.2523,-2.3183,-2.3183,-2.3386,-2.3831,-2.412,-2.481,-2.5819,-2.6406,-2.67,-2.6752,-2.758,-2.7198,-2.5922,-2.4745,-2.3675,-2.2728,-2.2445,-2.2284,-2.2267,-2.3334,0.0,0.0,0.0,0.0,0.0,0.0,0.0,-2.7656,-2.7755,-2.9104,-3.0976,0.0,0.0,0.0,0.0,0.0,0.0,0.0,0.0,0.0,0.0,0.0,0.0,0.0,0.0,0.0,0.0,0.0,0.0,0.0,0.0,0.0,0.0,0.0,0.0,0.0,0.0,0.0,0.0,0.0,0.0,0.0,0.0,0.0,0.0,-4.1594,-4.1594,-4.1594,-4.1594,-4.1948,-4.2581,-4.2581,-4.275,-4.2974,-4.2974,-4.2974,-4.2974,-4.2275,-4.1684,-4.0973,-3.9744,-3.9216,-3.9205,-3.8614,-3.8732,-3.9252,-3.9252,-4.0024,-4.11,0.0,0.0,0.0,0.0,0.0,0.0,0.0,0.0,0.0,0.0,0.0,0.0,0.0,0.0,0.0,0.0,0.0,0.0,0.0,0.0,0.0,-2.0085,-2.1178,-2.2042,-2.2555,-2.2437,-2.2816,-2.3653,-2.3915,-2.4437,-2.5236,-2.5832,-2.6173,-2.6173,-2.6277,-2.6419,-2.6543,-2.6348,-2.6038,-2.5568,-2.4712,-2.3687,-2.274,-2.3064,-2.3024,-2.2862,-2.3758,-2.4258,-2.4496,-2.4626,0.0,0.0,0.0,0.0,-2.8499,-2.67,-2.8077,-3.0366,0.0,0.0,0.0,0.0,0.0,0.0,0.0,0.0,0.0,0.0,0.0,0.0,0.0,0.0,0.0,0.0,0.0,0.0,0.0,0.0,0.0,0.0,0.0,0.0,0.0,0.0,0.0,0.0,0.0,0.0,0.0,0.0,-4.1765,-4.0976,-4.0918,-4.0918,-4.0918,-4.0918,-4.1263,-4.1948,-4.2049,-4.24,-4.2974,-4.2974,-4.2974,-4.2974,-4.2974,-4.2388,-4.1329,-4.028,-3.9087,-3.7839,-3.6785,-3.6775,-3.7298,-3.7298,-3.8602,-4.0442,0.0,0.0,0.0,0.0,0.0,0.0,0.0,0.0,0.0,0.0,-1.6908,0.0,0.0,0.0,0.0,0.0,0.0,0.0,0.0,0.0,0.0,-2.1391,-2.1874,-2.2092,-2.203,-2.2693,-2.3201,-2.3547,-2.4803,-2.632,-2.8055,-2.7716,-2.758,-2.7743,-2.8256,-2.753,-2.5963,-2.6618,-2.6509,-2.5752,-2.4677,-2.391,-2.343,-2.3021,-2.3047,-2.3382,-2.4171,-2.4458,-2.4556,-2.5047,-2.5287,0.0,0.0,0.0,-2.6314,-2.6031,-2.845,0.0,0.0,0.0,0.0,0.0,0.0,0.0,0.0,0.0,0.0,0.0,0.0,0.0,0.0,0.0,0.0,0.0,0.0,0.0,0.0,0.0,0.0,0.0,0.0,0.0,0.0,0.0,0.0,0.0,0.0,0.0,0.0,-4.2118,-4.1537,-4.0339,-4.0339,-4.0339,-4.0339,-4.0339,-4.0629,-4.1263,-4.1822,-4.24,-4.2974,-4.2974,-4.2974,-4.2974,-4.2974,-4.2918,-4.2737,-4.2557,-4.1741,-4.0558,-4.0384,-3.9075,-3.7298,-3.7298,-3.7539,-3.7839,0.0,0.0,0.0,0.0,0.0,0.0,0.0,0.0,0.0,0.0,0.0,-1.6874,0.0,0.0,0.0,0.0,0.0,0.0,0.0,0.0,0.0,-2.1233,-2.1861,-2.2171,-2.2073,-2.2818,-2.3474,-2.4043,-2.4826,-2.6744,-2.9707,-2.9492,-2.9007,-2.8392,-2.9945,-2.8913,-2.6104,-2.7595,-2.7329,-2.5838,-2.5324,-2.4895,-2.4623,-2.4763,-2.4818,-2.4893,-2.5505,-2.5473,-2.5139,-2.538,-2.5465,-2.55,-2.5571,0.0,0.0,0.0,-2.7273,0.0,0.0,0.0,0.0,0.0,0.0,0.0,0.0,0.0,0.0,0.0,0.0,0.0,0.0,0.0,0.0,0.0,0.0,0.0,0.0,0.0,0.0,0.0,0.0,0.0,0.0,0.0,0.0,0.0,0.0,0.0,-4.1606,-4.1549,-4.0964,-3.9708,-3.9708,-3.9708,-3.9708,-3.9708,-4.0001,-4.0629,-4.1594,-4.2231,-4.2513,-4.2862,-4.2974,-4.2974,-4.2974,-4.2625,-4.1866,-4.1157,-4.0152,-3.891,-3.8197,-3.7188,-3.6247,-3.6247,-3.6714,-3.7418,0.0,0.0,0.0,0.0,0.0,0.0,0.0,0.0,0.0,0.0,0.0,0.0,0.0,0.0,0.0,0.0,0.0,0.0,0.0,0.0,0.0,-2.1407,-2.1953,-2.2371,-2.2575,-2.3029,-2.3723,-2.4711,-2.4951,-2.6756,-2.9993,-3.0419,-2.9895,-2.8764,-3.0662,-2.9896,-2.7331,-2.8499,-2.8086,-2.6671,-2.6602,-2.6343,-2.599,-2.638,-2.6439,-2.634,-2.6623,-2.6296,-2.5788,-2.5654,-2.5571,-2.5535,-2.5535,-2.5571,0.0,0.0,0.0,0.0,0.0,0.0,0.0,0.0,0.0,0.0,0.0,0.0,0.0,0.0,0.0,0.0,0.0,0.0,0.0,0.0,0.0,0.0,0.0,0.0,0.0,0.0,0.0,0.0,0.0,0.0,0.0,0.0,0.0,0.0,-4.1136,-4.0976,-4.0397,-3.9356,-3.9308,-3.9308,-3.9308,-3.9308,-3.9591,-4.0223,-4.1136,-4.1777,-4.2118,-4.2581,-4.2862,-4.2974,-4.2974,-4.2444,-4.1513,-4.0222,-3.891,-3.7659,-3.6359,-3.5716,-3.5418,-3.5418,-3.6013,-3.6946,0.0,0.0,0.0,0.0,0.0,0.0,0.0,0.0,0.0,0.0,0.0,0.0,-1.6647,-1.6795,-1.683,-1.6638,-1.7827,0.0,0.0,0.0,0.0,-2.2784,-2.2542,0.0,-2.3595,-2.3517,-2.4072,-2.5263,-2.5662,-2.6654,-2.8273,-2.9867,-3.0005,-2.8913,-2.9732,-3.0101,-3.0011,-2.8894,-2.8545,-2.875,-2.8725,-2.8201,-2.7373,-2.7072,-2.7172,-2.7361,-2.6869,-2.6541,-2.6287,-2.5776,-2.5453,-2.5312,-2.5312,-2.5453,-2.5641,0.0,0.0,0.0,0.0,0.0,0.0,0.0,0.0,0.0,0.0,0.0,0.0,0.0,0.0,0.0,0.0,0.0,0.0,0.0,0.0,0.0,0.0,0.0,0.0,0.0,0.0,0.0,0.0,0.0,0.0,0.0,0.0,0.0,-4.1124,-4.0571,-3.9943,-3.9297,-3.9308,-3.9308,-3.9308,-3.9308,-3.9591,-4.0223,-4.0281,-4.0906,-4.2118,-4.2105,-4.2457,-4.2974,-4.2974,-4.2974,-4.2806,-4.1513,-4.0268,-3.898,-3.7719,-3.6481,-3.5418,-3.5418,-3.5418,-3.5541,0.0,0.0,0.0,0.0,0.0,0.0,0.0,0.0,0.0,0.0,0.0,0.0,0.0,-1.7539,-1.7804,-1.724,-1.8876,0.0,0.0,0.0,0.0,-2.2457,-2.2217,-2.2382,-2.3041,-2.3569,-2.4172,-2.4865,-2.5564,-2.6491,-2.7595,-2.8197,-2.8637,-2.9013,-3.1779,-3.1281,-2.8506,-3.0916,0.0,0.0,0.0,-3.0628,-2.8525,-2.985,-3.0213,0.0,0.0,0.0,0.0,-2.6928,-2.6133,-2.5688,-2.5688,-2.5723,-2.5902,-2.6445,-2.7078,-2.826,-3.1373,0.0,0.0,0.0,0.0,0.0,0.0,0.0,0.0,0.0,0.0,0.0,0.0,0.0,0.0,0.0,0.0,0.0,0.0,0.0,0.0,0.0,0.0,0.0,0.0,0.0,0.0,0.0,0.0,0.0,-4.1076,-3.9931,-3.9254,-3.9285,-3.9308,-3.9308,-3.9308,-3.9308,-3.9426,-3.965,-3.9989,-4.0455,-4.0906,-4.1251,-4.1822,-4.24,-4.24,-4.2638,-4.2862,-4.0743,-3.9627,-3.898,-3.6896,-3.5767,-3.5418,-3.5418,-3.5418,-3.5541,0.0,0.0,0.0,0.0,0.0,0.0,0.0,0.0,-1.6908,-1.6908,0.0,0.0,0.0,0.0,-1.8199,-1.7915,-1.946,-2.0449,-2.0464,-2.1711,-2.2457,-2.2379,-2.2246,-2.2501,-2.3202,-2.356,-2.4186,-2.5083,-2.5467,-2.602,-2.6728,-2.7293,-2.7758,-2.8247,-3.1587,-3.1524,0.0,0.0,0.0,-3.0018,0.0,0.0,-3.0931,0.0,0.0,0.0,0.0,0.0,0.0,0.0,0.0,-2.7225,-2.7041,-2.6524,-2.6089,-2.6576,-2.6989,-2.7808,-3.0181,0.0,0.0,0.0,0.0,0.0,0.0,0.0,0.0,0.0,0.0,0.0,0.0,0.0,0.0,0.0,0.0,0.0,0.0,0.0,0.0,0.0,0.0,0.0,0.0,0.0,0.0,0.0,0.0,0.0,-4.0812,-3.9585,-3.9001,-3.9285,-3.9308,-3.9308,-3.9308,-3.9308,-3.9308,-3.9308,-3.9708,-3.9989,-4.0223,-4.0629,-4.1263,-4.2118,-4.2118,-4.2457,-4.2806,-4.028,-3.9216,-3.8921,-3.6369,-3.5418,-3.5418,-3.5418,-3.5418,-3.5541,0.0,0.0,0.0,0.0,0.0,0.0,0.0,0.0,-1.689,-1.6908,0.0,0.0,0.0,0.0,0.0,-1.8668,-1.9599,-2.0546,-2.1529,-2.2457,-2.2889,-2.2707,0.0,0.0,0.0,-2.3595,-2.4186,-2.6081,-2.5432,-2.5301,-2.5636,-2.7268,-2.7457,-2.6549,-2.8762,-3.0608,-3.2164,0.0,-3.3671,-3.4525,0.0,-3.4274,-3.4367,0.0,0.0,0.0,-3.3508,-3.2752,0.0,-3.2461,0.0,0.0,0.0,-2.7792,-2.6213,-2.6213,-2.6714,-2.7381,0.0,0.0,0.0,0.0,0.0,0.0,0.0,0.0,0.0,0.0,0.0,0.0,0.0,0.0,0.0,0.0,0.0,0.0,0.0,0.0,0.0,0.0,0.0,0.0,0.0,0.0,0.0,0.0,0.0,-3.971,-4.0274,-3.9663,-3.9308,-3.9308,-3.9308,-3.9308,-3.9308,-3.9297,-3.9285,-3.9285,-3.9262,-3.9545,-4.0118,-4.0118,-4.0813,-4.2024,-4.2024,-4.2388,-4.2793,-4.028,-3.9228,-3.8921,-3.6431,-3.5418,-3.5418,-3.5418,-3.5418,-3.5418,0.0,0.0,0.0,0.0,0.0,-1.5806,-1.6263,-1.6308,-1.6442,0.0,0.0,0.0,-1.7064,-1.7666,-1.8518,-1.9606,-2.0435,-2.0909,-2.0956,-2.2117,-2.2753,-2.2719,-2.2719,-2.3294,-2.4622,-2.4375,-2.4804,-2.5955,-2.6067,-2.5945,-2.5598,-2.6076,-2.5925,0.0,-2.7168,-2.8674,-2.9991,-3.3006,0.0,0.0,-3.6056,-3.5303,0.0,0.0,0.0,0.0,0.0,-3.3903,-3.317,0.0,-3.1914,-2.9549,0.0,-2.6884,-2.643,-2.643,-2.6565,-2.6839,-2.7392,0.0,0.0,0.0,0.0,0.0,0.0,0.0,0.0,0.0,0.0,0.0,0.0,0.0,0.0,0.0,0.0,0.0,0.0,0.0,0.0,0.0,0.0,0.0,0.0,0.0,0.0,0.0,-3.9206,-3.8984,-4.0226,-3.9663,-3.9308,-3.9308,-3.9308,-3.9308,-3.9308,-3.8964,-3.878,-3.878,-3.839,-3.8321,-3.8492,-3.8492,-3.9135,-4.023,-4.023,-4.1015,-4.2287,-4.1043,-4.0048,-3.9039,-3.7429,-3.6186,-3.5418,-3.5418,-3.5418,-3.5418,0.0,0.0,0.0,0.0,0.0,-1.5652,-1.6224,-1.6313,-1.6462,0.0,0.0,0.0,-1.7015,-1.7544,-1.8053,-1.8469,-1.9716,-2.0413,-2.023,-2.1755,-2.2719,-2.2719,-2.2719,-2.3259,-2.4437,-2.4311,-2.475,-2.591,-2.6043,-2.6084,-2.5996,-2.5996,-2.5661,-2.5209,0.0,0.0,0.0,0.0,0.0,0.0,-3.6107,0.0,0.0,-3.6358,-3.5981,0.0,0.0,0.0,-3.5378,-3.6081,-3.4022,0.0,0.0,0.0,-2.6675,-2.7618,-2.7228,-2.6612,-2.7165,-2.7281,-2.7392,0.0,0.0,0.0,0.0,0.0,0.0,0.0,0.0,0.0,0.0,0.0,0.0,0.0,0.0,0.0,0.0,0.0,0.0,0.0,0.0,0.0,0.0,0.0,0.0,0.0,-3.9218,-3.8962,-3.982,-3.9488,-3.9308,-3.9308,-3.9308,-3.9216,-3.901,-3.8734,-3.8481,-3.8252,-3.7942,-3.7793,-3.7793,-3.7793,-3.8283,-3.9186,-3.941,-4.0353,-4.1742,-4.1598,-4.057,-3.9039,-3.7779,-3.6531,-3.5418,-3.5418,-3.5418,-3.5418,0.0,0.0,-1.5287,-1.5546,-1.5659,-1.5886,-1.6417,-1.6471,-1.6567,0.0,-1.714,-1.7288,-1.709,-1.7252,-1.7153,-1.6544,-1.8443,-1.9689,-1.9724,-2.1685,-2.2833,-2.2833,-2.2833,-2.327,-2.4188,-2.3929,-2.4529,-2.598,-2.5781,-2.595,-2.6499,-2.6499,-2.6223,-2.5737,0.0,0.0,0.0,0.0,0.0,-3.5801,-3.5215,-3.6659,0.0,0.0,-3.7274,0.0,-3.912,-3.8743,-3.7588,-3.9019,-3.6847,0.0,0.0,0.0,0.0,0.0,-2.8146,-2.6675,-2.7115,-2.7178,-2.7118,0.0,0.0,0.0,-2.8662,-3.1521,0.0,0.0,0.0,0.0,0.0,0.0,0.0,0.0,0.0,0.0,0.0,0.0,0.0,0.0,0.0,0.0,0.0,0.0,-3.9722,-3.9785,-3.9653,-3.9528,-3.9427,-3.9367,-3.9308,-3.9308,-3.9308,-3.9067,-3.8596,-3.8527,-3.8229,-3.7701,-3.7643,-3.762,-3.762,-3.762,-3.7982,-3.8557,-3.9026,-3.9953,-4.1231,-4.171,-4.0822,-3.9098,-3.7958,-3.6664,-3.5418,-3.5418,-3.5418,-3.5418,0.0,-1.4588,-1.5045,-1.4519,-1.4791,-1.5221,-1.5649,-1.5711,-1.5893,-1.6376,-1.6483,-1.6492,-1.6316,-1.7255,-1.7828,-1.7687,-1.9621,-2.0954,-2.1094,-2.2764,-2.3757,-2.3757,-2.3757,-2.4316,-2.5483,-2.48,-2.5076,-2.6396,-2.6339,-2.6386,-2.6499,-2.6499,-2.6436,-2.6348,0.0,0.0,0.0,0.0,0.0,-3.2616,-3.5529,0.0,-3.5956,-3.8304,-3.7814,-3.621,-3.927,-3.9572,-3.8517,0.0,-3.7462,-3.5855,0.0,0.0,0.0,0.0,0.0,0.0,0.0,0.0,0.0,0.0,0.0,0.0,-2.8047,-2.9202,0.0,0.0,0.0,0.0,0.0,0.0,0.0,0.0,0.0,0.0,0.0,0.0,0.0,0.0,0.0,0.0,0.0,0.0,-3.9873,-4.0325,-4.0215,-4.0078,-4.0013,-3.9591,-3.9308,-3.9308,-3.9308,-3.9067,-3.8596,-3.816,-3.7689,-3.7173,-3.6759,-3.6564,-3.6564,-3.6564,-3.6838,-3.7352,-3.7455,-3.8671,-4.058,-4.0688,-4.0156,-3.9169,-3.8921,-3.744,-3.5418,-3.5418,-3.5418,-3.5418,-1.4411,-1.4818,-1.5124,-1.4863,-1.5019,-1.5338,-1.5721,-1.5782,-1.5922,-1.6254,-1.6337,-1.639,-1.6483,-1.749,-1.8046,-1.7807,-2.016,-2.1507,-2.121,-2.3039,-2.4095,-2.4095,-2.405,-2.4505,-2.5594,-2.5117,-2.5379,-2.6499,-2.6499,-2.6499,-2.6499,-2.6499,-2.6499,-2.6524,0.0,0.0,0.0,0.0,-3.0306,-3.2039,-3.4839,0.0,-3.5881,-3.8944,-3.9245,-3.8229,-4.0172,-4.0576,-3.9936,-3.8818,-3.7877,0.0,0.0,-3.2629,-3.0043,0.0,-2.7959,-2.6851,0.0,0.0,0.0,-2.6763,0.0,0.0,0.0,-2.8925,0.0,0.0,0.0,0.0,0.0,0.0,0.0,0.0,0.0,0.0,0.0,0.0,0.0,0.0,0.0,0.0,0.0,0.0,-4.0474,-4.0414,-4.0333,-4.014,-3.9802,-3.9473,-3.9308,-3.9308,-3.9067,-3.87,-3.8194,-3.7666,-3.7161,-3.6656,-3.6392,-3.632,-3.632,-3.632,-3.6415,-3.6668,-3.692,-3.7952,-3.9578,-3.984,-3.9499,-3.8766,-3.911,-3.8029,-3.6247,-3.5654,-3.5418,-3.5418,-1.5248,-1.5379,-1.5515,-1.5561,-1.5599,-1.5747,-1.6053,-1.6061,-1.6131,-1.6343,-1.6633,-1.7049,-1.7624,-1.8427,-1.888,-1.8684,-2.1145,-2.2316,-2.1365,-2.3468,-2.4609,-2.4321,-2.412,-2.4423,-2.53,-2.5024,-2.5333,-2.628,-2.6349,-2.6396,-2.6396,-2.6452,0.0,0.0,0.0,0.0,0.0,0.0,0.0,-3.2704,0.0,-3.5692,-3.6521,-3.9421,-4.045,-4.0475,-4.1342,-4.1601,-4.1404,-3.9747,0.0,-3.7525,-3.7651,-3.4274,0.0,0.0,0.0,0.0,0.0,0.0,0.0,0.0,0.0,-2.6587,0.0,0.0,0.0,0.0,0.0,0.0,0.0,0.0,0.0,0.0,0.0,0.0,0.0,0.0,0.0,0.0,0.0,0.0,0.0,0.0,-4.0571,-4.0318,-4.0306,-4.0071,-3.9509,-3.9356,-3.9262,-3.917,-3.8791,-3.8275,-3.7655,-3.7242,-3.6771,-3.632,-3.632,-3.632,-3.632,-3.632,-3.632,-3.6343,-3.6714,-3.7507,-3.8633,-3.9139,-3.8943,-3.8394,-3.8839,-3.8149,-3.6835,-3.5777,-3.5418,-3.5418,-1.5388,-1.6008,-1.6499,-1.5877,-1.6015,-1.6184,-1.6096,-1.5929,-1.6032,-1.6586,-1.7633,-1.8909,-2.036,-2.0941,-2.1568,-2.2409,-2.394,-2.4257,-2.2841,0.0,-2.6098,-2.4776,-2.4272,-2.4423,-2.53,-2.4517,-2.4575,-2.5453,-2.5793,-2.598,-2.598,-2.6327,0.0,0.0,-2.7833,0.0,0.0,0.0,-3.2616,0.0,-3.6571,-3.6835,0.0,-3.927,-4.0212,-4.0049,-4.207,-4.2785,-4.2534,0.0,-3.9597,-3.8479,0.0,-3.4424,-3.1851,0.0,0.0,0.0,0.0,0.0,0.0,0.0,-2.644,0.0,0.0,0.0,0.0,0.0,0.0,0.0,0.0,0.0,0.0,0.0,0.0,0.0,0.0,0.0,0.0,0.0,0.0,0.0,0.0,0.0,0.0,-4.0281,-4.0314,-4.0242,-4.0083,-3.9591,-3.9113,-3.8677,-3.8619,-3.8114,-3.7071,-3.7014,-3.6771,-3.632,-3.632,-3.632,-3.632,-3.632,-3.632,-3.632,-3.6335,-3.704,-3.8115,-3.8609,-3.8627,-3.8388,-3.8408,-3.7281,-3.5592,-3.5479,-3.5418,-3.5418,-1.6265,-1.6567,-1.6784,-1.6327,-1.64,-1.6403,-1.6132,-1.5929,-1.6076,-1.6783,-1.7242,-1.8262,-2.0309,0.0,0.0,0.0,0.0,-2.6755,0.0,0.0,-2.6449,-2.5811,-2.4939,-2.472,-2.53,-2.5177,-2.5387,-2.599,-2.6176,-2.6258,0.0,-2.6756,0.0,0.0,-2.7858,0.0,-3.1399,0.0,0.0,0.0,0.0,0.0,0.0,-4.0199,-4.1517,-4.1593,-4.1568,-4.2158,-4.2534,0.0,-3.9559,0.0,0.0,0.0,0.0,0.0,0.0,0.0,0.0,0.0,0.0,0.0,0.0,0.0,-2.8812,0.0,-2.704,0.0,0.0,0.0,0.0,0.0,0.0,0.0,0.0,0.0,0.0,0.0,0.0,0.0,0.0,0.0,0.0,0.0,0.0,0.0,0.0,-3.8299,-3.7923,-3.8226,-3.8332,-3.8126,-3.7839,-3.7483,-3.6979,-3.6736,-3.6484,-3.632,-3.632,-3.632,-3.632,-3.632,-3.632,-3.632,-3.632,-3.6729,-3.7446,-3.7644,-3.7326,-3.6787,-3.672,-3.6417,-3.5858,-3.5531,-3.5418,-3.5418,-1.6908,-1.6908,-1.6839,-1.6716,-1.6647,-1.6543,-1.6342,-1.6497,-1.6917,-1.7785,-1.8089,0.0,-2.1475,-2.2886,0.0,0.0,-2.8032,-2.8999,0.0,0.0,-2.7341,0.0,0.0,0.0,0.0,-2.5481,-2.5583,-2.5851,-2.6072,-2.6251,0.0,0.0,0.0,0.0,0.0,-2.9327,-3.1424,0.0,0.0,-3.5984,-3.6335,-3.7437,-3.8994,-4.0953,-4.2233,-4.2823,-4.1618,-4.1957,-4.2484,-3.9195,-3.9597,0.0,-3.8215,0.0,0.0,0.0,0.0,0.0,-3.1746,0.0,0.0,0.0,0.0,0.0,0.0,0.0,0.0,0.0,0.0,0.0,0.0,0.0,0.0,-2.6348,0.0,0.0,0.0,0.0,0.0,0.0,0.0,0.0,0.0,0.0,0.0,0.0,-3.6889,0.0,-3.6168,-3.7188,-3.7724,-3.7586,-3.7219,-3.6966,-3.6828,-3.6461,-3.632,-3.632,-3.632,-3.632,-3.632,-3.632,-3.632,-3.632,-3.632,-3.6484,-3.684,-3.6922,-3.6267,-3.5128,-3.5445,-3.546,-3.5222,-3.4963,-3.4984,-3.5108,-1.6908,-1.6908,-1.6908,0.0,0.0,0.0,-1.6838,-1.7905,0.0,0.0,0.0,0.0,0.0,0.0,0.0,0.0,0.0,-3.0675,-3.0147,0.0,-2.9401,0.0,0.0,-2.4915,0.0,0.0,-2.4261,-2.4261,-2.5004,-2.56,0.0,0.0,0.0,0.0,0.0,-2.9327,-3.1499,-3.3131,-3.5102,-3.7362,-3.9997,-4.1794,-4.2635,0.0,-4.1568,-4.2974,-4.2924,0.0,0.0,-4.099,-4.0124,0.0,0.0,0.0,0.0,0.0,0.0,0.0,0.0,0.0,0.0,-3.1901,0.0,0.0,0.0,0.0,-2.7281,0.0,0.0,0.0,0.0,-2.6524,-2.6336,-2.5724,-2.599,0.0,0.0,0.0,0.0,0.0,0.0,0.0,0.0,0.0,0.0,0.0,-3.5469,0.0,-3.5903,-3.7089,-3.7563,-3.7014,-3.6991,-3.6794,-3.6355,-3.6332,-3.632,-3.632,-3.632,-3.632,-3.632,-3.632,-3.632,-3.632,-3.632,-3.6332,-3.6335,-3.6828,-3.576,-3.3992,-3.5128,-3.4319,-3.2603,-3.3228,-3.3859,-3.4423,0.0,-1.6908,0.0,0.0,0.0,0.0,0.0,-1.7852,0.0,0.0,0.0,0.0,0.0,0.0,-2.8651,0.0,0.0,-3.3155,-3.2305,-3.1766,0.0,0.0,0.0,-2.808,0.0,0.0,-2.6823,-2.6382,-2.6639,-2.698,-2.7445,0.0,0.0,0.0,0.0,-2.9139,0.0,0.0,0.0,0.0,0.0,-4.0802,-4.0902,0.0,0.0,-4.2974,-4.2974,-4.2974,0.0,-4.0651,-4.0814,-4.1618,-4.0149,-3.9433,-3.9383,-4.0717,-3.8869,0.0,0.0,0.0,-3.6169,-3.5416,0.0,0.0,0.0,0.0,0.0,0.0,0.0,0.0,0.0,-2.6862,-2.6389,-2.6691,-2.6439,-2.6139,0.0,0.0,0.0,0.0,0.0,0.0,0.0,0.0,0.0,-3.1742,-3.1735,-3.185,0.0,-3.4076,-3.5062,-3.5037,-3.6002,-3.6449,-3.632,-3.632,-3.632,-3.632,-3.632,-3.632,-3.632,-3.632,-3.632,-3.632,-3.632,-3.632,-3.6289,-3.6461,-3.5793,-3.4645,-3.4466,-3.3609,-3.258,-3.3185,-3.3544,-3.3796,-1.733,0.0,0.0,0.0,0.0,0.0,0.0,0.0,0.0,0.0,-2.2964,0.0,-2.8088,0.0,-3.0022,0.0,-3.305,-3.4211,-3.4085,-3.2569,0.0,-3.3511,-3.1065,0.0,0.0,0.0,0.0,-2.8766,-2.7588,-2.7717,-2.9061,0.0,0.0,0.0,0.0,0.0,0.0,0.0,-3.5608,0.0,0.0,-4.0651,0.0,0.0,-4.2472,-4.2974,0.0,-4.2974,-4.276,-4.1342,-4.1806,-4.2735,-4.1304,-4.1103,-4.1492,-4.2062,-4.0578,-3.8793,-3.8868,-3.8919,0.0,-3.7726,-3.7098,0.0,-3.5671,0.0,0.0,0.0,0.0,0.0,0.0,0.0,-2.7938,-2.7645,-2.7139,-2.66,0.0,-2.5793,0.0,0.0,0.0,0.0,0.0,0.0,-2.8217,-2.942,-2.9475,-2.9635,0.0,0.0,-3.3862,-3.4004,-3.5485,-3.632,-3.632,-3.632,-3.632,-3.632,-3.632,-3.632,-3.632,-3.632,-3.632,-3.632,-3.632,-3.632,-3.632,-3.632,-3.5824,-3.4983,-3.4167,-3.3306,-3.2617,-3.2685,-3.2848,-3.3111,0.0,0.0,0.0,0.0,-1.7935,0.0,0.0,0.0,-2.2449,0.0,-2.5789,-2.6384,-2.912,-2.9767,-3.0466,-3.1601,-3.273,0.0,-3.5313,-3.2294,0.0,0.0,-3.1398,-3.017,-3.25,0.0,0.0,0.0,0.0,-2.7863,-3.0811,0.0,0.0,0.0,-2.8348,0.0,-2.8398,-3.2893,-3.5144,-3.6009,-3.9157,-4.1379,-4.2685,-4.1116,0.0,-4.2974,-4.2974,-4.2974,-4.2974,-4.2974,-4.2974,-4.2974,-4.2974,-4.2974,-4.2873,-4.2401,-4.2602,-4.2597,-4.1028,-4.1342,-4.1534,-3.8831,0.0,0.0,0.0,0.0,-3.4839,0.0,0.0,0.0,0.0,0.0,-3.0746,-2.8649,-2.7989,-2.7273,-2.5871,-2.5442,0.0,0.0,0.0,0.0,0.0,-2.8079,-2.8779,-2.7271,-2.8642,0.0,0.0,0.0,-3.3843,-3.3993,-3.5347,-3.614,-3.632,-3.622,-3.622,-3.632,-3.632,-3.632,-3.632,-3.632,-3.632,-3.632,-3.632,-3.632,-3.632,-3.632,-3.5869,-3.5076,-3.4125,-3.3226,-3.243,-3.1669,-3.1772,-3.2422,-1.8145,-1.8201,-1.8403,0.0,-1.9237,-2.0145,0.0,0.0,0.0,0.0,-2.6814,-2.8034,-3.0762,-3.2072,-3.2432,-3.1807,-3.3384,0.0,0.0,0.0,0.0,-3.6002,-3.4946,-3.4108,-3.3625,-3.273,0.0,-3.2066,0.0,0.0,-3.1209,0.0,0.0,0.0,0.0,0.0,-2.8448,-3.3709,-3.7211,-3.9207,-3.8806,-3.9659,0.0,0.0,-4.1543,-4.2974,-4.2974,-4.2974,-4.2974,-4.2974,-4.2974,-4.2974,-4.2974,-4.2974,-4.2949,-4.2866,-4.2627,-4.2326,-4.1898,-4.1643,-4.1379,-4.0611,-3.9973,-3.9333,0.0,0.0,0.0,0.0,0.0,0.0,0.0,0.0,0.0,-3.1207,-2.9146,-2.7323,-2.6527,0.0,0.0,0.0,0.0,0.0,0.0,-2.619,-2.6627,-2.6615,-2.7062,0.0,0.0,0.0,0.0,-3.3935,-3.3344,-3.405,-3.6254,-3.5359,-3.5359,-3.632,-3.632,-3.632,-3.632,-3.632,-3.632,-3.632,-3.632,-3.632,-3.632,-3.632,-3.6171,-3.5824,-3.4069,-3.2493,-3.1269,-3.1359,-3.1506,-3.1763,-1.8512,0.0,0.0,-1.917,0.0,0.0,-2.2089,0.0,0.0,-2.7442,-2.8327,0.0,-3.1468,-3.305,-3.367,-3.2963,-3.3328,0.0,0.0,0.0,0.0,-3.624,-3.5864,-3.5118,-3.4027,-3.3798,0.0,-3.3474,0.0,0.0,-3.1799,0.0,0.0,0.0,0.0,-2.8275,0.0,-3.4374,-3.8191,-4.0438,-3.9484,0.0,0.0,-4.0789,-4.1543,-4.2974,-4.2974,-4.2974,-4.2974,-4.2974,-4.2974,-4.2974,-4.2974,-4.2974,-4.2924,-4.274,-4.2627,-4.2464,-4.1932,-4.1932,-4.1995,-4.1756,-4.1417,-4.1065,-4.0827,-4.0036,-3.9409,0.0,0.0,0.0,0.0,0.0,0.0,-3.2014,-2.9658,-2.7813,0.0,0.0,0.0,0.0,0.0,0.0,0.0,0.0,0.0,0.0,0.0,0.0,0.0,0.0,0.0,-3.1851,-3.2574,-3.3385,-3.43,-3.3804,-3.4196,-3.5451,-3.5451,-3.5733,-3.632,-3.632,-3.632,-3.632,-3.632,-3.632,-3.632,-3.632,-3.632,-3.6116,-3.4227,-3.2381,-3.0837,-3.1231,-3.1377,-3.1442,0.0,0.0,0.0,0.0,0.0,0.0,0.0,-2.4381,0.0,-2.8884,0.0,-3.0537,-3.1476,-3.3285,-3.4334,-3.4215,0.0,-3.334,-3.5847,-3.3537,-3.3309,-3.6116,-3.5482,-3.4911,-3.4509,-3.4016,0.0,0.0,0.0,0.0,0.0,0.0,0.0,0.0,0.0,0.0,0.0,-3.4876,-3.8278,0.0,-4.0513,-4.1379,-4.2522,-4.1304,-4.1731,-4.2974,-4.2974,-4.2974,-4.2974,-4.2974,-4.2974,-4.2974,-4.2974,-4.2974,-4.2886,-4.2451,-4.2652,-4.2773,-4.1819,-4.2258,-4.2861,-4.2439,-4.2678,-4.2848,-4.2426,-4.2313,-4.2313,-4.2313,-4.1882,-4.1241,0.0,0.0,0.0,-3.2062,0.0,0.0,0.0,0.0,0.0,0.0,0.0,0.0,0.0,0.0,0.0,0.0,0.0,0.0,0.0,0.0,0.0,-2.9545,-3.2245,0.0,-3.2004,0.0,-3.3208,-3.4589,-3.4452,-3.5078,-3.632,-3.632,-3.632,-3.632,-3.632,-3.632,-3.632,-3.632,-3.6211,-3.5908,-3.4323,-3.256,-3.0997,-3.1221,-3.1332,-3.1377,0.0,0.0,0.0,0.0,0.0,-2.3327,-2.5693,-2.6967,-2.7883,-2.8584,-2.9795,0.0,-3.0937,-3.337,-3.4619,-3.3813,-3.3834,0.0,0.0,0.0,0.0,-3.5813,-3.6319,-3.6794,-3.7115,-3.6633,-3.6415,0.0,0.0,0.0,-3.237,0.0,0.0,0.0,0.0,0.0,-3.5102,-3.514,0.0,-4.0513,-4.0513,-4.0689,-4.1065,-4.2133,-4.2723,-4.2974,-4.2974,-4.2974,-4.2974,-4.2974,-4.2974,-4.2974,-4.2974,-4.2974,-4.2961,-4.2861,-4.2898,-4.2936,-4.2748,-4.2836,-4.2949,-4.2848,-4.2898,-4.2949,-4.2848,-4.2891,-4.2891,-4.2891,-4.276,-4.2497,-4.1898,0.0,0.0,0.0,0.0,0.0,0.0,0.0,0.0,0.0,0.0,0.0,0.0,0.0,0.0,0.0,0.0,0.0,0.0,0.0,0.0,0.0,0.0,0.0,0.0,0.0,-3.3517,-3.5525,-3.4793,-3.5078,-3.632,-3.632,-3.632,-3.632,-3.632,-3.632,-3.632,-3.632,-3.5708,-3.4702,-3.3697,-3.2704,-3.1706,-3.1104,-3.1102,-3.1377,0.0,0.0,0.0,0.0,0.0,0.0,0.0,-2.815,0.0,-2.9102,-3.0429,-3.1228,-3.0856,-3.2623,-3.37,-3.3495,-3.2984,-3.3424,-3.5378,-3.4542,-3.4713,-3.6363,-3.7065,0.0,-3.6254,-3.7012,-3.692,-3.5875,0.0,0.0,-3.1623,-2.871,0.0,0.0,0.0,-3.2031,0.0,0.0,0.0,-3.9672,-4.0834,-4.1345,-4.1432,-4.2561,-4.2974,-4.2974,-4.2974,-4.2974,-4.2974,-4.2974,-4.2974,-4.2974,-4.2974,-4.2974,-4.2974,-4.2974,-4.2974,-4.2974,-4.2974,-4.2974,-4.2974,-4.2974,-4.2974,-4.2974,-4.2974,-4.2974,-4.2974,-4.2974,-4.2974,-4.2635,-4.1517,-3.9565,0.0,0.0,0.0,0.0,0.0,0.0,0.0,0.0,0.0,0.0,0.0,0.0,0.0,0.0,0.0,0.0,0.0,0.0,0.0,0.0,0.0,0.0,0.0,0.0,0.0,-3.5058,-3.4623,-3.5078,-3.632,-3.632,-3.632,-3.632,-3.632,-3.632,-3.632,-3.632,-3.5598,-3.4412,-3.3555,-3.2712,-3.1886,-3.1118,-3.1038,-3.1377,0.0,-2.2016,0.0,0.0,-2.4335,0.0,0.0,-2.8828,-2.992,-2.9837,-3.0936,-3.1541,-3.0991,-3.2017,-3.2838,-3.3021,-3.2173,-3.2685,-3.53,-3.4798,-3.505,-3.651,-3.7507,-3.7265,-3.5795,-3.7207,-3.7184,0.0,0.0,0.0,0.0,-2.8936,0.0,0.0,0.0,0.0,0.0,0.0,-3.8972,-3.9557,-4.1377,-4.2174,-4.2344,-4.2806,-4.2974,-4.2974,-4.2974,-4.2974,-4.2974,-4.2974,-4.2974,-4.2974,-4.2974,-4.2974,-4.2974,-4.2974,-4.2974,-4.2974,-4.2974,-4.2974,-4.2974,-4.2974,-4.2974,-4.2974,-4.2974,-4.2974,-4.2974,-4.2974,-4.2974,-4.2585,-4.1279,-4.0214,0.0,0.0,0.0,0.0,0.0,0.0,0.0,0.0,0.0,0.0,0.0,0.0,0.0,0.0,0.0,0.0,-2.7284,-2.8773,0.0,0.0,0.0,-3.1513,-3.1634,0.0,-3.3152,0.0,-3.4498,-3.5078,-3.632,-3.632,-3.632,-3.632,-3.632,-3.632,-3.632,-3.632,-3.5708,-3.4691,-3.3497,-3.268,-3.2058,-3.0962,-3.0838,-3.1193,0.0,0.0,0.0,0.0,0.0,0.0,0.0,-2.9424,-2.9479,-3.0534,-3.0825,-3.1,-3.1277,-3.2508,-3.2923,-3.1848,-3.2659,-3.2773,-3.1844,-3.3564,-3.4777,-3.5269,-3.7381,-3.8631,-3.8872,-3.8642,-3.8413,0.0,0.0,0.0,0.0,0.0,0.0,0.0,0.0,0.0,0.0,-3.8311,-3.9885,-4.1783,-4.1987,-4.24,-4.2918,-4.2974,-4.2974,-4.2974,-4.2974,-4.2974,-4.2974,-4.2974,-4.2974,-4.2974,-4.2974,-4.2974,-4.2974,-4.2974,-4.2974,-4.2974,-4.2974,-4.2974,-4.2974,-4.2974,-4.2974,-4.2974,-4.2974,-4.2974,-4.2974,-4.2974,-4.2974,-4.2924,-4.2773,-4.0848,-3.8811,0.0,0.0,0.0,0.0,0.0,0.0,0.0,0.0,0.0,0.0,0.0,0.0,0.0,0.0,-2.8089,-2.9088,-2.849,-2.8644,-2.9829,0.0,-2.9941,-3.1068,-3.1622,0.0,-3.5649,-3.4839,-3.5078,-3.632,-3.632,-3.632,-3.632,-3.632,-3.632,-3.632,-3.632,-3.6059,-3.5455,-3.347,-3.27,-3.2574,-3.0575,-3.0103,-3.0564,0.0,0.0,0.0,0.0,0.0,0.0,0.0,-3.0167,-3.0598,-3.1075,-3.1139,-3.1203,-3.1359,-3.1882,-3.1995,-3.1496,-3.1901,-3.2628,-3.3685,-3.4579,-3.5724,-3.7162,-3.8398,-3.8975,-3.8872,-3.8964,-3.8872,0.0,0.0,0.0,0.0,0.0,0.0,0.0,0.0,-3.6614,-3.7812,-3.87,-3.9601,-4.0501,-4.1206,-4.1663,-4.1948,-4.2694,-4.2974,-4.2974,-4.2974,-4.2974,-4.2974,-4.2974,-4.2974,-4.2974,-4.2974,-4.2974,-4.2974,-4.2974,-4.2974,-4.2974,-4.2974,-4.2974,-4.2974,-4.2974,-4.2974,-4.2974,-4.2974,-4.2974,-4.2974,-4.2974,-4.2974,-4.2974,-4.2974,-4.197,-4.0687,0.0,0.0,0.0,0.0,0.0,0.0,0.0,0.0,0.0,0.0,0.0,0.0,0.0,0.0,0.0,-2.863,-2.9136,-2.9906,-3.0997,0.0,-3.1965,-3.417,-3.364,-3.4305,-3.6114,-3.5702,-3.5725,-3.6004,-3.6223,-3.632,-3.632,-3.632,-3.6168,-3.6004,-3.6004,-3.5852,-3.5412,-3.3797,-3.3087,-3.2694,-3.1134,-3.0501,-3.0369,-2.848,0.0,-2.7774,0.0,-2.8948,-2.9571,-2.9736,-3.0681,-3.1295,-3.1066,-3.1231,-3.1377,-3.1377,-3.1377,-3.1231,-3.0873,-3.1176,-3.2188,-3.4048,-3.4931,-3.6221,-3.8045,-3.8883,0.0,-3.8803,-3.9136,-3.9136,-3.8791,-3.6622,0.0,0.0,0.0,0.0,0.0,-3.6648,-3.758,-3.8199,-3.8954,-3.9414,-3.965,-4.0513,-4.0918,-4.1206,-4.2118,-4.2569,-4.275,-4.275,-4.2862,-4.2974,-4.2974,-4.2974,-4.2974,-4.2974,-4.2974,-4.2974,-4.2974,-4.2974,-4.2974,-4.2974,-4.2974,-4.2974,-4.2974,-4.2974,-4.2974,-4.2974,-4.2974,-4.2974,-4.2974,-4.2974,-4.2974,-4.2974,-4.275,-4.1991,-4.0458,0.0,0.0,0.0,0.0,0.0,0.0,0.0,-3.5003,-3.6407,0.0,0.0,0.0,0.0,0.0,-2.896,-2.9463,0.0,0.0,0.0,0.0,0.0,-3.4061,-3.4505,-3.632,-3.6223,-3.6059,-3.5961,-3.6168,-3.632,-3.632,-3.632,-3.6168,-3.5961,-3.5852,-3.5632,-3.5301,-3.4099,-3.3203,-3.2443,-3.1369,-3.0555,-3.0035,-3.0167,-3.0167,-3.0277,-3.0681,-3.0754,-3.0644,-3.025,-3.0873,-3.1093,-3.0314,-3.0901,-3.1377,-3.1377,-3.1377,-3.0892,-2.976,-3.069,-3.1394,-3.1361,-3.3875,-3.5851,0.0,0.0,-3.9308,-3.9297,-3.9308,-3.9308,-3.9297,0.0,0.0,-3.4785,0.0,-3.5554,-3.7058,-3.8585,-3.9274,-3.9274,-3.9297,-3.965,-4.0165,-4.0235,-4.0571,-4.1091,-4.1148,-4.1537,-4.2118,-4.2118,-4.2513,-4.2974,-4.2974,-4.2974,-4.2974,-4.2974,-4.2974,-4.2974,-4.2974,-4.2974,-4.2974,-4.2974,-4.2974,-4.2974,-4.2974,-4.2974,-4.2974,-4.2974,-4.2974,-4.2974,-4.2974,-4.2974,-4.2974,-4.2974,-4.275,-4.2047,-4.0724,0.0,0.0,0.0,0.0,0.0,0.0,-3.3979,-3.3343,-3.4686,0.0,0.0,0.0,0.0,0.0,0.0,0.0,0.0,-3.0257,-2.8602,0.0,-3.1419,-3.1735,-3.3317,-3.632,-3.595,-3.5961,-3.6266,-3.632,-3.632,-3.632,-3.632,-3.632,-3.6277,-3.5961,-3.5632,-3.5301,-3.4099,-3.2902,-3.1818,-3.087,-2.9968,-2.9373,-2.9076,-3.0066,-3.0873,-3.0461,-3.0827,-3.1148,-3.102,-3.1222,-3.1286,-3.1038,-3.1222,-3.1377,-3.1377,-3.1377,-3.1222,0.0,-3.0396,-3.1317,0.0,-3.4129,-3.5441,-3.8435,-3.8057,-3.7758,-3.7758,-3.7758,-3.7758,-3.7758,0.0,0.0,0.0,-3.6323,-3.7127,-3.8596,-3.909,-3.9308,-3.9308,-3.9308,-3.9414,-3.9591,-4.0048,-4.0339,-4.0513,-4.0918,-4.1251,-4.1435,-4.1435,-4.1834,-4.24,-4.24,-4.2681,-4.2974,-4.2974,-4.2974,-4.2974,-4.2974,-4.2974,-4.2974,-4.2974,-4.2974,-4.2974,-4.2974,-4.2974,-4.2974,-4.2974,-4.2974,-4.2974,-4.2974,-4.2974,-4.2974,-4.2974,-4.2918,-4.2323,-4.0736,-4.1035,0.0,0.0,0.0,0.0,0.0,0.0,-3.6343,0.0,-3.5575,0.0,0.0,0.0,0.0,0.0,0.0,0.0,0.0,-3.2825,0.0,-3.4703,-3.3941,-3.4471,-3.632,-3.6168,-3.6059,-3.5961,-3.5577,-3.5632,-3.595,-3.595,-3.5852,-3.5687,-3.5797,-3.5412,-3.4747,-3.4635,-3.3841,-3.2682,-3.1772,-3.0897,-3.009,-2.9608,-3.0525,-3.1222,-3.0726,-3.1047,-3.1277,-3.0983,-3.1185,-3.1267,-3.0974,-3.1194,-3.1377,-3.1377,-3.1377,0.0,-3.1377,-3.069,-3.155,-3.4447,-3.3892,-3.4766,-3.773,-3.689,-3.6636,-3.7096,0.0,0.0,-3.7885,-3.7885,-3.7885,-3.7885,-3.7885,-3.8401,-3.9308,-3.9308,-3.9308,-3.9308,-3.9308,-3.9308,-3.9356,-3.9708,-3.9873,-3.9873,-4.0281,-4.0571,-4.0745,-4.0745,-4.1308,-4.2118,-4.2118,-4.2513,-4.2974,-4.2974,-4.2974,-4.2974,-4.2974,-4.2974,-4.2974,-4.2974,-4.2974,-4.2974,-4.2974,-4.2974,-4.2974,-4.2974,-4.2974,-4.2974,-4.2974,-4.2974,-4.2974,-4.2974,-4.2974,-4.2635,-4.1605,-4.2143,-4.24,-4.158,0.0,0.0,0.0,0.0,0.0,0.0,-3.7867,0.0,0.0,0.0,0.0,0.0,0.0,0.0,-3.3787,-3.38,0.0,-3.515,-3.44,-3.4682,-3.595,-3.595,-3.5797,-3.5467,-3.5257,-3.5312,-3.5632,-3.5632,-3.5522,-3.5423,-3.5577,-3.5246,-3.4702,-3.4935,-3.4278,-3.3066,-3.2197,-3.1342,-3.0465,-3.1222,-3.1304,0.0,0.0,-3.1341,0.0,-3.0396,-3.091,-3.1112,-3.0378,-3.0919,-3.1377,-3.1377,-3.1377,-3.1377,-3.1377,0.0,0.0,0.0,-3.3291,-3.3908,-3.5314,-3.5283,-3.5773,-3.6964,-3.7096,-3.7821,-3.9308,-3.9308,-3.9308,-3.9308,-3.9308,-3.9308,-3.9308,-3.9308,-3.9308,-3.9308,-3.9308,-3.9308,-3.9308,-3.9308,-3.9308,-3.9308,-3.9308,-3.965,-4.0106,-4.0106,-4.0918,-4.1992,-4.1992,-4.2344,-4.2862,-4.2862,-4.2862,-4.2862,-4.2974,-4.2974,-4.2974,-4.2974,-4.2974,-4.2974,-4.2974,-4.2974,-4.2974,-4.2974,-4.2974,-4.2974,-4.2974,-4.2974,-4.2974,-4.2974,-4.2974,-4.2974,-4.2974,-4.2974,-4.2936,-4.2823,0.0,0.0,0.0,0.0,0.0,0.0,-3.9434,-3.9011,0.0,0.0,0.0,0.0,0.0,-3.1468,-3.2556,-3.2512,-3.2762,-3.3391,-3.3576,-3.4213,-3.5423,-3.5368,-3.5257,-3.4991,-3.5257,-3.5368,-3.5423,-3.5423,-3.5423,-3.5423,-3.5423,-3.5257,-3.4991,-3.4991,-3.4313,-3.3159,-3.2174,-3.1328,-3.0536,0.0,0.0,-3.1185,-3.0589,-3.0974,-3.1313,-3.113,-3.1258,-3.1304,-3.1121,-3.1258,-3.1377,-3.1377,-3.1377,-3.1377,-3.1377,-3.0534,-3.0999,-3.3248,-3.2522,-3.3014,-3.5335,-3.4252,-3.3824,-3.4108,-3.5091,-3.6822,-3.9308,-3.9308,-3.9308,-3.9308,-3.9308,-3.9308,-3.9308,-3.9308,-3.9308,-3.9308,-3.9308,-3.9308,-3.9308,-3.9308,-3.9308,-3.9308,-3.9308,-3.9356,-3.9532,-3.9532,-3.9989,-4.0617,-4.0617,-4.1021,-4.1549,-4.1549,-4.1549,-4.172,-4.2694,-4.2974,-4.2974,-4.2974,-4.2974,-4.2974,-4.2974,-4.2974,-4.2974,-4.2974,-4.2974,-4.2974,-4.2974,-4.2974,-4.2974,-4.2974,-4.2974,-4.2974,-4.2974,-4.2806,-4.2257,-4.1225,-4.0592,0.0,0.0,-3.9332,-3.9971,-4.0195,-4.1025,-4.0821,0.0,0.0,0.0,0.0,-3.5637,-3.5342,-3.6613,-3.6144,-3.5804,-3.5577,-3.516,-3.5121,-3.5423,-3.5202,-3.5035,-3.498,-3.4813,-3.4969,-3.5423,-3.5423,-3.5533,-3.5687,-3.5687,-3.5423,-3.4991,-3.4991,-3.4656,-3.4033,-3.2367,-3.1672,-3.1283,-3.0167,-3.0781,-3.124,-3.0818,-3.1093,-3.1377,-3.1377,-3.1377,-3.1377,-3.1377,-3.1377,-3.1377,-3.1377,-3.1377,-3.1377,-3.1377,-3.0772,-3.0976,-3.24,-3.1865,-3.2161,-3.3538,-3.2767,-3.2639,-3.3236,-3.4557,-3.6544,-3.9308,-3.9308,-3.9308,-3.9308,-3.9308,-3.9308,-3.9308,-3.9308,-3.9308,-3.9308,-3.9308,-3.9308,-3.9308,-3.9308,-3.9308,-3.9308,-3.9308,-3.9308,-3.9308,-3.9308,-3.9708,-4.0223,-4.0223,-4.0629,-4.1091,-4.1091,-4.1091,-4.1263,-4.1948,-4.2344,-4.2569,-4.2569,-4.2806,-4.2974,-4.2974,-4.2974,-4.2974,-4.2974,-4.2974,-4.2974,-4.2974,-4.2974,-4.2974,-4.2974,-4.2974,-4.2974,-4.2974,-4.2181,-4.1314,-4.0586,-3.9692,0.0,-3.9119,-3.9961,-4.0814,-4.1568,-4.2183,-4.2045,-4.0783,0.0,0.0,-3.857,-3.712,-3.6818,-3.7991,-3.74,-3.6754,-3.6091,-3.5345,-3.4969,-3.498,-3.4858,-3.4758,-3.4758,-3.4579,-3.4691,-3.4969,-3.5146,-3.5312,-3.5478,-3.5687,-3.5478,-3.4991,-3.5146,-3.4924,-3.4266,-3.2462,-3.179,-3.1573,-3.1377,-3.1377,-3.1377,-3.1377,-3.1377,-3.1377,-3.1377,-3.1377,-3.1377,-3.1377,-3.1377,-3.1377,-3.1377,-3.1377,-3.1377,-3.1377,-3.1377,-3.1377,-3.1377,-3.1377,-3.1377,-3.1377,-3.1377,-3.1937,-3.3063,-3.4622,-3.6664,-3.9308,-3.9308,-3.9308,-3.9308,-3.9308,-3.9308,-3.9308,-3.9308,-3.9308,-3.9308,-3.9308,-3.9308,-3.9308,-3.9308,-3.9308,-3.9308,-3.9308,-3.9308,-3.9308,-3.9308,-3.965,-4.0048,-4.0048,-4.0397,-4.086,-4.086,-4.086,-4.086,-4.086,-4.132,-4.1879,-4.2061,-4.2513,-4.2974,-4.2974,-4.2974,-4.2974,-4.2974,-4.2974,-4.2974,-4.2974,-4.2974,-4.2974,-4.2974,-4.2974,-4.2898,-4.2647,-4.143,-4.0425,-4.0174,0.0,-3.8919,-4.035,-4.0686,-4.1388,-4.278,-4.2874,-4.2674,-4.2211,-4.0072,-3.9181,0.0,-3.8023,-3.715,-3.8043,-3.7507,-3.6688,-3.5751,-3.4902,-3.4524,-3.4524,-3.4524,-3.4524,-3.4524,-3.4524,-3.4524,-3.4579,-3.4924,-3.5102,-3.5146,-3.5632,-3.5522,-3.5157,-3.5257,-3.5035,-3.4356,-3.2493,-3.1794,-3.1574,-3.1451,-3.1377,-3.1377,-3.1377,-3.1377,-3.1377,-3.1377,-3.1377,-3.1377,-3.1377,-3.1377,-3.1377,-3.1377,-3.1377,-3.1377,-3.1377,-3.1377,-3.1377,-3.1377,-3.1377,-3.1377,-3.1377,-3.1377,-3.1506,-3.169,-3.4123,-3.6664,-3.9308,-3.9308,-3.9308,-3.9308,-3.9308,-3.9308,-3.9308,-3.9308,-3.9308,-3.9308,-3.9308,-3.9308,-3.9308,-3.9308,-3.9308,-3.9308,-3.9308,-3.9308,-3.9308,-3.9308,-3.9356,-3.9414,-3.9414,-3.9473,-3.9591,-3.9591,-3.9591,-3.9591,-3.9591,-3.9989,-4.0745,-4.1822,-4.2513,-4.2974,-4.2974,-4.2974,-4.2974,-4.2974,-4.2974,-4.2974,-4.2974,-4.2974,-4.2974,-4.2974,-4.2974,-4.2522,-4.1128,-4.0689,-4.0023,-3.8592,0.0,-4.0224,-4.0488,-4.1526,-4.2295,-4.2557,-4.2369,-4.2231,-4.2088,-4.093,-4.0235,-4.0407,-3.8937,-3.8153,-3.8344,-3.7826,-3.6839,-3.5477,-3.4847,-3.4524,-3.4524,-3.4524,-3.4524,-3.4524,-3.4524,-3.4646,-3.4935,-3.5202,-3.5478,-3.5687,-3.5742,-3.5742,-3.5632,-3.5202,-3.498,-3.4646,-3.255,-3.1787,-3.156,-3.1717,-3.1653,-3.158,-3.1442,-3.1377,-3.1377,-3.1377,-3.1377,-3.1377,-3.1377,-3.1377,-3.1377,-3.1377,-3.1377,-3.1377,-3.1377,-3.1377,-3.1377,-3.1377,-3.1377,-3.1377,-3.1377,-3.1377,-3.2065,-3.3505,-3.4757,-3.6664,-3.9308,-3.9308,-3.9308,-3.9308,-3.9308,-3.9308,-3.9308,-3.9308,-3.9308,-3.9308,-3.9308,-3.9308,-3.9308,-3.9308,-3.9308,-3.9308,-3.9308,-3.9308,-3.9308,-3.9308,-3.9308,-3.9308,-3.9308,-3.9308,-3.9308,-3.9308,-3.9308,-3.9308,-3.9308,-3.9708,-4.0455,-4.1765,-4.2287,-4.2569,-4.2918,-4.2974,-4.2974,-4.2974,-4.2974,-4.2974,-4.2974,-4.2974,-4.2974,-4.2974,-4.2974,-4.2735,-4.1969,-4.1091,0.0,0.0,-4.0023,-4.0513,-4.0513,-4.186,-4.2694,-4.2525,-4.2356,-4.2256,-4.211,-4.1102,-4.0433,-4.0245,-3.9058,-3.8303,-3.8198,-3.7613,-3.6862,-3.5872,-3.5279,-3.4847,-3.4524,-3.4524,-3.4579,-3.4758,-3.4758,-3.4924,-3.5202,-3.5478,-3.5698,-3.5797,-3.6004,-3.595,-3.5742,-3.5368,-3.5146,-3.4813,-3.313,-3.2197,-3.1634,-3.2111,-3.2047,-3.191,-3.158,-3.1515,-3.1506,-3.1377,-3.1377,-3.1377,-3.1377,-3.1377,-3.1377,-3.1377,-3.1377,-3.1377,-3.1377,-3.1377,-3.1377,-3.1377,-3.1377,-3.1377,-3.1377,-3.1377,-3.2502,-3.4881,-3.5253,-3.6542,-3.886,-3.9178,-3.9308,-3.9308,-3.9308,-3.9308,-3.9308,-3.9308,-3.9308,-3.9308,-3.9308,-3.9308,-3.9308,-3.9308,-3.9308,-3.9308,-3.9308,-3.9308,-3.9308,-3.9308,-3.9308,-3.9308,-3.9308,-3.9308,-3.9308,-3.9308,-3.9308,-3.9308,-3.9308,-3.965,-4.0281,-4.1537,-4.1992,-4.2231,-4.2862,-4.2974,-4.2974,-4.2974,-4.2974,-4.2974,-4.2974,-4.2974,-4.2974,-4.2974,-4.2974,-4.2848,-4.2472,0.0,0.0,0.0,-4.0513,-4.0664,-4.104,-4.2098,-4.2706,-4.2413,-4.23,-4.2142,-4.1928,-4.0881,-4.0202,-3.9904,-3.8885,-3.8198,-3.7986,-3.74,-3.6862,-3.6332,-3.5708,-3.5113,-3.4524,-3.4524,-3.4635,-3.488,-3.498,-3.5102,-3.5312,-3.5632,-3.5797,-3.5852,-3.6168,-3.6168,-3.5906,-3.5533,-3.5257,-3.4924,-3.3695,-3.2607,-3.174,-3.2422,-3.2358,-3.223,-3.1919,-3.1855,-3.1782,-3.1442,-3.1377,-3.1377,-3.1377,-3.1377,-3.1377,-3.1377,-3.1377,-3.1377,-3.1377,-3.1377,-3.1377,-3.1377,-3.1377,-3.1377,-3.1377,-3.1377,-3.2065,-3.3505,-3.4746,-3.6104,-3.7429,-3.8682,-3.9308,-3.9308,-3.9308,-3.9308,-3.9308,-3.9308,-3.9308,-3.9308,-3.9308,-3.9308,-3.9308,-3.9308,-3.9308,-3.9308,-3.9308,-3.9308,-3.9308,-3.9308,-3.9308,-3.9308,-3.9308,-3.9308,-3.9308,-3.9308,-3.9308,-3.9308,-3.9308,-3.9308,-3.965,-4.086,-4.1606,-4.2231,-4.2862,-4.2974,-4.2974,-4.2974,-4.2974,-4.2974,-4.2974,-4.2974,-4.2974,-4.2974,-4.2974,-4.2472,-4.0953,0.0,0.0,-4.0513,-4.0513,-4.1091,-4.261,-4.2407,-4.2167,-4.2098,-4.1643,-4.1299,-4.1242,-4.0266,-3.9664,-3.9609,-3.8629,-3.8027,-3.7986,-3.74,-3.6862,-3.6332,-3.5708,-3.5113,-3.4524,-3.4524,-3.4524,-3.4524,-3.4869,-3.4991,-3.5047,-3.5588,-3.5797,-3.5852,-3.6168,-3.6266,-3.6223,-3.5632,-3.5368,-3.5246,-3.3987,-3.2835,-3.169,-3.2794,-3.2731,-3.2613,-3.2294,-3.223,-3.2166,-3.2029,-3.2029,-3.1965,-3.1717,-3.1717,-3.1644,-3.1442,-3.1377,-3.1377,-3.1377,-3.1377,-3.1377,-3.1377,-3.1377,-3.1377,-3.1377,-3.1377,-3.2001,-3.3379,-3.3882,-3.516,-3.7298,-3.7801,-3.8492,-3.9308,-3.9308,-3.9308,-3.9308,-3.9308,-3.9308,-3.9308,-3.9308,-3.9308,-3.9308,-3.9308,-3.9308,-3.9308,-3.9308,-3.9308,-3.9308,-3.9308,-3.9308,-3.9308,-3.9308,-3.9308,-3.9308,-3.9308,-3.9308,-3.9308,-3.9308,-3.9308,-3.9473,-4.0339,-4.1021,-4.1651,-4.2287,-4.275,-4.2974,-4.2974,-4.2974,-4.2974,-4.2974,-4.2974,-4.2974,-4.2974,-4.2974,-4.2773,-4.2145,0.0,-4.2045,-4.2045,-4.2045,-4.2271,-4.2898,-4.2581,-4.2256,-4.2098,-4.1688,-4.139,-4.1184,-4.021,-3.9609,-3.9609,-3.8575,-3.7986,-3.7986,-3.7773,-3.74,-3.6808,-3.6266,-3.5664,-3.5058,-3.468,-3.4635,-3.4813,-3.4924,-3.5091,-3.5257,-3.5632,-3.5797,-3.5852,-3.6168,-3.632,-3.6223,-3.5632,-3.5522,-3.5522,-3.4736,-3.347,-3.2015,-3.3111,-3.3048,-3.2921,-3.2613,-3.2549,-3.2549,-3.2422,-3.2422,-3.2294,-3.2111,-3.2047,-3.191,-3.158,-3.158,-3.1506,-3.1377,-3.1377,-3.1377,-3.1377,-3.1377,-3.1377,-3.1377,-3.1377,-3.1818,-3.2756,-3.3189,-3.43,-3.6072,-3.6874,-3.7741,-3.867,-3.9119,-3.9308,-3.9308,-3.9308,-3.9308,-3.9308,-3.9308,-3.9308,-3.9308,-3.9308,-3.9308,-3.9308,-3.9308,-3.9308,-3.9308,-3.9308,-3.9308,-3.9308,-3.9308,-3.9308,-3.9308,-3.9308,-3.9308,-3.9308,-3.9308,-3.9308,-3.9356,-3.9826,-4.0339,-4.1033,-4.1891,-4.2569,-4.2974,-4.2974,-4.2974,-4.2974,-4.2974,-4.2974,-4.2974,-4.2974,-4.2974,-4.2974,-4.2974,-4.2974,-4.2974,-4.2974,-4.2974,-4.2974,-4.2974,-4.2694,-4.2413,-4.2268,-4.1972,-4.1618,-4.1344,-4.0354,-3.9563,-3.9116,-3.8383,-3.7986,-3.7986,-3.7986,-3.772,-3.7131,-3.6592,-3.5884,-3.5102,-3.468,-3.4646,-3.4869,-3.4935,-3.5146,-3.5423,-3.5687,-3.5852,-3.595,-3.6223,-3.632,-3.6277,-3.5742,-3.5632,-3.5742,-3.5312,-3.3864,-3.2176,-3.3418,-3.3418,-3.3292,-3.2985,-3.2921,-3.2794,-3.2485,-3.2422,-3.2422,-3.2422,-3.2422,-3.2294,-3.1919,-3.1919,-3.1782,-3.1442,-3.1377,-3.1377,-3.1377,-3.1377,-3.1377,-3.1377,-3.1377,-3.1377,-3.1377,-3.2692,-3.3379,-3.3379,-3.6011,-3.7298,-3.7298,-3.867,-3.9308,-3.9308,-3.9308,-3.9308,-3.9308,-3.9308,-3.9308,-3.9308,-3.9308,-3.9308,-3.9308,-3.9308,-3.9308,-3.9308,-3.9308,-3.9308,-3.9308,-3.9308,-3.9308,-3.9308,-3.9308,-3.9308,-3.9308,-3.9308,-3.9308,-3.9308,-3.9308,-3.9767,-4.0513,-4.1765,-4.2513,-4.2974,-4.2974,-4.2974,-4.2974,-4.2974,-4.2974,-4.2974,-4.2974,-4.2974,-4.2974,-4.2974,-4.2974,-4.2974,-4.2974,-4.2974,-4.2974,-4.2974,-4.2694,-4.2525,-4.2525,-4.2256,-4.1972,-4.1606,-4.0609,-3.9431,-3.8087,-3.7986,-3.7986,-3.7986,-3.7986,-3.772,-3.7131,-3.6592,-3.5676,-3.4524,-3.4524,-3.4524,-3.4524,-3.4869,-3.5146,-3.5423,-3.5687,-3.6004,-3.632,-3.632,-3.632,-3.6277,-3.5906,-3.5797,-3.5797,-3.5522,-3.4032,-3.2234,-3.3418,-3.3418,-3.3355,-3.3301,-3.3238,-3.3238,-3.3111,-3.3111,-3.3048,-3.2794,-3.2731,-3.2613,-3.2294,-3.223,-3.2102,-3.1782,-3.1717,-3.1644,-3.1442,-3.1377,-3.1377,-3.1377,-3.1377,-3.1377,-3.1377,-3.1818,-3.2447,-3.3379,-3.4175,-3.552,-3.7298,-3.773,-3.8421,-3.9308,-3.9308,-3.9308,-3.9308,-3.9308,-3.9308,-3.9308,-3.9308,-3.9308,-3.9308,-3.9308,-3.9308,-3.9308,-3.9308,-3.9308,-3.9308,-3.9308,-3.9308,-3.9308,-3.9308,-3.9308,-3.9308,-3.9308,-3.9308,-3.9308,-3.9308,-3.9767,-4.0281,-4.0687,-4.1537,-4.2344,-4.2344,-4.2694,-4.2974,-4.2974,-4.2974,-4.2974,-4.2974,-4.2974,-4.2974,-4.2974,-4.2974,-4.2974,-4.2974,-4.2974,-4.2974,-4.2974,-4.2694,-4.2525,-4.2525,-4.2256,-4.2041,-4.1972,-4.0979,-3.9726,-3.8364,-3.8303,-3.8198,-3.7986,-3.7986,-3.772,-3.7131,-3.6592,-3.5938,-3.5113,-3.468,-3.4524,-3.4524,-3.4869,-3.5047,-3.5146,-3.5577,-3.5852,-3.5961,-3.6223,-3.632,-3.6277,-3.5906,-3.5961,-3.6114,-3.5797,-3.488,-3.3674,-3.3418,-3.3418,-3.3418,-3.3418,-3.3418,-3.3418,-3.3418,-3.3418,-3.3355,-3.3111,-3.3111,-3.2985,-3.2603,-3.2613,-3.2485,-3.2102,-3.2111,-3.1974,-3.1644,-3.158,-3.1515,-3.1377,-3.1377,-3.1377,-3.1377,-3.1377,-3.1818,-3.2629,-3.3126,-3.4238,-3.5766,-3.6814,-3.7741,-3.8551,-3.9049,-3.9308,-3.9308,-3.9308,-3.9308,-3.9308,-3.9308,-3.9308,-3.9308,-3.9308,-3.9308,-3.9308,-3.9308,-3.9308,-3.9308,-3.9308,-3.9308,-3.9308,-3.9308,-3.9308,-3.9308,-3.9308,-3.9308,-3.9308,-3.9308,-3.9591,-3.9826,-3.9826,-4.0964,-4.2118,-4.2118,-4.2581,-4.2974,-4.2974,-4.2974,-4.2974,-4.2974,-4.2974,-4.2974,-4.2974,-4.2974,-4.2974,-4.2974,-4.2974,-4.2974,-4.2974,-4.2806,-4.2694,-4.2694,-4.2538,-4.2195,-4.1539,-4.0734,-3.9726,-3.8311,-3.825,-3.8198,-3.7986,-3.7986,-3.772,-3.7131,-3.6754,-3.62,-3.5367,-3.4902,-3.4702,-3.4702,-3.5035,-3.5202,-3.5312,-3.5632,-3.5906,-3.6004,-3.6223,-3.632,-3.6277,-3.6059,-3.6114,-3.6266,-3.5895,-3.5224,-3.4302,-3.3418,-3.3418,-3.3418,-3.3418,-3.3418,-3.3418,-3.3418,-3.3418,-3.3418,-3.3418,-3.3418,-3.3292,-3.2985,-3.2921,-3.2794,-3.2485,-3.2422,-3.2294,-3.1983,-3.1919,-3.1782,-3.1506,-3.1506,-3.1506,-3.1506,-3.1442,-3.1377,-3.1377,-3.2629,-3.3316,-3.3505,-3.5888,-3.7116,-3.7429,-3.8622,-3.9249,-3.9308,-3.9308,-3.9308,-3.9308,-3.9308,-3.9308,-3.9308,-3.9308,-3.9308,-3.9308,-3.9308,-3.9308,-3.9308,-3.9308,-3.9308,-3.9308,-3.9308,-3.9308,-3.9308,-3.9308,-3.9308,-3.9308,-3.9308,-3.9308,-3.9308,-3.9308,-4.0629,-4.1935,-4.2004,-4.2457,-4.2918,-4.2974,-4.2974,-4.2974,-4.2974,-4.2974,-4.2974,-4.2974,-4.2974,-4.2974,-4.2974,-4.2974,-4.2974,-4.2974,-4.2974,-4.2974,-4.2974,-4.2974,-4.2288,-4.0634,-4.022,-3.9485,-3.8087,-3.8039,-3.8027,-3.7986,-3.7986,-3.772,-3.7185,-3.7131,-3.6526,-3.5378,-3.5191,-3.5047,-3.4991,-3.5312,-3.5577,-3.5797,-3.5852,-3.6016,-3.632,-3.632,-3.632,-3.632,-3.632,-3.632,-3.6266,-3.595,-3.5334,-3.4413,-3.3418,-3.3418,-3.3418,-3.3418,-3.3418,-3.3418,-3.3418,-3.3418,-3.3418,-3.3418,-3.3418,-3.3355,-3.3292,-3.3301,-3.3175,-3.2794,-3.2549,-3.2358,-3.2294,-3.2294,-3.223,-3.2166,-3.2157,-3.2157,-3.2157,-3.1644,-3.1377,-3.1377,-3.169,-3.2502,-3.3819,-3.4363,-3.5725,-3.7714,-3.8025,-3.8574,-3.9308,-3.9308,-3.9308,-3.9308,-3.9308,-3.9308,-3.9308,-3.9308,-3.9308,-3.9308,-3.9308,-3.9308,-3.9308,-3.9308,-3.9308,-3.9308,-3.9308,-3.9308,-3.9308,-3.9308,-3.9308,-3.9308,-3.9308,-3.9308,-3.9308,-3.9308,-3.9931,-4.0745,-4.1206,-4.1822,-4.2457,-4.2918,-4.2974,-4.2974,-4.2974,-4.2974,-4.2974,-4.2974,-4.2974,-4.2974,-4.2974,-4.2974,-4.2974,-4.2974,-4.2974,-4.2974,-4.2974,-4.2974,-4.2399,-4.0918,-4.0723,-3.9972,-3.8417,-3.8303,-3.8198,-3.7986,-3.7986,-3.7933,-3.7826,-3.7346,-3.6526,-3.5378,-3.5543,-3.54,-3.5047,-3.5478,-3.5742,-3.5797,-3.6059,-3.6211,-3.632,-3.632,-3.632,-3.632,-3.632,-3.632,-3.6266,-3.6223,-3.6048,-3.5587,-3.3418,-3.3418,-3.3418,-3.3418,-3.3418,-3.3418,-3.3418,-3.3418,-3.3418,-3.3418,-3.3418,-3.3418,-3.3418,-3.3418,-3.3355,-3.3175,-3.2985,-3.2794,-3.2667,-3.2613,-3.2549,-3.2422,-3.2422,-3.2422,-3.2422,-3.2029,-3.1772,-3.1644,-3.1644,-3.2019,-3.2692,-3.3379,-3.4746,-3.6674,-3.727,-3.8194,-3.9308,-3.9308,-3.9308,-3.9308,-3.9308,-3.9308,-3.9308,-3.9308,-3.9308,-3.9308,-3.9308,-3.9308,-3.9308,-3.9308,-3.9308,-3.9308,-3.9308,-3.9308,-3.9308,-3.9308,-3.9308,-3.9308,-3.9308,-3.9308,-3.9308,-3.9308,-3.9532,-3.9943,-4.0513,-4.1136,-4.1777,-4.2457,-4.2569,-4.2638,-4.2974,-4.2974,-4.2974,-4.2974,-4.2974,-4.2974,-4.2974,-4.2974,-4.2974,-4.2974,-4.2974,-4.2974,-4.2974,-4.2974,-4.2511,-4.14,-4.1034,-4.0376,-3.9071,-3.8607,-3.8356,-3.8198,-3.8198,-3.8198,-3.8198,-3.788,-3.7281,-3.646,-3.6025,-3.5653,-3.54,-3.5522,-3.5687,-3.5797,-3.6004,-3.6168,-3.632,-3.632,-3.632,-3.632,-3.632,-3.632,-3.632,-3.632,-3.5532,-3.4325,-3.3418,-3.3418,-3.3418,-3.3418,-3.3418,-3.3418,-3.3418,-3.3418,-3.3418,-3.3418,-3.3418,-3.3418,-3.3418,-3.3418,-3.3418,-3.3418,-3.3418,-3.3292,-3.2985,-3.2985,-3.2858,-3.2603,-3.2549,-3.2549,-3.2549,-3.2549,-3.2358,-3.1983,-3.1983,-3.1846,-3.157,-3.2702,-3.3882,-3.5191,-3.652,-3.7752,-3.899,-3.9178,-3.9308,-3.9308,-3.9308,-3.9308,-3.9308,-3.9308,-3.9308,-3.9308,-3.9308,-3.9308,-3.9308,-3.9308,-3.9308,-3.9308,-3.9308,-3.9308,-3.9308,-3.9308,-3.9308,-3.9308,-3.9308,-3.9308,-3.9308,-3.9308,-3.9308,-3.9414,-3.9943,-4.0513,-4.1148,-4.1765,-4.1948,-4.2061,-4.2581,-4.2694,-4.2694,-4.2806,-4.2862,-4.2862,-4.2974,-4.2974,-4.2974,-4.2974,-4.2974,-4.2974,-4.2974,-4.2974,-4.2637,-4.1755,-4.1196,-4.0554,-3.9767,-3.8937,-3.8473,-3.8473,-3.8409,-3.8409,-3.8409,-3.8356,-3.8092,-3.7655,-3.6569,-3.5916,-3.5806,-3.5511,-3.5533,-3.5797,-3.5797,-3.6004,-3.632,-3.632,-3.632,-3.632,-3.632,-3.632,-3.632,-3.632,-3.4847,-3.2907,-3.3418,-3.3418,-3.3418,-3.3418,-3.3418,-3.3418,-3.3418,-3.3418,-3.3418,-3.3418,-3.3418,-3.3418,-3.3418,-3.3418,-3.3418,-3.3418,-3.3418,-3.3355,-3.3364,-3.3355,-3.3292,-3.3301,-3.3228,-3.3228,-3.3228,-3.3228,-3.2985,-3.2358,-3.2358,-3.2294,-3.2294,-3.2476,-3.3092,-3.4185,-3.55,-3.6653,-3.767,-3.88,-3.9308,-3.9308,-3.9308,-3.9308,-3.9308,-3.9308,-3.9308,-3.9308,-3.9308,-3.9308,-3.9308,-3.9308,-3.9308,-3.9308,-3.9308,-3.9308,-3.9308,-3.9308,-3.9308,-3.9308,-3.9308,-3.9308,-3.9308,-3.9308,-3.9308,-3.9297,-3.9414,-3.9884,-4.0513,-4.1091,-4.1263,-4.1263,-4.132,-4.1378,-4.1549,-4.2118,-4.2231,-4.24,-4.2918,-4.2974,-4.2974,-4.2974,-4.2974,-4.2974,-4.2974,-4.2974,-4.2637,-4.1755,-4.1196,-4.0554,-3.9767,-3.9095,-3.8736,-3.8736,-3.8514,-3.8409,-3.8409,-3.8198,-3.8039,-3.7933,-3.7227,-3.6526,-3.5806,-3.5511,-3.5533,-3.5797,-3.5797,-3.6004,-3.632,-3.632,-3.632,-3.632,-3.632,-3.632,-3.632,-3.632,-3.5422,-3.4067,-3.3418,-3.3418,-3.3418,-3.3418,-3.3418,-3.3418,-3.3418,-3.3418,-3.3418,-3.3418,-3.3418,-3.3418,-3.3418,-3.3418,-3.3418,-3.3418,-3.3418,-3.3418,-3.3418,-3.3418,-3.3418,-3.3418,-3.3418,-3.3418,-3.3418,-3.3418,-3.3238,-3.2985,-3.2794,-3.2603,-3.2422,-3.2422,-3.2965,-3.3935,-3.4507,-3.5428,-3.6592,-3.7692,-3.8313,-3.8514,-3.906,-3.9308,-3.9308,-3.9308,-3.9308,-3.9308,-3.9308,-3.9308,-3.9308,-3.9308,-3.9308,-3.9308,-3.9308,-3.9308,-3.9308,-3.9308,-3.9308,-3.9308,-3.9308,-3.9308,-3.9308,-3.9308,-3.9308,-3.9308,-3.9308,-3.9532,-3.9884,-4.0455,-4.0629,-4.0687,-4.1033,-4.1091,-4.1206,-4.1492,-4.1834,-4.2174,-4.2457,-4.2806,-4.2974,-4.2974,-4.2974,-4.2974,-4.2974,-4.2974,-4.2818,-4.2468,-4.1601,-4.096,-4.0628,-3.9466,-3.8893,-3.905,-3.8631,-3.8473,-3.8631,-3.8356,-3.8198,-3.8198,-3.7453,-3.6754,-3.6036,-3.5609,-3.5455,-3.5588,-3.5588,-3.584,-3.632,-3.632,-3.632,-3.632,-3.632,-3.632,-3.632,-3.632,-3.5543,-3.4302]}]]